<?xml version="1.0" encoding="UTF-8" standalone="no" ?>
<gpx xmlns="http://www.topografix.com/GPX/1/1" xmlns:xsi="http://www.w3.org/2001/XMLSchema-instance" xsi:schemaLocation="http://www.topografix.com/GPX/1/1 http://www.topografix.com/GPX/1/1/gpx.xsd" version="1.1" creator="VisuGPX - https://www.visugpx.com">
  <metadata>
    <name>Cambra d'Ase, Torre d'Eina y Pic d'Eina</name>
    <desc><![CDATA[Boucle au départ d'Eyne 2600 pour le Cambre d'Ase, la tour d'Eyne et le pic d'Eyne.
]]></desc>
  </metadata>
  <trk>
    <name><![CDATA[Cambra d’Ase, Torre d’Eina i Pic d’Eina pel Serrat de Fontfr...]]></name>
    <trkseg>
      <trkpt lat="42.47564" lon="2.10154">
        <ele>1773.795</ele>
        <time>2018-06-30T08:17:45Z</time>
      </trkpt>
      <trkpt lat="42.47571" lon="2.1016">
        <ele>1774.249</ele>
        <time>2018-06-30T08:18:25Z</time>
      </trkpt>
      <trkpt lat="42.47578" lon="2.10167">
        <ele>1774.223</ele>
        <time>2018-06-30T08:18:41Z</time>
      </trkpt>
      <trkpt lat="42.47597" lon="2.10184">
        <ele>1774.208</ele>
        <time>2018-06-30T08:19:13Z</time>
      </trkpt>
      <trkpt lat="42.47609" lon="2.10202">
        <ele>1775.221</ele>
        <time>2018-06-30T08:19:27Z</time>
      </trkpt>
      <trkpt lat="42.47615" lon="2.10221">
        <ele>1777.195</ele>
        <time>2018-06-30T08:19:42Z</time>
      </trkpt>
      <trkpt lat="42.4762" lon="2.10239">
        <ele>1779.027</ele>
        <time>2018-06-30T08:20:28Z</time>
      </trkpt>
      <trkpt lat="42.47624" lon="2.10252">
        <ele>1779.566</ele>
        <time>2018-06-30T08:20:40Z</time>
      </trkpt>
      <trkpt lat="42.47628" lon="2.10274">
        <ele>1780.921</ele>
        <time>2018-06-30T08:20:57Z</time>
      </trkpt>
      <trkpt lat="42.47634" lon="2.1029">
        <ele>1781.41</ele>
        <time>2018-06-30T08:21:11Z</time>
      </trkpt>
      <trkpt lat="42.47635" lon="2.10297">
        <ele>1782.416</ele>
        <time>2018-06-30T08:21:16Z</time>
      </trkpt>
      <trkpt lat="42.47636" lon="2.10301">
        <ele>1782.482</ele>
        <time>2018-06-30T08:21:19Z</time>
      </trkpt>
      <trkpt lat="42.47637" lon="2.10314">
        <ele>1783.835</ele>
        <time>2018-06-30T08:21:30Z</time>
      </trkpt>
      <trkpt lat="42.47638" lon="2.10322">
        <ele>1783.886</ele>
        <time>2018-06-30T08:21:37Z</time>
      </trkpt>
      <trkpt lat="42.47643" lon="2.10346">
        <ele>1785.714</ele>
        <time>2018-06-30T08:21:56Z</time>
      </trkpt>
      <trkpt lat="42.47645" lon="2.1037">
        <ele>1785.708</ele>
        <time>2018-06-30T08:22:27Z</time>
      </trkpt>
      <trkpt lat="42.47647" lon="2.10394">
        <ele>1788.165</ele>
        <time>2018-06-30T08:22:43Z</time>
      </trkpt>
      <trkpt lat="42.47649" lon="2.10413">
        <ele>1788.189</ele>
        <time>2018-06-30T08:22:58Z</time>
      </trkpt>
      <trkpt lat="42.4765" lon="2.10425">
        <ele>1790.531</ele>
        <time>2018-06-30T08:23:11Z</time>
      </trkpt>
      <trkpt lat="42.47653" lon="2.10444">
        <ele>1791.59</ele>
        <time>2018-06-30T08:23:24Z</time>
      </trkpt>
      <trkpt lat="42.47654" lon="2.10466">
        <ele>1792.045</ele>
        <time>2018-06-30T08:23:38Z</time>
      </trkpt>
      <trkpt lat="42.47654" lon="2.10482">
        <ele>1793.054</ele>
        <time>2018-06-30T08:23:51Z</time>
      </trkpt>
      <trkpt lat="42.47653" lon="2.10489">
        <ele>1793.97</ele>
        <time>2018-06-30T08:24:04Z</time>
      </trkpt>
      <trkpt lat="42.47651" lon="2.10497">
        <ele>1793.946</ele>
        <time>2018-06-30T08:24:22Z</time>
      </trkpt>
      <trkpt lat="42.47648" lon="2.10507">
        <ele>1794.471</ele>
        <time>2018-06-30T08:24:31Z</time>
      </trkpt>
      <trkpt lat="42.47645" lon="2.10517">
        <ele>1796.341</ele>
        <time>2018-06-30T08:25:10Z</time>
      </trkpt>
      <trkpt lat="42.47642" lon="2.10521">
        <ele>1796.315</ele>
        <time>2018-06-30T08:25:25Z</time>
      </trkpt>
      <trkpt lat="42.47637" lon="2.10539">
        <ele>1797.808</ele>
        <time>2018-06-30T08:25:41Z</time>
      </trkpt>
      <trkpt lat="42.47637" lon="2.1054">
        <ele>1798.289</ele>
        <time>2018-06-30T08:25:42Z</time>
      </trkpt>
      <trkpt lat="42.47637" lon="2.10549">
        <ele>1798.263</ele>
        <time>2018-06-30T08:25:48Z</time>
      </trkpt>
      <trkpt lat="42.47637" lon="2.10555">
        <ele>1799.245</ele>
        <time>2018-06-30T08:25:52Z</time>
      </trkpt>
      <trkpt lat="42.47638" lon="2.10559">
        <ele>1799.234</ele>
        <time>2018-06-30T08:25:55Z</time>
      </trkpt>
      <trkpt lat="42.47637" lon="2.10566">
        <ele>1799.799</ele>
        <time>2018-06-30T08:26:01Z</time>
      </trkpt>
      <trkpt lat="42.47636" lon="2.10569">
        <ele>1799.718</ele>
        <time>2018-06-30T08:26:04Z</time>
      </trkpt>
      <trkpt lat="42.47634" lon="2.10579">
        <ele>1800.274</ele>
        <time>2018-06-30T08:26:11Z</time>
      </trkpt>
      <trkpt lat="42.47632" lon="2.10582">
        <ele>1800.61</ele>
        <time>2018-06-30T08:26:13Z</time>
      </trkpt>
      <trkpt lat="42.47629" lon="2.10589">
        <ele>1801.138</ele>
        <time>2018-06-30T08:26:19Z</time>
      </trkpt>
      <trkpt lat="42.47627" lon="2.10592">
        <ele>1801.17</ele>
        <time>2018-06-30T08:26:21Z</time>
      </trkpt>
      <trkpt lat="42.47618" lon="2.10613">
        <ele>1802.617</ele>
        <time>2018-06-30T08:26:36Z</time>
      </trkpt>
      <trkpt lat="42.47609" lon="2.10632">
        <ele>1804.008</ele>
        <time>2018-06-30T08:26:50Z</time>
      </trkpt>
      <trkpt lat="42.476" lon="2.10645">
        <ele>1805.465</ele>
        <time>2018-06-30T08:27:01Z</time>
      </trkpt>
      <trkpt lat="42.47595" lon="2.1066">
        <ele>1806.429</ele>
        <time>2018-06-30T08:27:13Z</time>
      </trkpt>
      <trkpt lat="42.47591" lon="2.10663">
        <ele>1806.941</ele>
        <time>2018-06-30T08:27:17Z</time>
      </trkpt>
      <trkpt lat="42.47581" lon="2.10676">
        <ele>1807.92</ele>
        <time>2018-06-30T08:27:58Z</time>
      </trkpt>
      <trkpt lat="42.47577" lon="2.10674">
        <ele>1808.835</ele>
        <time>2018-06-30T08:28:13Z</time>
      </trkpt>
      <trkpt lat="42.47574" lon="2.10673">
        <ele>1808.864</ele>
        <time>2018-06-30T08:28:39Z</time>
      </trkpt>
      <trkpt lat="42.47571" lon="2.10675">
        <ele>1809.31</ele>
        <time>2018-06-30T08:28:53Z</time>
      </trkpt>
      <trkpt lat="42.47571" lon="2.10675">
        <ele>1809.336</ele>
        <time>2018-06-30T08:29:48Z</time>
      </trkpt>
      <trkpt lat="42.47572" lon="2.10675">
        <ele>1808.363</ele>
        <time>2018-06-30T08:29:56Z</time>
      </trkpt>
      <trkpt lat="42.47562" lon="2.10676">
        <ele>1810.744</ele>
        <time>2018-06-30T08:31:02Z</time>
      </trkpt>
      <trkpt lat="42.47545" lon="2.10683">
        <ele>1813.618</ele>
        <time>2018-06-30T08:31:20Z</time>
      </trkpt>
      <trkpt lat="42.47532" lon="2.10689">
        <ele>1815.508</ele>
        <time>2018-06-30T08:31:35Z</time>
      </trkpt>
      <trkpt lat="42.4752" lon="2.10694">
        <ele>1816.518</ele>
        <time>2018-06-30T08:31:49Z</time>
      </trkpt>
      <trkpt lat="42.47508" lon="2.10697">
        <ele>1819.442</ele>
        <time>2018-06-30T08:32:05Z</time>
      </trkpt>
      <trkpt lat="42.47495" lon="2.10705">
        <ele>1822.344</ele>
        <time>2018-06-30T08:32:22Z</time>
      </trkpt>
      <trkpt lat="42.47486" lon="2.10706">
        <ele>1824.763</ele>
        <time>2018-06-30T08:32:36Z</time>
      </trkpt>
      <trkpt lat="42.47476" lon="2.10708">
        <ele>1826.658</ele>
        <time>2018-06-30T08:32:51Z</time>
      </trkpt>
      <trkpt lat="42.47467" lon="2.10712">
        <ele>1829.087</ele>
        <time>2018-06-30T08:33:05Z</time>
      </trkpt>
      <trkpt lat="42.47458" lon="2.10717">
        <ele>1830.033</ele>
        <time>2018-06-30T08:33:19Z</time>
      </trkpt>
      <trkpt lat="42.47449" lon="2.1072">
        <ele>1833.319</ele>
        <time>2018-06-30T08:33:30Z</time>
      </trkpt>
      <trkpt lat="42.47437" lon="2.10725">
        <ele>1835.238</ele>
        <time>2018-06-30T08:33:46Z</time>
      </trkpt>
      <trkpt lat="42.47429" lon="2.10728">
        <ele>1837.27</ele>
        <time>2018-06-30T08:34:00Z</time>
      </trkpt>
      <trkpt lat="42.4742" lon="2.10728">
        <ele>1838.617</ele>
        <time>2018-06-30T08:34:14Z</time>
      </trkpt>
      <trkpt lat="42.47407" lon="2.10729">
        <ele>1842.008</ele>
        <time>2018-06-30T08:34:31Z</time>
      </trkpt>
      <trkpt lat="42.47398" lon="2.10734">
        <ele>1843.925</ele>
        <time>2018-06-30T08:34:46Z</time>
      </trkpt>
      <trkpt lat="42.4739" lon="2.10741">
        <ele>1844.999</ele>
        <time>2018-06-30T08:35:01Z</time>
      </trkpt>
      <trkpt lat="42.47381" lon="2.10742">
        <ele>1846.381</ele>
        <time>2018-06-30T08:35:14Z</time>
      </trkpt>
      <trkpt lat="42.4738" lon="2.10744">
        <ele>1847.34</ele>
        <time>2018-06-30T08:35:17Z</time>
      </trkpt>
      <trkpt lat="42.47374" lon="2.10756">
        <ele>1848.755</ele>
        <time>2018-06-30T08:35:33Z</time>
      </trkpt>
      <trkpt lat="42.4737" lon="2.10758">
        <ele>1851.654</ele>
        <time>2018-06-30T08:35:44Z</time>
      </trkpt>
      <trkpt lat="42.47366" lon="2.10762">
        <ele>1854.57</ele>
        <time>2018-06-30T08:35:59Z</time>
      </trkpt>
      <trkpt lat="42.47366" lon="2.10767">
        <ele>1856.446</ele>
        <time>2018-06-30T08:36:14Z</time>
      </trkpt>
      <trkpt lat="42.47362" lon="2.10769">
        <ele>1857.837</ele>
        <time>2018-06-30T08:36:30Z</time>
      </trkpt>
      <trkpt lat="42.47359" lon="2.10773">
        <ele>1860.249</ele>
        <time>2018-06-30T08:36:43Z</time>
      </trkpt>
      <trkpt lat="42.47356" lon="2.10771">
        <ele>1861.213</ele>
        <time>2018-06-30T08:37:04Z</time>
      </trkpt>
      <trkpt lat="42.47349" lon="2.1077">
        <ele>1862.208</ele>
        <time>2018-06-30T08:37:19Z</time>
      </trkpt>
      <trkpt lat="42.47346" lon="2.10769">
        <ele>1862.655</ele>
        <time>2018-06-30T08:38:03Z</time>
      </trkpt>
      <trkpt lat="42.47333" lon="2.10771">
        <ele>1863.639</ele>
        <time>2018-06-30T08:38:14Z</time>
      </trkpt>
      <trkpt lat="42.47317" lon="2.10773">
        <ele>1864.151</ele>
        <time>2018-06-30T08:38:27Z</time>
      </trkpt>
      <trkpt lat="42.47308" lon="2.10775">
        <ele>1866.05</ele>
        <time>2018-06-30T08:38:42Z</time>
      </trkpt>
      <trkpt lat="42.47304" lon="2.10775">
        <ele>1866.565</ele>
        <time>2018-06-30T08:38:47Z</time>
      </trkpt>
      <trkpt lat="42.47294" lon="2.10784">
        <ele>1867.964</ele>
        <time>2018-06-30T08:39:01Z</time>
      </trkpt>
      <trkpt lat="42.47287" lon="2.10786">
        <ele>1870.33</ele>
        <time>2018-06-30T08:39:14Z</time>
      </trkpt>
      <trkpt lat="42.4728" lon="2.10788">
        <ele>1872.356</ele>
        <time>2018-06-30T08:39:29Z</time>
      </trkpt>
      <trkpt lat="42.47268" lon="2.10795">
        <ele>1875.122</ele>
        <time>2018-06-30T08:39:46Z</time>
      </trkpt>
      <trkpt lat="42.4726" lon="2.108">
        <ele>1878.062</ele>
        <time>2018-06-30T08:40:01Z</time>
      </trkpt>
      <trkpt lat="42.4725" lon="2.10803">
        <ele>1881.408</ele>
        <time>2018-06-30T08:40:28Z</time>
      </trkpt>
      <trkpt lat="42.47241" lon="2.1081">
        <ele>1883.808</ele>
        <time>2018-06-30T08:40:43Z</time>
      </trkpt>
      <trkpt lat="42.47232" lon="2.10814">
        <ele>1886.284</ele>
        <time>2018-06-30T08:40:57Z</time>
      </trkpt>
      <trkpt lat="42.47222" lon="2.1082">
        <ele>1889.688</ele>
        <time>2018-06-30T08:41:12Z</time>
      </trkpt>
      <trkpt lat="42.47209" lon="2.10826">
        <ele>1892.45</ele>
        <time>2018-06-30T08:41:29Z</time>
      </trkpt>
      <trkpt lat="42.47198" lon="2.10831">
        <ele>1894.469</ele>
        <time>2018-06-30T08:41:43Z</time>
      </trkpt>
      <trkpt lat="42.47189" lon="2.10834">
        <ele>1896.854</ele>
        <time>2018-06-30T08:41:58Z</time>
      </trkpt>
      <trkpt lat="42.47181" lon="2.10836">
        <ele>1898.783</ele>
        <time>2018-06-30T08:42:07Z</time>
      </trkpt>
      <trkpt lat="42.4717" lon="2.10839">
        <ele>1900.649</ele>
        <time>2018-06-30T08:42:21Z</time>
      </trkpt>
      <trkpt lat="42.47157" lon="2.10843">
        <ele>1902.585</ele>
        <time>2018-06-30T08:42:37Z</time>
      </trkpt>
      <trkpt lat="42.4715" lon="2.10846">
        <ele>1904.065</ele>
        <time>2018-06-30T08:42:47Z</time>
      </trkpt>
      <trkpt lat="42.47138" lon="2.10852">
        <ele>1906.468</ele>
        <time>2018-06-30T08:43:02Z</time>
      </trkpt>
      <trkpt lat="42.47131" lon="2.10858">
        <ele>1908.814</ele>
        <time>2018-06-30T08:43:26Z</time>
      </trkpt>
      <trkpt lat="42.47129" lon="2.10859">
        <ele>1908.808</ele>
        <time>2018-06-30T08:43:28Z</time>
      </trkpt>
      <trkpt lat="42.47115" lon="2.10865">
        <ele>1911.228</ele>
        <time>2018-06-30T08:43:42Z</time>
      </trkpt>
      <trkpt lat="42.47102" lon="2.10869">
        <ele>1914.172</ele>
        <time>2018-06-30T08:43:58Z</time>
      </trkpt>
      <trkpt lat="42.4709" lon="2.10876">
        <ele>1915.554</ele>
        <time>2018-06-30T08:44:13Z</time>
      </trkpt>
      <trkpt lat="42.47079" lon="2.10885">
        <ele>1917.413</ele>
        <time>2018-06-30T08:44:27Z</time>
      </trkpt>
      <trkpt lat="42.47068" lon="2.10891">
        <ele>1920.328</ele>
        <time>2018-06-30T08:44:41Z</time>
      </trkpt>
      <trkpt lat="42.47063" lon="2.1089">
        <ele>1921.847</ele>
        <time>2018-06-30T08:44:49Z</time>
      </trkpt>
      <trkpt lat="42.4705" lon="2.10895">
        <ele>1923.213</ele>
        <time>2018-06-30T08:45:04Z</time>
      </trkpt>
      <trkpt lat="42.47035" lon="2.10901">
        <ele>1926.119</ele>
        <time>2018-06-30T08:45:21Z</time>
      </trkpt>
      <trkpt lat="42.4702" lon="2.10907">
        <ele>1928.027</ele>
        <time>2018-06-30T08:45:39Z</time>
      </trkpt>
      <trkpt lat="42.47009" lon="2.10911">
        <ele>1930.968</ele>
        <time>2018-06-30T08:45:54Z</time>
      </trkpt>
      <trkpt lat="42.46996" lon="2.10918">
        <ele>1934.314</ele>
        <time>2018-06-30T08:46:11Z</time>
      </trkpt>
      <trkpt lat="42.46986" lon="2.10923">
        <ele>1936.208</ele>
        <time>2018-06-30T08:46:26Z</time>
      </trkpt>
      <trkpt lat="42.46979" lon="2.10926">
        <ele>1938.184</ele>
        <time>2018-06-30T08:46:41Z</time>
      </trkpt>
      <trkpt lat="42.46977" lon="2.10926">
        <ele>1938.168</ele>
        <time>2018-06-30T08:47:01Z</time>
      </trkpt>
      <trkpt lat="42.46967" lon="2.10933">
        <ele>1940.54</ele>
        <time>2018-06-30T08:47:14Z</time>
      </trkpt>
      <trkpt lat="42.46956" lon="2.10938">
        <ele>1942.979</ele>
        <time>2018-06-30T08:47:29Z</time>
      </trkpt>
      <trkpt lat="42.46952" lon="2.1094">
        <ele>1944.814</ele>
        <time>2018-06-30T08:48:43Z</time>
      </trkpt>
      <trkpt lat="42.46942" lon="2.10942">
        <ele>1946.813</ele>
        <time>2018-06-30T08:49:00Z</time>
      </trkpt>
      <trkpt lat="42.46935" lon="2.10945">
        <ele>1947.729</ele>
        <time>2018-06-30T08:49:13Z</time>
      </trkpt>
      <trkpt lat="42.46932" lon="2.10946">
        <ele>1949.275</ele>
        <time>2018-06-30T08:50:06Z</time>
      </trkpt>
      <trkpt lat="42.46926" lon="2.1095">
        <ele>1950.666</ele>
        <time>2018-06-30T08:50:19Z</time>
      </trkpt>
      <trkpt lat="42.46918" lon="2.10951">
        <ele>1952.029</ele>
        <time>2018-06-30T08:50:33Z</time>
      </trkpt>
      <trkpt lat="42.46914" lon="2.10951">
        <ele>1952.521</ele>
        <time>2018-06-30T08:51:09Z</time>
      </trkpt>
      <trkpt lat="42.46903" lon="2.10956">
        <ele>1954.508</ele>
        <time>2018-06-30T08:51:26Z</time>
      </trkpt>
      <trkpt lat="42.469" lon="2.10958">
        <ele>1956.498</ele>
        <time>2018-06-30T08:52:02Z</time>
      </trkpt>
      <trkpt lat="42.46888" lon="2.10963">
        <ele>1958.842</ele>
        <time>2018-06-30T08:52:16Z</time>
      </trkpt>
      <trkpt lat="42.46882" lon="2.10962">
        <ele>1959.754</ele>
        <time>2018-06-30T08:52:30Z</time>
      </trkpt>
      <trkpt lat="42.4688" lon="2.10963">
        <ele>1960.293</ele>
        <time>2018-06-30T08:52:41Z</time>
      </trkpt>
      <trkpt lat="42.46874" lon="2.10963">
        <ele>1962.168</ele>
        <time>2018-06-30T08:52:56Z</time>
      </trkpt>
      <trkpt lat="42.46864" lon="2.10966">
        <ele>1964.587</ele>
        <time>2018-06-30T08:53:11Z</time>
      </trkpt>
      <trkpt lat="42.46855" lon="2.10968">
        <ele>1966.563</ele>
        <time>2018-06-30T08:53:28Z</time>
      </trkpt>
      <trkpt lat="42.46844" lon="2.10969">
        <ele>1968.479</ele>
        <time>2018-06-30T08:53:43Z</time>
      </trkpt>
      <trkpt lat="42.46833" lon="2.10972">
        <ele>1971.333</ele>
        <time>2018-06-30T08:53:59Z</time>
      </trkpt>
      <trkpt lat="42.46824" lon="2.10974">
        <ele>1973.223</ele>
        <time>2018-06-30T08:54:13Z</time>
      </trkpt>
      <trkpt lat="42.46816" lon="2.10977">
        <ele>1976.115</ele>
        <time>2018-06-30T08:54:24Z</time>
      </trkpt>
      <trkpt lat="42.46806" lon="2.10981">
        <ele>1978.008</ele>
        <time>2018-06-30T08:54:39Z</time>
      </trkpt>
      <trkpt lat="42.46796" lon="2.1098">
        <ele>1980.955</ele>
        <time>2018-06-30T08:54:54Z</time>
      </trkpt>
      <trkpt lat="42.46791" lon="2.10979">
        <ele>1982.349</ele>
        <time>2018-06-30T08:55:12Z</time>
      </trkpt>
      <trkpt lat="42.46781" lon="2.10984">
        <ele>1984.791</ele>
        <time>2018-06-30T08:55:28Z</time>
      </trkpt>
      <trkpt lat="42.4677" lon="2.10988">
        <ele>1987.64</ele>
        <time>2018-06-30T08:55:44Z</time>
      </trkpt>
      <trkpt lat="42.46761" lon="2.10993">
        <ele>1990.595</ele>
        <time>2018-06-30T08:55:59Z</time>
      </trkpt>
      <trkpt lat="42.46749" lon="2.10996">
        <ele>1993.484</ele>
        <time>2018-06-30T08:56:16Z</time>
      </trkpt>
      <trkpt lat="42.46737" lon="2.10988">
        <ele>1996.33</ele>
        <time>2018-06-30T08:56:33Z</time>
      </trkpt>
      <trkpt lat="42.46729" lon="2.10985">
        <ele>1999.256</ele>
        <time>2018-06-30T08:56:49Z</time>
      </trkpt>
      <trkpt lat="42.46721" lon="2.10983">
        <ele>2002.055</ele>
        <time>2018-06-30T08:57:06Z</time>
      </trkpt>
      <trkpt lat="42.46715" lon="2.10982">
        <ele>2004.907</ele>
        <time>2018-06-30T08:57:20Z</time>
      </trkpt>
      <trkpt lat="42.46707" lon="2.10986">
        <ele>2007.817</ele>
        <time>2018-06-30T08:57:38Z</time>
      </trkpt>
      <trkpt lat="42.46703" lon="2.10988">
        <ele>2009.708</ele>
        <time>2018-06-30T08:57:57Z</time>
      </trkpt>
      <trkpt lat="42.46693" lon="2.10992">
        <ele>2013.667</ele>
        <time>2018-06-30T08:58:15Z</time>
      </trkpt>
      <trkpt lat="42.46688" lon="2.10992">
        <ele>2016.051</ele>
        <time>2018-06-30T08:58:29Z</time>
      </trkpt>
      <trkpt lat="42.4668" lon="2.10998">
        <ele>2017.943</ele>
        <time>2018-06-30T08:58:44Z</time>
      </trkpt>
      <trkpt lat="42.46673" lon="2.11">
        <ele>2021.722</ele>
        <time>2018-06-30T08:58:56Z</time>
      </trkpt>
      <trkpt lat="42.46667" lon="2.11002">
        <ele>2025.187</ele>
        <time>2018-06-30T08:59:09Z</time>
      </trkpt>
      <trkpt lat="42.46665" lon="2.11001">
        <ele>2027.056</ele>
        <time>2018-06-30T08:59:22Z</time>
      </trkpt>
      <trkpt lat="42.46661" lon="2.11002">
        <ele>2028.092</ele>
        <time>2018-06-30T09:00:31Z</time>
      </trkpt>
      <trkpt lat="42.46658" lon="2.11002">
        <ele>2029.058</ele>
        <time>2018-06-30T09:00:44Z</time>
      </trkpt>
      <trkpt lat="42.46652" lon="2.11003">
        <ele>2031.497</ele>
        <time>2018-06-30T09:00:58Z</time>
      </trkpt>
      <trkpt lat="42.46643" lon="2.11005">
        <ele>2033.823</ele>
        <time>2018-06-30T09:01:13Z</time>
      </trkpt>
      <trkpt lat="42.46634" lon="2.11008">
        <ele>2037.125</ele>
        <time>2018-06-30T09:01:27Z</time>
      </trkpt>
      <trkpt lat="42.46627" lon="2.11012">
        <ele>2040.008</ele>
        <time>2018-06-30T09:01:40Z</time>
      </trkpt>
      <trkpt lat="42.46618" lon="2.11016">
        <ele>2042.471</ele>
        <time>2018-06-30T09:01:56Z</time>
      </trkpt>
      <trkpt lat="42.46609" lon="2.11016">
        <ele>2045.345</ele>
        <time>2018-06-30T09:02:14Z</time>
      </trkpt>
      <trkpt lat="42.46601" lon="2.11017">
        <ele>2048.757</ele>
        <time>2018-06-30T09:02:28Z</time>
      </trkpt>
      <trkpt lat="42.466" lon="2.11016">
        <ele>2048.736</ele>
        <time>2018-06-30T09:02:30Z</time>
      </trkpt>
      <trkpt lat="42.46596" lon="2.11018">
        <ele>2051.521</ele>
        <time>2018-06-30T09:02:43Z</time>
      </trkpt>
      <trkpt lat="42.46588" lon="2.11019">
        <ele>2053.54</ele>
        <time>2018-06-30T09:02:57Z</time>
      </trkpt>
      <trkpt lat="42.46578" lon="2.11014">
        <ele>2055.986</ele>
        <time>2018-06-30T09:03:11Z</time>
      </trkpt>
      <trkpt lat="42.46571" lon="2.11016">
        <ele>2059.212</ele>
        <time>2018-06-30T09:03:25Z</time>
      </trkpt>
      <trkpt lat="42.46566" lon="2.11015">
        <ele>2060.775</ele>
        <time>2018-06-30T09:03:40Z</time>
      </trkpt>
      <trkpt lat="42.46565" lon="2.11015">
        <ele>2061.228</ele>
        <time>2018-06-30T09:03:48Z</time>
      </trkpt>
      <trkpt lat="42.46553" lon="2.11017">
        <ele>2064.52</ele>
        <time>2018-06-30T09:04:03Z</time>
      </trkpt>
      <trkpt lat="42.46546" lon="2.11016">
        <ele>2067.908</ele>
        <time>2018-06-30T09:04:16Z</time>
      </trkpt>
      <trkpt lat="42.46539" lon="2.11017">
        <ele>2071.329</ele>
        <time>2018-06-30T09:04:32Z</time>
      </trkpt>
      <trkpt lat="42.46531" lon="2.11015">
        <ele>2073.783</ele>
        <time>2018-06-30T09:04:49Z</time>
      </trkpt>
      <trkpt lat="42.46522" lon="2.11015">
        <ele>2077.085</ele>
        <time>2018-06-30T09:05:06Z</time>
      </trkpt>
      <trkpt lat="42.46515" lon="2.11016">
        <ele>2078.974</ele>
        <time>2018-06-30T09:05:20Z</time>
      </trkpt>
      <trkpt lat="42.46509" lon="2.11017">
        <ele>2082.389</ele>
        <time>2018-06-30T09:05:34Z</time>
      </trkpt>
      <trkpt lat="42.46504" lon="2.11018">
        <ele>2085.298</ele>
        <time>2018-06-30T09:05:49Z</time>
      </trkpt>
      <trkpt lat="42.46499" lon="2.11016">
        <ele>2087.644</ele>
        <time>2018-06-30T09:06:04Z</time>
      </trkpt>
      <trkpt lat="42.46495" lon="2.11017">
        <ele>2090.51</ele>
        <time>2018-06-30T09:06:20Z</time>
      </trkpt>
      <trkpt lat="42.46492" lon="2.11019">
        <ele>2091.414</ele>
        <time>2018-06-30T09:06:33Z</time>
      </trkpt>
      <trkpt lat="42.46485" lon="2.11016">
        <ele>2094.354</ele>
        <time>2018-06-30T09:06:46Z</time>
      </trkpt>
      <trkpt lat="42.46478" lon="2.11013">
        <ele>2097.209</ele>
        <time>2018-06-30T09:06:58Z</time>
      </trkpt>
      <trkpt lat="42.46475" lon="2.11016">
        <ele>2099.608</ele>
        <time>2018-06-30T09:07:13Z</time>
      </trkpt>
      <trkpt lat="42.46471" lon="2.11013">
        <ele>2100.633</ele>
        <time>2018-06-30T09:07:31Z</time>
      </trkpt>
      <trkpt lat="42.46464" lon="2.11013">
        <ele>2103.937</ele>
        <time>2018-06-30T09:07:45Z</time>
      </trkpt>
      <trkpt lat="42.46457" lon="2.11013">
        <ele>2105.969</ele>
        <time>2018-06-30T09:07:59Z</time>
      </trkpt>
      <trkpt lat="42.46451" lon="2.11013">
        <ele>2108.788</ele>
        <time>2018-06-30T09:08:10Z</time>
      </trkpt>
      <trkpt lat="42.4645" lon="2.11011">
        <ele>2110.223</ele>
        <time>2018-06-30T09:08:25Z</time>
      </trkpt>
      <trkpt lat="42.46443" lon="2.11014">
        <ele>2112.672</ele>
        <time>2018-06-30T09:08:40Z</time>
      </trkpt>
      <trkpt lat="42.46433" lon="2.11016">
        <ele>2115.528</ele>
        <time>2018-06-30T09:08:58Z</time>
      </trkpt>
      <trkpt lat="42.46429" lon="2.11018">
        <ele>2117.924</ele>
        <time>2018-06-30T09:09:17Z</time>
      </trkpt>
      <trkpt lat="42.46425" lon="2.11017">
        <ele>2121.719</ele>
        <time>2018-06-30T09:09:29Z</time>
      </trkpt>
      <trkpt lat="42.46424" lon="2.11017">
        <ele>2121.709</ele>
        <time>2018-06-30T09:09:30Z</time>
      </trkpt>
      <trkpt lat="42.4642" lon="2.11018">
        <ele>2123.219</ele>
        <time>2018-06-30T09:09:42Z</time>
      </trkpt>
      <trkpt lat="42.46413" lon="2.11021">
        <ele>2126.008</ele>
        <time>2018-06-30T09:09:56Z</time>
      </trkpt>
      <trkpt lat="42.46408" lon="2.11024">
        <ele>2128.933</ele>
        <time>2018-06-30T09:10:10Z</time>
      </trkpt>
      <trkpt lat="42.46403" lon="2.11024">
        <ele>2132.397</ele>
        <time>2018-06-30T09:10:22Z</time>
      </trkpt>
      <trkpt lat="42.46398" lon="2.11026">
        <ele>2135.759</ele>
        <time>2018-06-30T09:10:54Z</time>
      </trkpt>
      <trkpt lat="42.46396" lon="2.11026">
        <ele>2136.138</ele>
        <time>2018-06-30T09:11:07Z</time>
      </trkpt>
      <trkpt lat="42.46387" lon="2.1103">
        <ele>2138.553</ele>
        <time>2018-06-30T09:11:21Z</time>
      </trkpt>
      <trkpt lat="42.46384" lon="2.11036">
        <ele>2140.992</ele>
        <time>2018-06-30T09:11:36Z</time>
      </trkpt>
      <trkpt lat="42.46384" lon="2.11038">
        <ele>2143.488</ele>
        <time>2018-06-30T09:11:49Z</time>
      </trkpt>
      <trkpt lat="42.46376" lon="2.11035">
        <ele>2145.354</ele>
        <time>2018-06-30T09:12:07Z</time>
      </trkpt>
      <trkpt lat="42.46367" lon="2.11039">
        <ele>2148.619</ele>
        <time>2018-06-30T09:12:21Z</time>
      </trkpt>
      <trkpt lat="42.46359" lon="2.11043">
        <ele>2151.509</ele>
        <time>2018-06-30T09:12:37Z</time>
      </trkpt>
      <trkpt lat="42.46351" lon="2.11047">
        <ele>2153.919</ele>
        <time>2018-06-30T09:12:54Z</time>
      </trkpt>
      <trkpt lat="42.46345" lon="2.1105">
        <ele>2156.808</ele>
        <time>2018-06-30T09:13:08Z</time>
      </trkpt>
      <trkpt lat="42.4634" lon="2.11056">
        <ele>2162.143</ele>
        <time>2018-06-30T09:13:39Z</time>
      </trkpt>
      <trkpt lat="42.46333" lon="2.11059">
        <ele>2163.597</ele>
        <time>2018-06-30T09:13:53Z</time>
      </trkpt>
      <trkpt lat="42.46327" lon="2.11063">
        <ele>2166.979</ele>
        <time>2018-06-30T09:14:06Z</time>
      </trkpt>
      <trkpt lat="42.46324" lon="2.11064">
        <ele>2169.878</ele>
        <time>2018-06-30T09:14:21Z</time>
      </trkpt>
      <trkpt lat="42.46319" lon="2.11063">
        <ele>2170.333</ele>
        <time>2018-06-30T09:14:36Z</time>
      </trkpt>
      <trkpt lat="42.46311" lon="2.11067">
        <ele>2173.222</ele>
        <time>2018-06-30T09:14:49Z</time>
      </trkpt>
      <trkpt lat="42.46306" lon="2.1107">
        <ele>2176.018</ele>
        <time>2018-06-30T09:15:03Z</time>
      </trkpt>
      <trkpt lat="42.46301" lon="2.11076">
        <ele>2178.484</ele>
        <time>2018-06-30T09:15:18Z</time>
      </trkpt>
      <trkpt lat="42.46295" lon="2.1108">
        <ele>2181.357</ele>
        <time>2018-06-30T09:15:34Z</time>
      </trkpt>
      <trkpt lat="42.46292" lon="2.11087">
        <ele>2184.2</ele>
        <time>2018-06-30T09:15:49Z</time>
      </trkpt>
      <trkpt lat="42.46288" lon="2.11084">
        <ele>2186.12</ele>
        <time>2018-06-30T09:16:00Z</time>
      </trkpt>
      <trkpt lat="42.46287" lon="2.11087">
        <ele>2187.108</ele>
        <time>2018-06-30T09:16:10Z</time>
      </trkpt>
      <trkpt lat="42.46284" lon="2.11092">
        <ele>2188.577</ele>
        <time>2018-06-30T09:16:21Z</time>
      </trkpt>
      <trkpt lat="42.46283" lon="2.11097">
        <ele>2190.561</ele>
        <time>2018-06-30T09:16:34Z</time>
      </trkpt>
      <trkpt lat="42.46281" lon="2.11098">
        <ele>2191.943</ele>
        <time>2018-06-30T09:16:52Z</time>
      </trkpt>
      <trkpt lat="42.46273" lon="2.111">
        <ele>2195.312</ele>
        <time>2018-06-30T09:17:07Z</time>
      </trkpt>
      <trkpt lat="42.46266" lon="2.11104">
        <ele>2198.667</ele>
        <time>2018-06-30T09:17:23Z</time>
      </trkpt>
      <trkpt lat="42.46263" lon="2.1111">
        <ele>2202.536</ele>
        <time>2018-06-30T09:18:03Z</time>
      </trkpt>
      <trkpt lat="42.46264" lon="2.11112">
        <ele>2202.542</ele>
        <time>2018-06-30T09:18:28Z</time>
      </trkpt>
      <trkpt lat="42.46263" lon="2.11115">
        <ele>2204.418</ele>
        <time>2018-06-30T09:18:46Z</time>
      </trkpt>
      <trkpt lat="42.4626" lon="2.11121">
        <ele>2207.312</ele>
        <time>2018-06-30T09:19:03Z</time>
      </trkpt>
      <trkpt lat="42.46258" lon="2.11125">
        <ele>2209.232</ele>
        <time>2018-06-30T09:19:18Z</time>
      </trkpt>
      <trkpt lat="42.46252" lon="2.11129">
        <ele>2212.105</ele>
        <time>2018-06-30T09:19:32Z</time>
      </trkpt>
      <trkpt lat="42.46249" lon="2.1113">
        <ele>2215.008</ele>
        <time>2018-06-30T09:19:44Z</time>
      </trkpt>
      <trkpt lat="42.46242" lon="2.11129">
        <ele>2219.883</ele>
        <time>2018-06-30T09:20:11Z</time>
      </trkpt>
      <trkpt lat="42.46237" lon="2.11132">
        <ele>2220.757</ele>
        <time>2018-06-30T09:20:31Z</time>
      </trkpt>
      <trkpt lat="42.46236" lon="2.11134">
        <ele>2222.789</ele>
        <time>2018-06-30T09:20:37Z</time>
      </trkpt>
      <trkpt lat="42.46232" lon="2.11137">
        <ele>2224.148</ele>
        <time>2018-06-30T09:20:50Z</time>
      </trkpt>
      <trkpt lat="42.46228" lon="2.11139">
        <ele>2226.593</ele>
        <time>2018-06-30T09:21:01Z</time>
      </trkpt>
      <trkpt lat="42.46222" lon="2.11141">
        <ele>2228.992</ele>
        <time>2018-06-30T09:21:16Z</time>
      </trkpt>
      <trkpt lat="42.46216" lon="2.11143">
        <ele>2231.348</ele>
        <time>2018-06-30T09:21:33Z</time>
      </trkpt>
      <trkpt lat="42.46212" lon="2.11145">
        <ele>2233.794</ele>
        <time>2018-06-30T09:21:49Z</time>
      </trkpt>
      <trkpt lat="42.46211" lon="2.11148">
        <ele>2236.153</ele>
        <time>2018-06-30T09:22:04Z</time>
      </trkpt>
      <trkpt lat="42.46204" lon="2.11153">
        <ele>2238.504</ele>
        <time>2018-06-30T09:22:21Z</time>
      </trkpt>
      <trkpt lat="42.462" lon="2.11157">
        <ele>2240.914</ele>
        <time>2018-06-30T09:22:35Z</time>
      </trkpt>
      <trkpt lat="42.46196" lon="2.11162">
        <ele>2243.808</ele>
        <time>2018-06-30T09:22:51Z</time>
      </trkpt>
      <trkpt lat="42.46192" lon="2.11163">
        <ele>2244.827</ele>
        <time>2018-06-30T09:23:10Z</time>
      </trkpt>
      <trkpt lat="42.46186" lon="2.11167">
        <ele>2248.151</ele>
        <time>2018-06-30T09:23:25Z</time>
      </trkpt>
      <trkpt lat="42.46183" lon="2.11177">
        <ele>2250.543</ele>
        <time>2018-06-30T09:23:42Z</time>
      </trkpt>
      <trkpt lat="42.46176" lon="2.11184">
        <ele>2253.992</ele>
        <time>2018-06-30T09:23:56Z</time>
      </trkpt>
      <trkpt lat="42.46171" lon="2.11192">
        <ele>2257.327</ele>
        <time>2018-06-30T09:24:11Z</time>
      </trkpt>
      <trkpt lat="42.46169" lon="2.11199">
        <ele>2260.696</ele>
        <time>2018-06-30T09:24:25Z</time>
      </trkpt>
      <trkpt lat="42.46163" lon="2.11208">
        <ele>2264.032</ele>
        <time>2018-06-30T09:24:42Z</time>
      </trkpt>
      <trkpt lat="42.4616" lon="2.11219">
        <ele>2267.458</ele>
        <time>2018-06-30T09:24:58Z</time>
      </trkpt>
      <trkpt lat="42.46159" lon="2.11224">
        <ele>2267.811</ele>
        <time>2018-06-30T09:25:10Z</time>
      </trkpt>
      <trkpt lat="42.46159" lon="2.11223">
        <ele>2268.321</ele>
        <time>2018-06-30T09:25:35Z</time>
      </trkpt>
      <trkpt lat="42.46156" lon="2.11227">
        <ele>2268.803</ele>
        <time>2018-06-30T09:25:49Z</time>
      </trkpt>
      <trkpt lat="42.46153" lon="2.11232">
        <ele>2269.808</ele>
        <time>2018-06-30T09:26:01Z</time>
      </trkpt>
      <trkpt lat="42.46147" lon="2.11242">
        <ele>2270.243</ele>
        <time>2018-06-30T09:26:18Z</time>
      </trkpt>
      <trkpt lat="42.46145" lon="2.11249">
        <ele>2273.117</ele>
        <time>2018-06-30T09:26:31Z</time>
      </trkpt>
      <trkpt lat="42.46147" lon="2.1126">
        <ele>2276.079</ele>
        <time>2018-06-30T09:26:46Z</time>
      </trkpt>
      <trkpt lat="42.46146" lon="2.11271">
        <ele>2278.918</ele>
        <time>2018-06-30T09:27:03Z</time>
      </trkpt>
      <trkpt lat="42.4614" lon="2.11271">
        <ele>2280.833</ele>
        <time>2018-06-30T09:27:22Z</time>
      </trkpt>
      <trkpt lat="42.46138" lon="2.11271">
        <ele>2282.742</ele>
        <time>2018-06-30T09:27:26Z</time>
      </trkpt>
      <trkpt lat="42.46134" lon="2.11272">
        <ele>2284.748</ele>
        <time>2018-06-30T09:27:38Z</time>
      </trkpt>
      <trkpt lat="42.46129" lon="2.11272">
        <ele>2287.584</ele>
        <time>2018-06-30T09:27:50Z</time>
      </trkpt>
      <trkpt lat="42.46126" lon="2.11273">
        <ele>2285.623</ele>
        <time>2018-06-30T09:28:01Z</time>
      </trkpt>
      <trkpt lat="42.46124" lon="2.11272">
        <ele>2289.083</ele>
        <time>2018-06-30T09:28:06Z</time>
      </trkpt>
      <trkpt lat="42.46117" lon="2.11276">
        <ele>2289.011</ele>
        <time>2018-06-30T09:28:20Z</time>
      </trkpt>
      <trkpt lat="42.46115" lon="2.11277">
        <ele>2290.408</ele>
        <time>2018-06-30T09:28:24Z</time>
      </trkpt>
      <trkpt lat="42.46113" lon="2.11282">
        <ele>2293.894</ele>
        <time>2018-06-30T09:28:34Z</time>
      </trkpt>
      <trkpt lat="42.46108" lon="2.1129">
        <ele>2296.718</ele>
        <time>2018-06-30T09:28:49Z</time>
      </trkpt>
      <trkpt lat="42.4611" lon="2.11292">
        <ele>2297.23</ele>
        <time>2018-06-30T09:29:03Z</time>
      </trkpt>
      <trkpt lat="42.46106" lon="2.11299">
        <ele>2298.679</ele>
        <time>2018-06-30T09:29:15Z</time>
      </trkpt>
      <trkpt lat="42.46102" lon="2.11307">
        <ele>2301.584</ele>
        <time>2018-06-30T09:29:30Z</time>
      </trkpt>
      <trkpt lat="42.46096" lon="2.11312">
        <ele>2304.993</ele>
        <time>2018-06-30T09:29:48Z</time>
      </trkpt>
      <trkpt lat="42.46091" lon="2.11317">
        <ele>2307.319</ele>
        <time>2018-06-30T09:30:05Z</time>
      </trkpt>
      <trkpt lat="42.4609" lon="2.1132">
        <ele>2308.775</ele>
        <time>2018-06-30T09:30:15Z</time>
      </trkpt>
      <trkpt lat="42.46086" lon="2.11323">
        <ele>2311.113</ele>
        <time>2018-06-30T09:30:27Z</time>
      </trkpt>
      <trkpt lat="42.46084" lon="2.11326">
        <ele>2313.043</ele>
        <time>2018-06-30T09:30:41Z</time>
      </trkpt>
      <trkpt lat="42.46081" lon="2.1133">
        <ele>2315.907</ele>
        <time>2018-06-30T09:30:55Z</time>
      </trkpt>
      <trkpt lat="42.46084" lon="2.11334">
        <ele>2318.308</ele>
        <time>2018-06-30T09:31:08Z</time>
      </trkpt>
      <trkpt lat="42.46078" lon="2.11337">
        <ele>2319.323</ele>
        <time>2018-06-30T09:31:28Z</time>
      </trkpt>
      <trkpt lat="42.46072" lon="2.11342">
        <ele>2323.147</ele>
        <time>2018-06-30T09:31:42Z</time>
      </trkpt>
      <trkpt lat="42.46071" lon="2.11343">
        <ele>2323.689</ele>
        <time>2018-06-30T09:32:01Z</time>
      </trkpt>
      <trkpt lat="42.46067" lon="2.1135">
        <ele>2325.518</ele>
        <time>2018-06-30T09:32:14Z</time>
      </trkpt>
      <trkpt lat="42.46062" lon="2.11356">
        <ele>2327.973</ele>
        <time>2018-06-30T09:32:29Z</time>
      </trkpt>
      <trkpt lat="42.46059" lon="2.11361">
        <ele>2329.422</ele>
        <time>2018-06-30T09:32:43Z</time>
      </trkpt>
      <trkpt lat="42.46054" lon="2.11364">
        <ele>2332.358</ele>
        <time>2018-06-30T09:32:57Z</time>
      </trkpt>
      <trkpt lat="42.4605" lon="2.11371">
        <ele>2334.224</ele>
        <time>2018-06-30T09:33:12Z</time>
      </trkpt>
      <trkpt lat="42.46047" lon="2.11376">
        <ele>2337.556</ele>
        <time>2018-06-30T09:33:24Z</time>
      </trkpt>
      <trkpt lat="42.46041" lon="2.11381">
        <ele>2339.959</ele>
        <time>2018-06-30T09:33:41Z</time>
      </trkpt>
      <trkpt lat="42.46042" lon="2.11386">
        <ele>2342.814</ele>
        <time>2018-06-30T09:33:55Z</time>
      </trkpt>
      <trkpt lat="42.4604" lon="2.11389">
        <ele>2343.308</ele>
        <time>2018-06-30T09:34:06Z</time>
      </trkpt>
      <trkpt lat="42.46032" lon="2.11393">
        <ele>2346.787</ele>
        <time>2018-06-30T09:34:22Z</time>
      </trkpt>
      <trkpt lat="42.46025" lon="2.11392">
        <ele>2350.061</ele>
        <time>2018-06-30T09:34:36Z</time>
      </trkpt>
      <trkpt lat="42.4602" lon="2.11391">
        <ele>2352.473</ele>
        <time>2018-06-30T09:34:51Z</time>
      </trkpt>
      <trkpt lat="42.46015" lon="2.11395">
        <ele>2355.372</ele>
        <time>2018-06-30T09:35:06Z</time>
      </trkpt>
      <trkpt lat="42.4601" lon="2.11401">
        <ele>2358.237</ele>
        <time>2018-06-30T09:35:23Z</time>
      </trkpt>
      <trkpt lat="42.46008" lon="2.114">
        <ele>2359.646</ele>
        <time>2018-06-30T09:35:40Z</time>
      </trkpt>
      <trkpt lat="42.46003" lon="2.11406">
        <ele>2362.112</ele>
        <time>2018-06-30T09:35:53Z</time>
      </trkpt>
      <trkpt lat="42.46" lon="2.11414">
        <ele>2364.098</ele>
        <time>2018-06-30T09:36:07Z</time>
      </trkpt>
      <trkpt lat="42.45995" lon="2.11415">
        <ele>2366.953</ele>
        <time>2018-06-30T09:36:18Z</time>
      </trkpt>
      <trkpt lat="42.4599" lon="2.11412">
        <ele>2369.704</ele>
        <time>2018-06-30T09:36:32Z</time>
      </trkpt>
      <trkpt lat="42.45984" lon="2.11409">
        <ele>2372.614</ele>
        <time>2018-06-30T09:36:46Z</time>
      </trkpt>
      <trkpt lat="42.4598" lon="2.11415">
        <ele>2375.508</ele>
        <time>2018-06-30T09:37:01Z</time>
      </trkpt>
      <trkpt lat="42.45976" lon="2.11417">
        <ele>2378.967</ele>
        <time>2018-06-30T09:37:17Z</time>
      </trkpt>
      <trkpt lat="42.45972" lon="2.11419">
        <ele>2383.211</ele>
        <time>2018-06-30T09:37:48Z</time>
      </trkpt>
      <trkpt lat="42.45963" lon="2.1142">
        <ele>2386.173</ele>
        <time>2018-06-30T09:38:04Z</time>
      </trkpt>
      <trkpt lat="42.45959" lon="2.11422">
        <ele>2389.442</ele>
        <time>2018-06-30T09:38:15Z</time>
      </trkpt>
      <trkpt lat="42.45953" lon="2.11424">
        <ele>2392.377</ele>
        <time>2018-06-30T09:38:29Z</time>
      </trkpt>
      <trkpt lat="42.45948" lon="2.1143">
        <ele>2395.266</ele>
        <time>2018-06-30T09:39:06Z</time>
      </trkpt>
      <trkpt lat="42.45946" lon="2.11433">
        <ele>2397.622</ele>
        <time>2018-06-30T09:39:20Z</time>
      </trkpt>
      <trkpt lat="42.45943" lon="2.11435">
        <ele>2398.698</ele>
        <time>2018-06-30T09:39:32Z</time>
      </trkpt>
      <trkpt lat="42.45943" lon="2.11435">
        <ele>2399.534</ele>
        <time>2018-06-30T09:39:51Z</time>
      </trkpt>
      <trkpt lat="42.45939" lon="2.11437">
        <ele>2401.055</ele>
        <time>2018-06-30T09:40:02Z</time>
      </trkpt>
      <trkpt lat="42.45931" lon="2.11444">
        <ele>2403.41</ele>
        <time>2018-06-30T09:40:18Z</time>
      </trkpt>
      <trkpt lat="42.45924" lon="2.11446">
        <ele>2406.808</ele>
        <time>2018-06-30T09:40:32Z</time>
      </trkpt>
      <trkpt lat="42.45924" lon="2.11447">
        <ele>2408.225</ele>
        <time>2018-06-30T09:40:38Z</time>
      </trkpt>
      <trkpt lat="42.45923" lon="2.11447">
        <ele>2407.219</ele>
        <time>2018-06-30T09:40:40Z</time>
      </trkpt>
      <trkpt lat="42.4592" lon="2.11448">
        <ele>2407.711</ele>
        <time>2018-06-30T09:40:46Z</time>
      </trkpt>
      <trkpt lat="42.45914" lon="2.11451">
        <ele>2411.17</ele>
        <time>2018-06-30T09:41:01Z</time>
      </trkpt>
      <trkpt lat="42.45907" lon="2.11457">
        <ele>2413.525</ele>
        <time>2018-06-30T09:41:16Z</time>
      </trkpt>
      <trkpt lat="42.45901" lon="2.11461">
        <ele>2416.434</ele>
        <time>2018-06-30T09:41:29Z</time>
      </trkpt>
      <trkpt lat="42.45895" lon="2.11464">
        <ele>2418.89</ele>
        <time>2018-06-30T09:41:41Z</time>
      </trkpt>
      <trkpt lat="42.45892" lon="2.11472">
        <ele>2421.236</ele>
        <time>2018-06-30T09:41:54Z</time>
      </trkpt>
      <trkpt lat="42.45892" lon="2.11472">
        <ele>2421.251</ele>
        <time>2018-06-30T09:41:55Z</time>
      </trkpt>
      <trkpt lat="42.45887" lon="2.11478">
        <ele>2423.101</ele>
        <time>2018-06-30T09:42:09Z</time>
      </trkpt>
      <trkpt lat="42.45879" lon="2.11477">
        <ele>2426.511</ele>
        <time>2018-06-30T09:42:23Z</time>
      </trkpt>
      <trkpt lat="42.45875" lon="2.11483">
        <ele>2427.408</ele>
        <time>2018-06-30T09:42:40Z</time>
      </trkpt>
      <trkpt lat="42.45872" lon="2.1149">
        <ele>2430.387</ele>
        <time>2018-06-30T09:42:51Z</time>
      </trkpt>
      <trkpt lat="42.45867" lon="2.11499">
        <ele>2432.711</ele>
        <time>2018-06-30T09:43:06Z</time>
      </trkpt>
      <trkpt lat="42.45865" lon="2.11507">
        <ele>2436.123</ele>
        <time>2018-06-30T09:43:22Z</time>
      </trkpt>
      <trkpt lat="42.45867" lon="2.11514">
        <ele>2436.682</ele>
        <time>2018-06-30T09:43:36Z</time>
      </trkpt>
      <trkpt lat="42.45865" lon="2.11524">
        <ele>2439.937</ele>
        <time>2018-06-30T09:43:52Z</time>
      </trkpt>
      <trkpt lat="42.45861" lon="2.11531">
        <ele>2442.386</ele>
        <time>2018-06-30T09:44:07Z</time>
      </trkpt>
      <trkpt lat="42.45857" lon="2.1154">
        <ele>2445.762</ele>
        <time>2018-06-30T09:44:21Z</time>
      </trkpt>
      <trkpt lat="42.4586" lon="2.11551">
        <ele>2448.148</ele>
        <time>2018-06-30T09:44:36Z</time>
      </trkpt>
      <trkpt lat="42.45857" lon="2.11558">
        <ele>2450.089</ele>
        <time>2018-06-30T09:44:49Z</time>
      </trkpt>
      <trkpt lat="42.45852" lon="2.11566">
        <ele>2453.406</ele>
        <time>2018-06-30T09:45:07Z</time>
      </trkpt>
      <trkpt lat="42.45848" lon="2.11574">
        <ele>2455.826</ele>
        <time>2018-06-30T09:45:22Z</time>
      </trkpt>
      <trkpt lat="42.45847" lon="2.11584">
        <ele>2459.108</ele>
        <time>2018-06-30T09:45:37Z</time>
      </trkpt>
      <trkpt lat="42.45847" lon="2.11584">
        <ele>2459.19</ele>
        <time>2018-06-30T09:45:38Z</time>
      </trkpt>
      <trkpt lat="42.45846" lon="2.11593">
        <ele>2462.084</ele>
        <time>2018-06-30T09:45:52Z</time>
      </trkpt>
      <trkpt lat="42.45847" lon="2.11601">
        <ele>2464.096</ele>
        <time>2018-06-30T09:46:06Z</time>
      </trkpt>
      <trkpt lat="42.45847" lon="2.11614">
        <ele>2467.355</ele>
        <time>2018-06-30T09:46:22Z</time>
      </trkpt>
      <trkpt lat="42.4584" lon="2.11616">
        <ele>2468.37</ele>
        <time>2018-06-30T09:46:39Z</time>
      </trkpt>
      <trkpt lat="42.4584" lon="2.11618">
        <ele>2470.219</ele>
        <time>2018-06-30T09:46:43Z</time>
      </trkpt>
      <trkpt lat="42.45836" lon="2.11626">
        <ele>2473.665</ele>
        <time>2018-06-30T09:46:58Z</time>
      </trkpt>
      <trkpt lat="42.45838" lon="2.11636">
        <ele>2475.541</ele>
        <time>2018-06-30T09:47:13Z</time>
      </trkpt>
      <trkpt lat="42.45842" lon="2.11648">
        <ele>2477.476</ele>
        <time>2018-06-30T09:47:28Z</time>
      </trkpt>
      <trkpt lat="42.45844" lon="2.11656">
        <ele>2478.49</ele>
        <time>2018-06-30T09:47:36Z</time>
      </trkpt>
      <trkpt lat="42.45848" lon="2.11669">
        <ele>2481.319</ele>
        <time>2018-06-30T09:47:48Z</time>
      </trkpt>
      <trkpt lat="42.45848" lon="2.11679">
        <ele>2483.208</ele>
        <time>2018-06-30T09:48:02Z</time>
      </trkpt>
      <trkpt lat="42.45847" lon="2.11681">
        <ele>2484.119</ele>
        <time>2018-06-30T09:48:20Z</time>
      </trkpt>
      <trkpt lat="42.45848" lon="2.11681">
        <ele>2484.173</ele>
        <time>2018-06-30T09:48:43Z</time>
      </trkpt>
      <trkpt lat="42.45848" lon="2.11683">
        <ele>2482.775</ele>
        <time>2018-06-30T09:48:47Z</time>
      </trkpt>
      <trkpt lat="42.45847" lon="2.11685">
        <ele>2483.794</ele>
        <time>2018-06-30T09:48:49Z</time>
      </trkpt>
      <trkpt lat="42.4585" lon="2.11703">
        <ele>2486.139</ele>
        <time>2018-06-30T09:49:03Z</time>
      </trkpt>
      <trkpt lat="42.45851" lon="2.11714">
        <ele>2488.918</ele>
        <time>2018-06-30T09:49:13Z</time>
      </trkpt>
      <trkpt lat="42.45848" lon="2.11722">
        <ele>2490.474</ele>
        <time>2018-06-30T09:49:24Z</time>
      </trkpt>
      <trkpt lat="42.45846" lon="2.11734">
        <ele>2493.38</ele>
        <time>2018-06-30T09:49:41Z</time>
      </trkpt>
      <trkpt lat="42.45841" lon="2.11742">
        <ele>2494.299</ele>
        <time>2018-06-30T09:49:53Z</time>
      </trkpt>
      <trkpt lat="42.45835" lon="2.11747">
        <ele>2495.707</ele>
        <time>2018-06-30T09:50:06Z</time>
      </trkpt>
      <trkpt lat="42.4583" lon="2.11746">
        <ele>2495.727</ele>
        <time>2018-06-30T09:50:17Z</time>
      </trkpt>
      <trkpt lat="42.45827" lon="2.11747">
        <ele>2498.108</ele>
        <time>2018-06-30T09:50:21Z</time>
      </trkpt>
      <trkpt lat="42.45819" lon="2.11748">
        <ele>2500.051</ele>
        <time>2018-06-30T09:50:34Z</time>
      </trkpt>
      <trkpt lat="42.45812" lon="2.1175">
        <ele>2502.425</ele>
        <time>2018-06-30T09:50:48Z</time>
      </trkpt>
      <trkpt lat="42.45803" lon="2.1175">
        <ele>2505.847</ele>
        <time>2018-06-30T09:51:02Z</time>
      </trkpt>
      <trkpt lat="42.45796" lon="2.11758">
        <ele>2509.136</ele>
        <time>2018-06-30T09:51:14Z</time>
      </trkpt>
      <trkpt lat="42.45793" lon="2.11759">
        <ele>2507.711</ele>
        <time>2018-06-30T09:51:18Z</time>
      </trkpt>
      <trkpt lat="42.45791" lon="2.1176">
        <ele>2511.15</ele>
        <time>2018-06-30T09:51:22Z</time>
      </trkpt>
      <trkpt lat="42.45788" lon="2.11765">
        <ele>2512.046</ele>
        <time>2018-06-30T09:51:41Z</time>
      </trkpt>
      <trkpt lat="42.45781" lon="2.11768">
        <ele>2514.482</ele>
        <time>2018-06-30T09:51:54Z</time>
      </trkpt>
      <trkpt lat="42.45777" lon="2.11773">
        <ele>2513.959</ele>
        <time>2018-06-30T09:52:05Z</time>
      </trkpt>
      <trkpt lat="42.45775" lon="2.11774">
        <ele>2516.303</ele>
        <time>2018-06-30T09:52:08Z</time>
      </trkpt>
      <trkpt lat="42.45773" lon="2.11775">
        <ele>2518.323</ele>
        <time>2018-06-30T09:52:16Z</time>
      </trkpt>
      <trkpt lat="42.45769" lon="2.11779">
        <ele>2519.708</ele>
        <time>2018-06-30T09:52:32Z</time>
      </trkpt>
      <trkpt lat="42.45768" lon="2.11779">
        <ele>2521.197</ele>
        <time>2018-06-30T09:52:35Z</time>
      </trkpt>
      <trkpt lat="42.45762" lon="2.11783">
        <ele>2522.111</ele>
        <time>2018-06-30T09:52:48Z</time>
      </trkpt>
      <trkpt lat="42.45761" lon="2.11785">
        <ele>2523.673</ele>
        <time>2018-06-30T09:52:52Z</time>
      </trkpt>
      <trkpt lat="42.4576" lon="2.11786">
        <ele>2521.652</ele>
        <time>2018-06-30T09:52:55Z</time>
      </trkpt>
      <trkpt lat="42.45756" lon="2.11786">
        <ele>2525.077</ele>
        <time>2018-06-30T09:53:08Z</time>
      </trkpt>
      <trkpt lat="42.45756" lon="2.11786">
        <ele>2525.586</ele>
        <time>2018-06-30T09:53:10Z</time>
      </trkpt>
      <trkpt lat="42.45748" lon="2.11783">
        <ele>2527.952</ele>
        <time>2018-06-30T09:53:25Z</time>
      </trkpt>
      <trkpt lat="42.45747" lon="2.11784">
        <ele>2528.868</ele>
        <time>2018-06-30T09:53:27Z</time>
      </trkpt>
      <trkpt lat="42.45746" lon="2.11786">
        <ele>2529.855</ele>
        <time>2018-06-30T09:53:31Z</time>
      </trkpt>
      <trkpt lat="42.45738" lon="2.11791">
        <ele>2533.607</ele>
        <time>2018-06-30T09:53:47Z</time>
      </trkpt>
      <trkpt lat="42.4573" lon="2.11796">
        <ele>2537.017</ele>
        <time>2018-06-30T09:54:02Z</time>
      </trkpt>
      <trkpt lat="42.45727" lon="2.118">
        <ele>2538.508</ele>
        <time>2018-06-30T09:54:09Z</time>
      </trkpt>
      <trkpt lat="42.45726" lon="2.11802">
        <ele>2539.487</ele>
        <time>2018-06-30T09:54:11Z</time>
      </trkpt>
      <trkpt lat="42.45723" lon="2.11806">
        <ele>2538.521</ele>
        <time>2018-06-30T09:54:17Z</time>
      </trkpt>
      <trkpt lat="42.45723" lon="2.11807">
        <ele>2540.993</ele>
        <time>2018-06-30T09:54:19Z</time>
      </trkpt>
      <trkpt lat="42.45721" lon="2.11809">
        <ele>2541.862</ele>
        <time>2018-06-30T09:54:24Z</time>
      </trkpt>
      <trkpt lat="42.45717" lon="2.11816">
        <ele>2541.857</ele>
        <time>2018-06-30T09:54:38Z</time>
      </trkpt>
      <trkpt lat="42.45713" lon="2.11822">
        <ele>2543.786</ele>
        <time>2018-06-30T09:54:47Z</time>
      </trkpt>
      <trkpt lat="42.45706" lon="2.1183">
        <ele>2545.252</ele>
        <time>2018-06-30T09:55:02Z</time>
      </trkpt>
      <trkpt lat="42.45699" lon="2.1184">
        <ele>2547.638</ele>
        <time>2018-06-30T09:55:16Z</time>
      </trkpt>
      <trkpt lat="42.45693" lon="2.11846">
        <ele>2549.097</ele>
        <time>2018-06-30T09:55:30Z</time>
      </trkpt>
      <trkpt lat="42.45683" lon="2.11856">
        <ele>2551.423</ele>
        <time>2018-06-30T09:55:47Z</time>
      </trkpt>
      <trkpt lat="42.4568" lon="2.11861">
        <ele>2553.425</ele>
        <time>2018-06-30T09:56:00Z</time>
      </trkpt>
      <trkpt lat="42.45672" lon="2.11871">
        <ele>2556.208</ele>
        <time>2018-06-30T09:56:16Z</time>
      </trkpt>
      <trkpt lat="42.45672" lon="2.11872">
        <ele>2556.271</ele>
        <time>2018-06-30T09:56:17Z</time>
      </trkpt>
      <trkpt lat="42.45662" lon="2.11879">
        <ele>2559.165</ele>
        <time>2018-06-30T09:56:34Z</time>
      </trkpt>
      <trkpt lat="42.45658" lon="2.11881">
        <ele>2556.757</ele>
        <time>2018-06-30T09:56:41Z</time>
      </trkpt>
      <trkpt lat="42.45658" lon="2.11882">
        <ele>2560.686</ele>
        <time>2018-06-30T09:56:42Z</time>
      </trkpt>
      <trkpt lat="42.45655" lon="2.11884">
        <ele>2559.111</ele>
        <time>2018-06-30T09:56:47Z</time>
      </trkpt>
      <trkpt lat="42.45652" lon="2.11886">
        <ele>2562.58</ele>
        <time>2018-06-30T09:56:53Z</time>
      </trkpt>
      <trkpt lat="42.45643" lon="2.11893">
        <ele>2565.476</ele>
        <time>2018-06-30T09:57:08Z</time>
      </trkpt>
      <trkpt lat="42.45635" lon="2.11899">
        <ele>2566.842</ele>
        <time>2018-06-30T09:57:21Z</time>
      </trkpt>
      <trkpt lat="42.45627" lon="2.11905">
        <ele>2569.716</ele>
        <time>2018-06-30T09:57:34Z</time>
      </trkpt>
      <trkpt lat="42.45621" lon="2.11913">
        <ele>2572.176</ele>
        <time>2018-06-30T09:57:48Z</time>
      </trkpt>
      <trkpt lat="42.45613" lon="2.11924">
        <ele>2573.513</ele>
        <time>2018-06-30T09:58:04Z</time>
      </trkpt>
      <trkpt lat="42.45612" lon="2.11924">
        <ele>2574.508</ele>
        <time>2018-06-30T09:58:06Z</time>
      </trkpt>
      <trkpt lat="42.45606" lon="2.1193">
        <ele>2576.433</ele>
        <time>2018-06-30T09:58:18Z</time>
      </trkpt>
      <trkpt lat="42.45597" lon="2.11939">
        <ele>2579.347</ele>
        <time>2018-06-30T09:58:34Z</time>
      </trkpt>
      <trkpt lat="42.45591" lon="2.11943">
        <ele>2582.269</ele>
        <time>2018-06-30T09:58:45Z</time>
      </trkpt>
      <trkpt lat="42.45585" lon="2.11947">
        <ele>2585.618</ele>
        <time>2018-06-30T09:58:57Z</time>
      </trkpt>
      <trkpt lat="42.45585" lon="2.11947">
        <ele>2585.633</ele>
        <time>2018-06-30T09:58:58Z</time>
      </trkpt>
      <trkpt lat="42.45578" lon="2.11951">
        <ele>2586.012</ele>
        <time>2018-06-30T09:59:12Z</time>
      </trkpt>
      <trkpt lat="42.45571" lon="2.11959">
        <ele>2588.478</ele>
        <time>2018-06-30T09:59:28Z</time>
      </trkpt>
      <trkpt lat="42.45564" lon="2.11969">
        <ele>2590.834</ele>
        <time>2018-06-30T09:59:42Z</time>
      </trkpt>
      <trkpt lat="42.45562" lon="2.11972">
        <ele>2592.361</ele>
        <time>2018-06-30T09:59:55Z</time>
      </trkpt>
      <trkpt lat="42.45559" lon="2.11975">
        <ele>2592.821</ele>
        <time>2018-06-30T10:00:12Z</time>
      </trkpt>
      <trkpt lat="42.45557" lon="2.11977">
        <ele>2592.813</ele>
        <time>2018-06-30T10:00:15Z</time>
      </trkpt>
      <trkpt lat="42.45553" lon="2.11993">
        <ele>2594.208</ele>
        <time>2018-06-30T10:00:29Z</time>
      </trkpt>
      <trkpt lat="42.45551" lon="2.11999">
        <ele>2595.738</ele>
        <time>2018-06-30T10:00:44Z</time>
      </trkpt>
      <trkpt lat="42.45544" lon="2.12009">
        <ele>2595.772</ele>
        <time>2018-06-30T10:01:01Z</time>
      </trkpt>
      <trkpt lat="42.45532" lon="2.12022">
        <ele>2595.734</ele>
        <time>2018-06-30T10:01:15Z</time>
      </trkpt>
      <trkpt lat="42.45526" lon="2.1203">
        <ele>2597.673</ele>
        <time>2018-06-30T10:01:25Z</time>
      </trkpt>
      <trkpt lat="42.45516" lon="2.12041">
        <ele>2600.978</ele>
        <time>2018-06-30T10:01:40Z</time>
      </trkpt>
      <trkpt lat="42.45513" lon="2.12045">
        <ele>2603.367</ele>
        <time>2018-06-30T10:01:45Z</time>
      </trkpt>
      <trkpt lat="42.45508" lon="2.12056">
        <ele>2603.883</ele>
        <time>2018-06-30T10:02:00Z</time>
      </trkpt>
      <trkpt lat="42.45508" lon="2.12056">
        <ele>2603.819</ele>
        <time>2018-06-30T10:02:01Z</time>
      </trkpt>
      <trkpt lat="42.45506" lon="2.12057">
        <ele>2605.356</ele>
        <time>2018-06-30T10:02:03Z</time>
      </trkpt>
      <trkpt lat="42.45505" lon="2.12058">
        <ele>2603.359</ele>
        <time>2018-06-30T10:02:06Z</time>
      </trkpt>
      <trkpt lat="42.45505" lon="2.12057">
        <ele>2606.714</ele>
        <time>2018-06-30T10:02:08Z</time>
      </trkpt>
      <trkpt lat="42.45505" lon="2.12057">
        <ele>2606.708</ele>
        <time>2018-06-30T10:02:09Z</time>
      </trkpt>
      <trkpt lat="42.45502" lon="2.12061">
        <ele>2607.797</ele>
        <time>2018-06-30T10:02:18Z</time>
      </trkpt>
      <trkpt lat="42.45497" lon="2.12072">
        <ele>2610.661</ele>
        <time>2018-06-30T10:02:29Z</time>
      </trkpt>
      <trkpt lat="42.45494" lon="2.12077">
        <ele>2610.633</ele>
        <time>2018-06-30T10:02:34Z</time>
      </trkpt>
      <trkpt lat="42.45493" lon="2.12085">
        <ele>2611.542</ele>
        <time>2018-06-30T10:02:41Z</time>
      </trkpt>
      <trkpt lat="42.45484" lon="2.12098">
        <ele>2611.517</ele>
        <time>2018-06-30T10:02:56Z</time>
      </trkpt>
      <trkpt lat="42.45483" lon="2.12099">
        <ele>2612.046</ele>
        <time>2018-06-30T10:02:57Z</time>
      </trkpt>
      <trkpt lat="42.4548" lon="2.12103">
        <ele>2612.592</ele>
        <time>2018-06-30T10:03:05Z</time>
      </trkpt>
      <trkpt lat="42.45468" lon="2.12123">
        <ele>2613.498</ele>
        <time>2018-06-30T10:03:21Z</time>
      </trkpt>
      <trkpt lat="42.45463" lon="2.12131">
        <ele>2614.413</ele>
        <time>2018-06-30T10:03:34Z</time>
      </trkpt>
      <trkpt lat="42.45455" lon="2.12149">
        <ele>2615.843</ele>
        <time>2018-06-30T10:03:48Z</time>
      </trkpt>
      <trkpt lat="42.45453" lon="2.12153">
        <ele>2616.307</ele>
        <time>2018-06-30T10:03:52Z</time>
      </trkpt>
      <trkpt lat="42.45452" lon="2.12155">
        <ele>2616.808</ele>
        <time>2018-06-30T10:03:54Z</time>
      </trkpt>
      <trkpt lat="42.45444" lon="2.12166">
        <ele>2619.783</ele>
        <time>2018-06-30T10:04:07Z</time>
      </trkpt>
      <trkpt lat="42.45442" lon="2.12168">
        <ele>2620.297</ele>
        <time>2018-06-30T10:04:09Z</time>
      </trkpt>
      <trkpt lat="42.45434" lon="2.1218">
        <ele>2621.689</ele>
        <time>2018-06-30T10:04:23Z</time>
      </trkpt>
      <trkpt lat="42.45428" lon="2.12188">
        <ele>2623.098</ele>
        <time>2018-06-30T10:04:38Z</time>
      </trkpt>
      <trkpt lat="42.45424" lon="2.12193">
        <ele>2624.543</ele>
        <time>2018-06-30T10:04:52Z</time>
      </trkpt>
      <trkpt lat="42.45417" lon="2.12205">
        <ele>2625.592</ele>
        <time>2018-06-30T10:05:06Z</time>
      </trkpt>
      <trkpt lat="42.45411" lon="2.12212">
        <ele>2626.948</ele>
        <time>2018-06-30T10:05:18Z</time>
      </trkpt>
      <trkpt lat="42.45407" lon="2.12219">
        <ele>2630.344</ele>
        <time>2018-06-30T10:05:30Z</time>
      </trkpt>
      <trkpt lat="42.45405" lon="2.12222">
        <ele>2631.736</ele>
        <time>2018-06-30T10:05:34Z</time>
      </trkpt>
      <trkpt lat="42.454" lon="2.12234">
        <ele>2633.117</ele>
        <time>2018-06-30T10:05:48Z</time>
      </trkpt>
      <trkpt lat="42.45393" lon="2.12244">
        <ele>2634.618</ele>
        <time>2018-06-30T10:06:02Z</time>
      </trkpt>
      <trkpt lat="42.45388" lon="2.1225">
        <ele>2637.908</ele>
        <time>2018-06-30T10:06:14Z</time>
      </trkpt>
      <trkpt lat="42.45385" lon="2.12252">
        <ele>2636.075</ele>
        <time>2018-06-30T10:06:18Z</time>
      </trkpt>
      <trkpt lat="42.45385" lon="2.12252">
        <ele>2635.569</ele>
        <time>2018-06-30T10:06:19Z</time>
      </trkpt>
      <trkpt lat="42.45383" lon="2.12255">
        <ele>2638.421</ele>
        <time>2018-06-30T10:06:22Z</time>
      </trkpt>
      <trkpt lat="42.45378" lon="2.12261">
        <ele>2640.45</ele>
        <time>2018-06-30T10:06:36Z</time>
      </trkpt>
      <trkpt lat="42.45378" lon="2.12261">
        <ele>2638.485</ele>
        <time>2018-06-30T10:06:39Z</time>
      </trkpt>
      <trkpt lat="42.45377" lon="2.12266">
        <ele>2639.984</ele>
        <time>2018-06-30T10:06:43Z</time>
      </trkpt>
      <trkpt lat="42.45374" lon="2.12272">
        <ele>2640.87</ele>
        <time>2018-06-30T10:07:03Z</time>
      </trkpt>
      <trkpt lat="42.4537" lon="2.12276">
        <ele>2641.896</ele>
        <time>2018-06-30T10:07:18Z</time>
      </trkpt>
      <trkpt lat="42.45365" lon="2.12283">
        <ele>2644.259</ele>
        <time>2018-06-30T10:07:31Z</time>
      </trkpt>
      <trkpt lat="42.45358" lon="2.12287">
        <ele>2646.603</ele>
        <time>2018-06-30T10:07:44Z</time>
      </trkpt>
      <trkpt lat="42.45353" lon="2.12292">
        <ele>2649.523</ele>
        <time>2018-06-30T10:07:56Z</time>
      </trkpt>
      <trkpt lat="42.45351" lon="2.12295">
        <ele>2650.008</ele>
        <time>2018-06-30T10:08:02Z</time>
      </trkpt>
      <trkpt lat="42.45349" lon="2.12305">
        <ele>2653.377</ele>
        <time>2018-06-30T10:08:13Z</time>
      </trkpt>
      <trkpt lat="42.45348" lon="2.12305">
        <ele>2653.381</ele>
        <time>2018-06-30T10:08:14Z</time>
      </trkpt>
      <trkpt lat="42.45347" lon="2.12306">
        <ele>2653.373</ele>
        <time>2018-06-30T10:08:15Z</time>
      </trkpt>
      <trkpt lat="42.45345" lon="2.12307">
        <ele>2651.942</ele>
        <time>2018-06-30T10:08:17Z</time>
      </trkpt>
      <trkpt lat="42.45345" lon="2.12307">
        <ele>2651.957</ele>
        <time>2018-06-30T10:08:18Z</time>
      </trkpt>
      <trkpt lat="42.45337" lon="2.12307">
        <ele>2654.396</ele>
        <time>2018-06-30T10:08:26Z</time>
      </trkpt>
      <trkpt lat="42.45337" lon="2.12317">
        <ele>2657.262</ele>
        <time>2018-06-30T10:08:37Z</time>
      </trkpt>
      <trkpt lat="42.45336" lon="2.1232">
        <ele>2655.378</ele>
        <time>2018-06-30T10:08:42Z</time>
      </trkpt>
      <trkpt lat="42.45332" lon="2.12324">
        <ele>2655.355</ele>
        <time>2018-06-30T10:08:51Z</time>
      </trkpt>
      <trkpt lat="42.45331" lon="2.12324">
        <ele>2658.607</ele>
        <time>2018-06-30T10:08:52Z</time>
      </trkpt>
      <trkpt lat="42.45331" lon="2.12325">
        <ele>2658.617</ele>
        <time>2018-06-30T10:08:53Z</time>
      </trkpt>
      <trkpt lat="42.45328" lon="2.12331">
        <ele>2659.608</ele>
        <time>2018-06-30T10:09:07Z</time>
      </trkpt>
      <trkpt lat="42.45324" lon="2.12336">
        <ele>2661.557</ele>
        <time>2018-06-30T10:09:20Z</time>
      </trkpt>
      <trkpt lat="42.45319" lon="2.1234">
        <ele>2663.951</ele>
        <time>2018-06-30T10:09:35Z</time>
      </trkpt>
      <trkpt lat="42.45311" lon="2.12343">
        <ele>2666.343</ele>
        <time>2018-06-30T10:09:49Z</time>
      </trkpt>
      <trkpt lat="42.45306" lon="2.12349">
        <ele>2668.792</ele>
        <time>2018-06-30T10:10:01Z</time>
      </trkpt>
      <trkpt lat="42.45299" lon="2.12357">
        <ele>2670.237</ele>
        <time>2018-06-30T10:10:17Z</time>
      </trkpt>
      <trkpt lat="42.45295" lon="2.12366">
        <ele>2672.696</ele>
        <time>2018-06-30T10:10:29Z</time>
      </trkpt>
      <trkpt lat="42.45292" lon="2.12374">
        <ele>2675.412</ele>
        <time>2018-06-30T10:10:45Z</time>
      </trkpt>
      <trkpt lat="42.45289" lon="2.12385">
        <ele>2678.388</ele>
        <time>2018-06-30T10:10:57Z</time>
      </trkpt>
      <trkpt lat="42.45285" lon="2.12391">
        <ele>2680.764</ele>
        <time>2018-06-30T10:11:05Z</time>
      </trkpt>
      <trkpt lat="42.45285" lon="2.12394">
        <ele>2680.706</ele>
        <time>2018-06-30T10:11:08Z</time>
      </trkpt>
      <trkpt lat="42.45283" lon="2.12398">
        <ele>2682.216</ele>
        <time>2018-06-30T10:11:26Z</time>
      </trkpt>
      <trkpt lat="42.45282" lon="2.12409">
        <ele>2683.608</ele>
        <time>2018-06-30T10:11:38Z</time>
      </trkpt>
      <trkpt lat="42.45281" lon="2.12416">
        <ele>2682.228</ele>
        <time>2018-06-30T10:11:52Z</time>
      </trkpt>
      <trkpt lat="42.45281" lon="2.1242">
        <ele>2682.742</ele>
        <time>2018-06-30T10:12:01Z</time>
      </trkpt>
      <trkpt lat="42.4528" lon="2.12424">
        <ele>2684.184</ele>
        <time>2018-06-30T10:12:08Z</time>
      </trkpt>
      <trkpt lat="42.45279" lon="2.12432">
        <ele>2683.623</ele>
        <time>2018-06-30T10:12:23Z</time>
      </trkpt>
      <trkpt lat="42.45279" lon="2.12432">
        <ele>2683.658</ele>
        <time>2018-06-30T10:12:24Z</time>
      </trkpt>
      <trkpt lat="42.45279" lon="2.12434">
        <ele>2685.127</ele>
        <time>2018-06-30T10:12:27Z</time>
      </trkpt>
      <trkpt lat="42.45276" lon="2.12443">
        <ele>2687.983</ele>
        <time>2018-06-30T10:12:37Z</time>
      </trkpt>
      <trkpt lat="42.45273" lon="2.12455">
        <ele>2690.869</ele>
        <time>2018-06-30T10:12:50Z</time>
      </trkpt>
      <trkpt lat="42.45271" lon="2.12466">
        <ele>2693.262</ele>
        <time>2018-06-30T10:13:02Z</time>
      </trkpt>
      <trkpt lat="42.4527" lon="2.12468">
        <ele>2691.883</ele>
        <time>2018-06-30T10:13:09Z</time>
      </trkpt>
      <trkpt lat="42.4527" lon="2.12471">
        <ele>2693.711</ele>
        <time>2018-06-30T10:13:15Z</time>
      </trkpt>
      <trkpt lat="42.45269" lon="2.12475">
        <ele>2690.808</ele>
        <time>2018-06-30T10:13:19Z</time>
      </trkpt>
      <trkpt lat="42.45267" lon="2.1248">
        <ele>2692.788</ele>
        <time>2018-06-30T10:13:24Z</time>
      </trkpt>
      <trkpt lat="42.45266" lon="2.12488">
        <ele>2694.222</ele>
        <time>2018-06-30T10:13:36Z</time>
      </trkpt>
      <trkpt lat="42.45263" lon="2.12502">
        <ele>2695.144</ele>
        <time>2018-06-30T10:13:48Z</time>
      </trkpt>
      <trkpt lat="42.45262" lon="2.12515">
        <ele>2696.123</ele>
        <time>2018-06-30T10:14:02Z</time>
      </trkpt>
      <trkpt lat="42.45261" lon="2.12522">
        <ele>2696.688</ele>
        <time>2018-06-30T10:14:16Z</time>
      </trkpt>
      <trkpt lat="42.4526" lon="2.12523">
        <ele>2695.167</ele>
        <time>2018-06-30T10:14:23Z</time>
      </trkpt>
      <trkpt lat="42.4526" lon="2.12524">
        <ele>2710.053</ele>
        <time>2018-06-30T10:15:57Z</time>
      </trkpt>
      <trkpt lat="42.45258" lon="2.12526">
        <ele>2711.589</ele>
        <time>2018-06-30T10:16:18Z</time>
      </trkpt>
      <trkpt lat="42.45258" lon="2.12527">
        <ele>2710.041</ele>
        <time>2018-06-30T10:16:22Z</time>
      </trkpt>
      <trkpt lat="42.45255" lon="2.12528">
        <ele>2707.281</ele>
        <time>2018-06-30T10:16:36Z</time>
      </trkpt>
      <trkpt lat="42.45254" lon="2.12528">
        <ele>2706.209</ele>
        <time>2018-06-30T10:16:39Z</time>
      </trkpt>
      <trkpt lat="42.45252" lon="2.12541">
        <ele>2704.808</ele>
        <time>2018-06-30T10:16:53Z</time>
      </trkpt>
      <trkpt lat="42.45251" lon="2.12544">
        <ele>2704.376</ele>
        <time>2018-06-30T10:17:23Z</time>
      </trkpt>
      <trkpt lat="42.45249" lon="2.12549">
        <ele>2704.32</ele>
        <time>2018-06-30T10:17:27Z</time>
      </trkpt>
      <trkpt lat="42.45245" lon="2.12558">
        <ele>2701.952</ele>
        <time>2018-06-30T10:17:33Z</time>
      </trkpt>
      <trkpt lat="42.45242" lon="2.12563">
        <ele>2700.961</ele>
        <time>2018-06-30T10:17:37Z</time>
      </trkpt>
      <trkpt lat="42.45239" lon="2.12581">
        <ele>2699.086</ele>
        <time>2018-06-30T10:17:52Z</time>
      </trkpt>
      <trkpt lat="42.45237" lon="2.12588">
        <ele>2700.445</ele>
        <time>2018-06-30T10:17:58Z</time>
      </trkpt>
      <trkpt lat="42.45235" lon="2.12598">
        <ele>2698.551</ele>
        <time>2018-06-30T10:18:04Z</time>
      </trkpt>
      <trkpt lat="42.4523" lon="2.12613">
        <ele>2696.197</ele>
        <time>2018-06-30T10:18:15Z</time>
      </trkpt>
      <trkpt lat="42.45227" lon="2.12628">
        <ele>2697.666</ele>
        <time>2018-06-30T10:18:24Z</time>
      </trkpt>
      <trkpt lat="42.45222" lon="2.12643">
        <ele>2698.029</ele>
        <time>2018-06-30T10:18:34Z</time>
      </trkpt>
      <trkpt lat="42.45215" lon="2.12657">
        <ele>2701.921</ele>
        <time>2018-06-30T10:18:45Z</time>
      </trkpt>
      <trkpt lat="42.45215" lon="2.12658">
        <ele>2699.508</ele>
        <time>2018-06-30T10:18:49Z</time>
      </trkpt>
      <trkpt lat="42.45212" lon="2.12661">
        <ele>2698.038</ele>
        <time>2018-06-30T10:18:57Z</time>
      </trkpt>
      <trkpt lat="42.45212" lon="2.12663">
        <ele>2700.032</ele>
        <time>2018-06-30T10:19:02Z</time>
      </trkpt>
      <trkpt lat="42.4521" lon="2.12667">
        <ele>2698.574</ele>
        <time>2018-06-30T10:19:05Z</time>
      </trkpt>
      <trkpt lat="42.45205" lon="2.12669">
        <ele>2695.673</ele>
        <time>2018-06-30T10:19:09Z</time>
      </trkpt>
      <trkpt lat="42.45197" lon="2.12677">
        <ele>2697.178</ele>
        <time>2018-06-30T10:19:17Z</time>
      </trkpt>
      <trkpt lat="42.45196" lon="2.12679">
        <ele>2700.417</ele>
        <time>2018-06-30T10:19:19Z</time>
      </trkpt>
      <trkpt lat="42.45195" lon="2.1268">
        <ele>2698.573</ele>
        <time>2018-06-30T10:19:20Z</time>
      </trkpt>
      <trkpt lat="42.45194" lon="2.12683">
        <ele>2695.189</ele>
        <time>2018-06-30T10:19:27Z</time>
      </trkpt>
      <trkpt lat="42.45194" lon="2.12684">
        <ele>2695.135</ele>
        <time>2018-06-30T10:19:28Z</time>
      </trkpt>
      <trkpt lat="42.45188" lon="2.12691">
        <ele>2692.786</ele>
        <time>2018-06-30T10:19:33Z</time>
      </trkpt>
      <trkpt lat="42.45185" lon="2.12696">
        <ele>2690.314</ele>
        <time>2018-06-30T10:19:37Z</time>
      </trkpt>
      <trkpt lat="42.4518" lon="2.12702">
        <ele>2686.508</ele>
        <time>2018-06-30T10:19:43Z</time>
      </trkpt>
      <trkpt lat="42.45178" lon="2.12703">
        <ele>2689.995</ele>
        <time>2018-06-30T10:19:45Z</time>
      </trkpt>
      <trkpt lat="42.45178" lon="2.12704">
        <ele>2690.819</ele>
        <time>2018-06-30T10:19:46Z</time>
      </trkpt>
      <trkpt lat="42.45177" lon="2.12708">
        <ele>2690.831</ele>
        <time>2018-06-30T10:19:49Z</time>
      </trkpt>
      <trkpt lat="42.45176" lon="2.1271">
        <ele>2687.04</ele>
        <time>2018-06-30T10:19:51Z</time>
      </trkpt>
      <trkpt lat="42.45175" lon="2.12713">
        <ele>2689.415</ele>
        <time>2018-06-30T10:19:54Z</time>
      </trkpt>
      <trkpt lat="42.45172" lon="2.12721">
        <ele>2687.934</ele>
        <time>2018-06-30T10:20:00Z</time>
      </trkpt>
      <trkpt lat="42.4517" lon="2.12728">
        <ele>2685.19</ele>
        <time>2018-06-30T10:20:05Z</time>
      </trkpt>
      <trkpt lat="42.45167" lon="2.12735">
        <ele>2682.766</ele>
        <time>2018-06-30T10:20:13Z</time>
      </trkpt>
      <trkpt lat="42.45166" lon="2.12736">
        <ele>2679.882</ele>
        <time>2018-06-30T10:20:28Z</time>
      </trkpt>
      <trkpt lat="42.45165" lon="2.12737">
        <ele>2683.143</ele>
        <time>2018-06-30T10:20:29Z</time>
      </trkpt>
      <trkpt lat="42.45164" lon="2.12738">
        <ele>2683.117</ele>
        <time>2018-06-30T10:20:30Z</time>
      </trkpt>
      <trkpt lat="42.45163" lon="2.12739">
        <ele>2683.108</ele>
        <time>2018-06-30T10:20:31Z</time>
      </trkpt>
      <trkpt lat="42.45163" lon="2.12742">
        <ele>2680.74</ele>
        <time>2018-06-30T10:20:33Z</time>
      </trkpt>
      <trkpt lat="42.45163" lon="2.12751">
        <ele>2683.144</ele>
        <time>2018-06-30T10:20:40Z</time>
      </trkpt>
      <trkpt lat="42.45166" lon="2.12758">
        <ele>2685.116</ele>
        <time>2018-06-30T10:20:51Z</time>
      </trkpt>
      <trkpt lat="42.45167" lon="2.12759">
        <ele>2687.095</ele>
        <time>2018-06-30T10:21:08Z</time>
      </trkpt>
      <trkpt lat="42.45164" lon="2.12763">
        <ele>2687.01</ele>
        <time>2018-06-30T10:21:23Z</time>
      </trkpt>
      <trkpt lat="42.45164" lon="2.12767">
        <ele>2688.919</ele>
        <time>2018-06-30T10:21:27Z</time>
      </trkpt>
      <trkpt lat="42.45166" lon="2.12771">
        <ele>2687.515</ele>
        <time>2018-06-30T10:21:39Z</time>
      </trkpt>
      <trkpt lat="42.45166" lon="2.12771">
        <ele>2688.911</ele>
        <time>2018-06-30T10:21:43Z</time>
      </trkpt>
      <trkpt lat="42.45165" lon="2.12773">
        <ele>2686.062</ele>
        <time>2018-06-30T10:21:46Z</time>
      </trkpt>
      <trkpt lat="42.45165" lon="2.12775">
        <ele>2688.983</ele>
        <time>2018-06-30T10:21:48Z</time>
      </trkpt>
      <trkpt lat="42.45166" lon="2.12776">
        <ele>2688.911</ele>
        <time>2018-06-30T10:21:49Z</time>
      </trkpt>
      <trkpt lat="42.45166" lon="2.12789">
        <ele>2692.308</ele>
        <time>2018-06-30T10:22:01Z</time>
      </trkpt>
      <trkpt lat="42.45164" lon="2.12792">
        <ele>2689.478</ele>
        <time>2018-06-30T10:22:04Z</time>
      </trkpt>
      <trkpt lat="42.45164" lon="2.12792">
        <ele>2689.482</ele>
        <time>2018-06-30T10:22:05Z</time>
      </trkpt>
      <trkpt lat="42.45162" lon="2.12796">
        <ele>2691.874</ele>
        <time>2018-06-30T10:22:08Z</time>
      </trkpt>
      <trkpt lat="42.4516" lon="2.12802">
        <ele>2695.623</ele>
        <time>2018-06-30T10:22:14Z</time>
      </trkpt>
      <trkpt lat="42.4516" lon="2.12803">
        <ele>2695.618</ele>
        <time>2018-06-30T10:22:15Z</time>
      </trkpt>
      <trkpt lat="42.45158" lon="2.12812">
        <ele>2697.647</ele>
        <time>2018-06-30T10:22:27Z</time>
      </trkpt>
      <trkpt lat="42.45159" lon="2.12814">
        <ele>2700.033</ele>
        <time>2018-06-30T10:22:30Z</time>
      </trkpt>
      <trkpt lat="42.45158" lon="2.12815">
        <ele>2696.169</ele>
        <time>2018-06-30T10:22:33Z</time>
      </trkpt>
      <trkpt lat="42.45158" lon="2.12816">
        <ele>2697.653</ele>
        <time>2018-06-30T10:22:34Z</time>
      </trkpt>
      <trkpt lat="42.45159" lon="2.12816">
        <ele>2700.004</ele>
        <time>2018-06-30T10:22:37Z</time>
      </trkpt>
      <trkpt lat="42.4516" lon="2.12817">
        <ele>2701.914</ele>
        <time>2018-06-30T10:22:49Z</time>
      </trkpt>
      <trkpt lat="42.45159" lon="2.12819">
        <ele>2697.608</ele>
        <time>2018-06-30T10:22:51Z</time>
      </trkpt>
      <trkpt lat="42.45159" lon="2.12819">
        <ele>2700.987</ele>
        <time>2018-06-30T10:22:52Z</time>
      </trkpt>
      <trkpt lat="42.45159" lon="2.1282">
        <ele>2703.361</ele>
        <time>2018-06-30T10:22:54Z</time>
      </trkpt>
      <trkpt lat="42.45159" lon="2.12822">
        <ele>2705.243</ele>
        <time>2018-06-30T10:23:02Z</time>
      </trkpt>
      <trkpt lat="42.45157" lon="2.12823">
        <ele>2701.962</ele>
        <time>2018-06-30T10:23:11Z</time>
      </trkpt>
      <trkpt lat="42.45157" lon="2.12825">
        <ele>2700.047</ele>
        <time>2018-06-30T10:23:13Z</time>
      </trkpt>
      <trkpt lat="42.45156" lon="2.12828">
        <ele>2701.996</ele>
        <time>2018-06-30T10:23:16Z</time>
      </trkpt>
      <trkpt lat="42.45155" lon="2.12829">
        <ele>2705.232</ele>
        <time>2018-06-30T10:23:18Z</time>
      </trkpt>
      <trkpt lat="42.45156" lon="2.1283">
        <ele>2704.828</ele>
        <time>2018-06-30T10:23:19Z</time>
      </trkpt>
      <trkpt lat="42.45155" lon="2.12834">
        <ele>2706.734</ele>
        <time>2018-06-30T10:23:24Z</time>
      </trkpt>
      <trkpt lat="42.45152" lon="2.12844">
        <ele>2708.655</ele>
        <time>2018-06-30T10:23:34Z</time>
      </trkpt>
      <trkpt lat="42.45152" lon="2.12848">
        <ele>2710.51</ele>
        <time>2018-06-30T10:23:40Z</time>
      </trkpt>
      <trkpt lat="42.45149" lon="2.12858">
        <ele>2713.408</ele>
        <time>2018-06-30T10:23:54Z</time>
      </trkpt>
      <trkpt lat="42.45149" lon="2.12864">
        <ele>2715.395</ele>
        <time>2018-06-30T10:24:01Z</time>
      </trkpt>
      <trkpt lat="42.45147" lon="2.12873">
        <ele>2714.439</ele>
        <time>2018-06-30T10:24:08Z</time>
      </trkpt>
      <trkpt lat="42.45146" lon="2.12876">
        <ele>2717.711</ele>
        <time>2018-06-30T10:24:10Z</time>
      </trkpt>
      <trkpt lat="42.45146" lon="2.12877">
        <ele>2717.31</ele>
        <time>2018-06-30T10:24:11Z</time>
      </trkpt>
      <trkpt lat="42.45145" lon="2.12877">
        <ele>2715.835</ele>
        <time>2018-06-30T10:24:13Z</time>
      </trkpt>
      <trkpt lat="42.45144" lon="2.12882">
        <ele>2717.334</ele>
        <time>2018-06-30T10:24:19Z</time>
      </trkpt>
      <trkpt lat="42.45144" lon="2.12882">
        <ele>2717.34</ele>
        <time>2018-06-30T10:24:20Z</time>
      </trkpt>
      <trkpt lat="42.45142" lon="2.12888">
        <ele>2717.716</ele>
        <time>2018-06-30T10:24:24Z</time>
      </trkpt>
      <trkpt lat="42.4514" lon="2.12893">
        <ele>2715.341</ele>
        <time>2018-06-30T10:24:27Z</time>
      </trkpt>
      <trkpt lat="42.45139" lon="2.12897">
        <ele>2719.781</ele>
        <time>2018-06-30T10:24:30Z</time>
      </trkpt>
      <trkpt lat="42.45139" lon="2.12899">
        <ele>2716.309</ele>
        <time>2018-06-30T10:24:31Z</time>
      </trkpt>
      <trkpt lat="42.45138" lon="2.1291">
        <ele>2718.708</ele>
        <time>2018-06-30T10:24:38Z</time>
      </trkpt>
      <trkpt lat="42.45138" lon="2.12915">
        <ele>2718.276</ele>
        <time>2018-06-30T10:24:46Z</time>
      </trkpt>
      <trkpt lat="42.45137" lon="2.12918">
        <ele>2714.95</ele>
        <time>2018-06-30T10:24:56Z</time>
      </trkpt>
      <trkpt lat="42.45137" lon="2.12919">
        <ele>2714.992</ele>
        <time>2018-06-30T10:24:57Z</time>
      </trkpt>
      <trkpt lat="42.45136" lon="2.12924">
        <ele>2715.881</ele>
        <time>2018-06-30T10:25:01Z</time>
      </trkpt>
      <trkpt lat="42.45136" lon="2.12925">
        <ele>2715.836</ele>
        <time>2018-06-30T10:25:02Z</time>
      </trkpt>
      <trkpt lat="42.45133" lon="2.12942">
        <ele>2716.855</ele>
        <time>2018-06-30T10:25:15Z</time>
      </trkpt>
      <trkpt lat="42.45133" lon="2.12947">
        <ele>2718.731</ele>
        <time>2018-06-30T10:25:19Z</time>
      </trkpt>
      <trkpt lat="42.4513" lon="2.12955">
        <ele>2718.277</ele>
        <time>2018-06-30T10:25:30Z</time>
      </trkpt>
      <trkpt lat="42.45124" lon="2.12965">
        <ele>2717.345</ele>
        <time>2018-06-30T10:25:38Z</time>
      </trkpt>
      <trkpt lat="42.4512" lon="2.1298">
        <ele>2720.147</ele>
        <time>2018-06-30T10:25:49Z</time>
      </trkpt>
      <trkpt lat="42.45118" lon="2.12985">
        <ele>2718.211</ele>
        <time>2018-06-30T10:25:55Z</time>
      </trkpt>
      <trkpt lat="42.45117" lon="2.12987">
        <ele>2721.108</ele>
        <time>2018-06-30T10:26:06Z</time>
      </trkpt>
      <trkpt lat="42.45116" lon="2.12994">
        <ele>2719.766</ele>
        <time>2018-06-30T10:26:10Z</time>
      </trkpt>
      <trkpt lat="42.45114" lon="2.13">
        <ele>2718.28</ele>
        <time>2018-06-30T10:26:14Z</time>
      </trkpt>
      <trkpt lat="42.4511" lon="2.13006">
        <ele>2719.212</ele>
        <time>2018-06-30T10:26:19Z</time>
      </trkpt>
      <trkpt lat="42.45108" lon="2.13009">
        <ele>2717.721</ele>
        <time>2018-06-30T10:26:21Z</time>
      </trkpt>
      <trkpt lat="42.45104" lon="2.13018">
        <ele>2718.746</ele>
        <time>2018-06-30T10:26:27Z</time>
      </trkpt>
      <trkpt lat="42.45102" lon="2.1302">
        <ele>2717.365</ele>
        <time>2018-06-30T10:26:29Z</time>
      </trkpt>
      <trkpt lat="42.45099" lon="2.13028">
        <ele>2718.731</ele>
        <time>2018-06-30T10:26:34Z</time>
      </trkpt>
      <trkpt lat="42.45094" lon="2.13042">
        <ele>2719.717</ele>
        <time>2018-06-30T10:26:45Z</time>
      </trkpt>
      <trkpt lat="42.45091" lon="2.13066">
        <ele>2722.144</ele>
        <time>2018-06-30T10:27:01Z</time>
      </trkpt>
      <trkpt lat="42.45089" lon="2.13082">
        <ele>2724.005</ele>
        <time>2018-06-30T10:27:17Z</time>
      </trkpt>
      <trkpt lat="42.45089" lon="2.13085">
        <ele>2724.515</ele>
        <time>2018-06-30T10:27:36Z</time>
      </trkpt>
      <trkpt lat="42.45088" lon="2.13085">
        <ele>2723.008</ele>
        <time>2018-06-30T10:27:39Z</time>
      </trkpt>
      <trkpt lat="42.45089" lon="2.13086">
        <ele>2724.546</ele>
        <time>2018-06-30T10:27:41Z</time>
      </trkpt>
      <trkpt lat="42.4509" lon="2.13095">
        <ele>2726.48</ele>
        <time>2018-06-30T10:27:56Z</time>
      </trkpt>
      <trkpt lat="42.4509" lon="2.13103">
        <ele>2729.872</ele>
        <time>2018-06-30T10:28:07Z</time>
      </trkpt>
      <trkpt lat="42.45092" lon="2.13108">
        <ele>2732.231</ele>
        <time>2018-06-30T10:28:16Z</time>
      </trkpt>
      <trkpt lat="42.45092" lon="2.13113">
        <ele>2731.216</ele>
        <time>2018-06-30T10:28:22Z</time>
      </trkpt>
      <trkpt lat="42.45093" lon="2.13115">
        <ele>2733.125</ele>
        <time>2018-06-30T10:28:24Z</time>
      </trkpt>
      <trkpt lat="42.45097" lon="2.1312">
        <ele>2735.551</ele>
        <time>2018-06-30T10:28:37Z</time>
      </trkpt>
      <trkpt lat="42.45099" lon="2.13123">
        <ele>2736.557</ele>
        <time>2018-06-30T10:28:51Z</time>
      </trkpt>
      <trkpt lat="42.451" lon="2.13132">
        <ele>2738.978</ele>
        <time>2018-06-30T10:29:02Z</time>
      </trkpt>
      <trkpt lat="42.451" lon="2.13133">
        <ele>2738.933</ele>
        <time>2018-06-30T10:29:15Z</time>
      </trkpt>
      <trkpt lat="42.45106" lon="2.13136">
        <ele>2740.326</ele>
        <time>2018-06-30T10:29:28Z</time>
      </trkpt>
      <trkpt lat="42.45106" lon="2.13138">
        <ele>2741.808</ele>
        <time>2018-06-30T10:29:51Z</time>
      </trkpt>
      <trkpt lat="42.45109" lon="2.1314">
        <ele>2740.859</ele>
        <time>2018-06-30T10:30:05Z</time>
      </trkpt>
      <trkpt lat="42.45112" lon="2.13142">
        <ele>2737.923</ele>
        <time>2018-06-30T10:30:15Z</time>
      </trkpt>
      <trkpt lat="42.45112" lon="2.13143">
        <ele>2737.955</ele>
        <time>2018-06-30T10:30:16Z</time>
      </trkpt>
      <trkpt lat="42.45113" lon="2.13145">
        <ele>2737.974</ele>
        <time>2018-06-30T10:30:30Z</time>
      </trkpt>
      <trkpt lat="42.45116" lon="2.13144">
        <ele>2737.089</ele>
        <time>2018-06-30T10:30:48Z</time>
      </trkpt>
      <trkpt lat="42.45118" lon="2.13146">
        <ele>2738.448</ele>
        <time>2018-06-30T10:30:54Z</time>
      </trkpt>
      <trkpt lat="42.45122" lon="2.13148">
        <ele>2740.394</ele>
        <time>2018-06-30T10:31:03Z</time>
      </trkpt>
      <trkpt lat="42.45121" lon="2.13149">
        <ele>2736.58</ele>
        <time>2018-06-30T10:31:05Z</time>
      </trkpt>
      <trkpt lat="42.45121" lon="2.1315">
        <ele>2736.535</ele>
        <time>2018-06-30T10:31:06Z</time>
      </trkpt>
      <trkpt lat="42.45124" lon="2.1315">
        <ele>2738.986</ele>
        <time>2018-06-30T10:31:11Z</time>
      </trkpt>
      <trkpt lat="42.4513" lon="2.13152">
        <ele>2737.014</ele>
        <time>2018-06-30T10:31:21Z</time>
      </trkpt>
      <trkpt lat="42.45133" lon="2.13154">
        <ele>2735.508</ele>
        <time>2018-06-30T10:31:27Z</time>
      </trkpt>
      <trkpt lat="42.45137" lon="2.13157">
        <ele>2734.155</ele>
        <time>2018-06-30T10:31:40Z</time>
      </trkpt>
      <trkpt lat="42.45137" lon="2.13157">
        <ele>2735.599</ele>
        <time>2018-06-30T10:31:42Z</time>
      </trkpt>
      <trkpt lat="42.45137" lon="2.13156">
        <ele>2734.151</ele>
        <time>2018-06-30T10:31:48Z</time>
      </trkpt>
      <trkpt lat="42.45137" lon="2.13156">
        <ele>2735.02</ele>
        <time>2018-06-30T10:31:50Z</time>
      </trkpt>
      <trkpt lat="42.45141" lon="2.13161">
        <ele>2732.645</ele>
        <time>2018-06-30T10:32:44Z</time>
      </trkpt>
      <trkpt lat="42.45148" lon="2.13169">
        <ele>2732.294</ele>
        <time>2018-06-30T10:32:58Z</time>
      </trkpt>
      <trkpt lat="42.45153" lon="2.13171">
        <ele>2735.52</ele>
        <time>2018-06-30T10:33:08Z</time>
      </trkpt>
      <trkpt lat="42.45156" lon="2.13173">
        <ele>2737.486</ele>
        <time>2018-06-30T10:33:13Z</time>
      </trkpt>
      <trkpt lat="42.45161" lon="2.13175">
        <ele>2736.082</ele>
        <time>2018-06-30T10:33:25Z</time>
      </trkpt>
      <trkpt lat="42.45164" lon="2.13178">
        <ele>2735.043</ele>
        <time>2018-06-30T10:33:30Z</time>
      </trkpt>
      <trkpt lat="42.45171" lon="2.13182">
        <ele>2736.017</ele>
        <time>2018-06-30T10:33:39Z</time>
      </trkpt>
      <trkpt lat="42.45179" lon="2.13186">
        <ele>2737.908</ele>
        <time>2018-06-30T10:33:52Z</time>
      </trkpt>
      <trkpt lat="42.45187" lon="2.13187">
        <ele>2741.36</ele>
        <time>2018-06-30T10:34:05Z</time>
      </trkpt>
      <trkpt lat="42.45189" lon="2.1319">
        <ele>2742.774</ele>
        <time>2018-06-30T10:34:08Z</time>
      </trkpt>
      <trkpt lat="42.45189" lon="2.1319">
        <ele>2742.786</ele>
        <time>2018-06-30T10:34:09Z</time>
      </trkpt>
      <trkpt lat="42.45191" lon="2.13193">
        <ele>2744.275</ele>
        <time>2018-06-30T10:34:13Z</time>
      </trkpt>
      <trkpt lat="42.45192" lon="2.13194">
        <ele>2742.35</ele>
        <time>2018-06-30T10:34:18Z</time>
      </trkpt>
      <trkpt lat="42.45197" lon="2.13196">
        <ele>2744.259</ele>
        <time>2018-06-30T10:34:22Z</time>
      </trkpt>
      <trkpt lat="42.452" lon="2.13198">
        <ele>2745.665</ele>
        <time>2018-06-30T10:34:28Z</time>
      </trkpt>
      <trkpt lat="42.452" lon="2.13197">
        <ele>2743.731</ele>
        <time>2018-06-30T10:34:31Z</time>
      </trkpt>
      <trkpt lat="42.452" lon="2.13197">
        <ele>2742.362</ele>
        <time>2018-06-30T10:34:36Z</time>
      </trkpt>
      <trkpt lat="42.45203" lon="2.13197">
        <ele>2742.383</ele>
        <time>2018-06-30T10:34:42Z</time>
      </trkpt>
      <trkpt lat="42.45207" lon="2.13199">
        <ele>2742.311</ele>
        <time>2018-06-30T10:34:58Z</time>
      </trkpt>
      <trkpt lat="42.45208" lon="2.13201">
        <ele>2743.208</ele>
        <time>2018-06-30T10:35:11Z</time>
      </trkpt>
      <trkpt lat="42.45207" lon="2.13201">
        <ele>2742.728</ele>
        <time>2018-06-30T10:35:37Z</time>
      </trkpt>
      <trkpt lat="42.45207" lon="2.13202">
        <ele>2741.842</ele>
        <time>2018-06-30T10:35:51Z</time>
      </trkpt>
      <trkpt lat="42.45209" lon="2.13202">
        <ele>2741.894</ele>
        <time>2018-06-30T10:36:22Z</time>
      </trkpt>
      <trkpt lat="42.45209" lon="2.13202">
        <ele>2742.713</ele>
        <time>2018-06-30T10:36:42Z</time>
      </trkpt>
      <trkpt lat="42.45209" lon="2.13202">
        <ele>2742.738</ele>
        <time>2018-06-30T10:37:03Z</time>
      </trkpt>
      <trkpt lat="42.45209" lon="2.13201">
        <ele>2742.737</ele>
        <time>2018-06-30T10:37:22Z</time>
      </trkpt>
      <trkpt lat="42.45209" lon="2.13201">
        <ele>2742.793</ele>
        <time>2018-06-30T10:37:39Z</time>
      </trkpt>
      <trkpt lat="42.45209" lon="2.13201">
        <ele>2741.889</ele>
        <time>2018-06-30T10:37:44Z</time>
      </trkpt>
      <trkpt lat="42.45209" lon="2.13202">
        <ele>2744.258</ele>
        <time>2018-06-30T10:37:46Z</time>
      </trkpt>
      <trkpt lat="42.45208" lon="2.13203">
        <ele>2743.252</ele>
        <time>2018-06-30T10:38:05Z</time>
      </trkpt>
      <trkpt lat="42.45209" lon="2.13203">
        <ele>2745.117</ele>
        <time>2018-06-30T10:38:40Z</time>
      </trkpt>
      <trkpt lat="42.45208" lon="2.132">
        <ele>2742.308</ele>
        <time>2018-06-30T10:38:59Z</time>
      </trkpt>
      <trkpt lat="42.45203" lon="2.13201">
        <ele>2740.837</ele>
        <time>2018-06-30T10:39:13Z</time>
      </trkpt>
      <trkpt lat="42.45196" lon="2.132">
        <ele>2737.951</ele>
        <time>2018-06-30T10:39:26Z</time>
      </trkpt>
      <trkpt lat="42.45188" lon="2.13197">
        <ele>2736.073</ele>
        <time>2018-06-30T10:39:43Z</time>
      </trkpt>
      <trkpt lat="42.45186" lon="2.13196">
        <ele>2735.592</ele>
        <time>2018-06-30T10:39:50Z</time>
      </trkpt>
      <trkpt lat="42.45174" lon="2.13184">
        <ele>2737.077</ele>
        <time>2018-06-30T10:40:05Z</time>
      </trkpt>
      <trkpt lat="42.45166" lon="2.1318">
        <ele>2735.556</ele>
        <time>2018-06-30T10:40:20Z</time>
      </trkpt>
      <trkpt lat="42.45164" lon="2.13177">
        <ele>2735.552</ele>
        <time>2018-06-30T10:40:34Z</time>
      </trkpt>
      <trkpt lat="42.45159" lon="2.13179">
        <ele>2733.168</ele>
        <time>2018-06-30T10:40:45Z</time>
      </trkpt>
      <trkpt lat="42.45153" lon="2.13176">
        <ele>2732.297</ele>
        <time>2018-06-30T10:40:51Z</time>
      </trkpt>
      <trkpt lat="42.45141" lon="2.13165">
        <ele>2731.223</ele>
        <time>2018-06-30T10:41:08Z</time>
      </trkpt>
      <trkpt lat="42.45135" lon="2.13166">
        <ele>2727.825</ele>
        <time>2018-06-30T10:41:19Z</time>
      </trkpt>
      <trkpt lat="42.45129" lon="2.13168">
        <ele>2724.508</ele>
        <time>2018-06-30T10:41:30Z</time>
      </trkpt>
      <trkpt lat="42.45124" lon="2.13166">
        <ele>2724.521</ele>
        <time>2018-06-30T10:41:44Z</time>
      </trkpt>
      <trkpt lat="42.45118" lon="2.13161">
        <ele>2722.545</ele>
        <time>2018-06-30T10:41:59Z</time>
      </trkpt>
      <trkpt lat="42.45116" lon="2.13158">
        <ele>2724.067</ele>
        <time>2018-06-30T10:42:07Z</time>
      </trkpt>
      <trkpt lat="42.45113" lon="2.13152">
        <ele>2727.496</ele>
        <time>2018-06-30T10:42:18Z</time>
      </trkpt>
      <trkpt lat="42.45109" lon="2.13156">
        <ele>2726.951</ele>
        <time>2018-06-30T10:42:28Z</time>
      </trkpt>
      <trkpt lat="42.45103" lon="2.1316">
        <ele>2723.55</ele>
        <time>2018-06-30T10:42:40Z</time>
      </trkpt>
      <trkpt lat="42.45093" lon="2.13161">
        <ele>2719.726</ele>
        <time>2018-06-30T10:42:55Z</time>
      </trkpt>
      <trkpt lat="42.45087" lon="2.1316">
        <ele>2719.792</ele>
        <time>2018-06-30T10:43:10Z</time>
      </trkpt>
      <trkpt lat="42.45079" lon="2.13154">
        <ele>2721.165</ele>
        <time>2018-06-30T10:43:25Z</time>
      </trkpt>
      <trkpt lat="42.45066" lon="2.13149">
        <ele>2719.268</ele>
        <time>2018-06-30T10:43:41Z</time>
      </trkpt>
      <trkpt lat="42.45063" lon="2.13148">
        <ele>2720.114</ele>
        <time>2018-06-30T10:43:47Z</time>
      </trkpt>
      <trkpt lat="42.45061" lon="2.13147">
        <ele>2719.208</ele>
        <time>2018-06-30T10:43:56Z</time>
      </trkpt>
      <trkpt lat="42.45061" lon="2.13147">
        <ele>2720.118</ele>
        <time>2018-06-30T10:44:15Z</time>
      </trkpt>
      <trkpt lat="42.45059" lon="2.1315">
        <ele>2720.122</ele>
        <time>2018-06-30T10:44:19Z</time>
      </trkpt>
      <trkpt lat="42.45053" lon="2.13155">
        <ele>2715.364</ele>
        <time>2018-06-30T10:44:28Z</time>
      </trkpt>
      <trkpt lat="42.45053" lon="2.13154">
        <ele>2715.373</ele>
        <time>2018-06-30T10:44:29Z</time>
      </trkpt>
      <trkpt lat="42.45051" lon="2.13156">
        <ele>2713.988</ele>
        <time>2018-06-30T10:44:36Z</time>
      </trkpt>
      <trkpt lat="42.45043" lon="2.13163">
        <ele>2711.547</ele>
        <time>2018-06-30T10:44:47Z</time>
      </trkpt>
      <trkpt lat="42.45042" lon="2.13165">
        <ele>2710.043</ele>
        <time>2018-06-30T10:44:49Z</time>
      </trkpt>
      <trkpt lat="42.45035" lon="2.1317">
        <ele>2706.769</ele>
        <time>2018-06-30T10:44:55Z</time>
      </trkpt>
      <trkpt lat="42.45034" lon="2.13171">
        <ele>2705.793</ele>
        <time>2018-06-30T10:44:56Z</time>
      </trkpt>
      <trkpt lat="42.45027" lon="2.13178">
        <ele>2705.765</ele>
        <time>2018-06-30T10:45:10Z</time>
      </trkpt>
      <trkpt lat="42.45024" lon="2.13179">
        <ele>2703.321</ele>
        <time>2018-06-30T10:45:13Z</time>
      </trkpt>
      <trkpt lat="42.45017" lon="2.13184">
        <ele>2701.908</ele>
        <time>2018-06-30T10:45:19Z</time>
      </trkpt>
      <trkpt lat="42.45015" lon="2.13185">
        <ele>2702.881</ele>
        <time>2018-06-30T10:45:21Z</time>
      </trkpt>
      <trkpt lat="42.4501" lon="2.13189">
        <ele>2701.475</ele>
        <time>2018-06-30T10:45:25Z</time>
      </trkpt>
      <trkpt lat="42.45007" lon="2.13194">
        <ele>2702.887</ele>
        <time>2018-06-30T10:45:29Z</time>
      </trkpt>
      <trkpt lat="42.45002" lon="2.13196">
        <ele>2700.976</ele>
        <time>2018-06-30T10:45:32Z</time>
      </trkpt>
      <trkpt lat="42.44998" lon="2.13201">
        <ele>2702.461</ele>
        <time>2018-06-30T10:45:36Z</time>
      </trkpt>
      <trkpt lat="42.44994" lon="2.13205">
        <ele>2700.05</ele>
        <time>2018-06-30T10:45:40Z</time>
      </trkpt>
      <trkpt lat="42.44984" lon="2.13215">
        <ele>2700.926</ele>
        <time>2018-06-30T10:45:52Z</time>
      </trkpt>
      <trkpt lat="42.44983" lon="2.13216">
        <ele>2703.342</ele>
        <time>2018-06-30T10:45:58Z</time>
      </trkpt>
      <trkpt lat="42.44983" lon="2.13216">
        <ele>2702.472</ele>
        <time>2018-06-30T10:46:36Z</time>
      </trkpt>
      <trkpt lat="42.44983" lon="2.13216">
        <ele>2702.413</ele>
        <time>2018-06-30T10:46:37Z</time>
      </trkpt>
      <trkpt lat="42.44982" lon="2.13217">
        <ele>2701.914</ele>
        <time>2018-06-30T10:46:52Z</time>
      </trkpt>
      <trkpt lat="42.44979" lon="2.13222">
        <ele>2700.908</ele>
        <time>2018-06-30T10:46:59Z</time>
      </trkpt>
      <trkpt lat="42.44976" lon="2.13226">
        <ele>2700.029</ele>
        <time>2018-06-30T10:47:13Z</time>
      </trkpt>
      <trkpt lat="42.44972" lon="2.13231">
        <ele>2699.083</ele>
        <time>2018-06-30T10:47:18Z</time>
      </trkpt>
      <trkpt lat="42.44958" lon="2.13244">
        <ele>2698.545</ele>
        <time>2018-06-30T10:47:31Z</time>
      </trkpt>
      <trkpt lat="42.44957" lon="2.13245">
        <ele>2697.194</ele>
        <time>2018-06-30T10:47:33Z</time>
      </trkpt>
      <trkpt lat="42.44955" lon="2.13246">
        <ele>2695.139</ele>
        <time>2018-06-30T10:47:50Z</time>
      </trkpt>
      <trkpt lat="42.44952" lon="2.13247">
        <ele>2693.738</ele>
        <time>2018-06-30T10:47:55Z</time>
      </trkpt>
      <trkpt lat="42.44947" lon="2.13248">
        <ele>2693.254</ele>
        <time>2018-06-30T10:48:04Z</time>
      </trkpt>
      <trkpt lat="42.44942" lon="2.13252">
        <ele>2689.44</ele>
        <time>2018-06-30T10:48:15Z</time>
      </trkpt>
      <trkpt lat="42.44939" lon="2.13252">
        <ele>2687.917</ele>
        <time>2018-06-30T10:48:18Z</time>
      </trkpt>
      <trkpt lat="42.44936" lon="2.13253">
        <ele>2686.587</ele>
        <time>2018-06-30T10:48:22Z</time>
      </trkpt>
      <trkpt lat="42.4493" lon="2.13256">
        <ele>2686.515</ele>
        <time>2018-06-30T10:48:30Z</time>
      </trkpt>
      <trkpt lat="42.44926" lon="2.13256">
        <ele>2684.608</ele>
        <time>2018-06-30T10:48:34Z</time>
      </trkpt>
      <trkpt lat="42.44922" lon="2.13259">
        <ele>2683.123</ele>
        <time>2018-06-30T10:48:38Z</time>
      </trkpt>
      <trkpt lat="42.44907" lon="2.13269">
        <ele>2682.237</ele>
        <time>2018-06-30T10:48:54Z</time>
      </trkpt>
      <trkpt lat="42.44902" lon="2.13272">
        <ele>2680.279</ele>
        <time>2018-06-30T10:49:02Z</time>
      </trkpt>
      <trkpt lat="42.44897" lon="2.13277">
        <ele>2679.848</ele>
        <time>2018-06-30T10:49:07Z</time>
      </trkpt>
      <trkpt lat="42.44892" lon="2.13281">
        <ele>2680.793</ele>
        <time>2018-06-30T10:49:12Z</time>
      </trkpt>
      <trkpt lat="42.44888" lon="2.13284">
        <ele>2679.822</ele>
        <time>2018-06-30T10:49:17Z</time>
      </trkpt>
      <trkpt lat="42.44884" lon="2.13287">
        <ele>2677.888</ele>
        <time>2018-06-30T10:49:21Z</time>
      </trkpt>
      <trkpt lat="42.44877" lon="2.13294">
        <ele>2677.854</ele>
        <time>2018-06-30T10:49:29Z</time>
      </trkpt>
      <trkpt lat="42.44869" lon="2.133">
        <ele>2679.349</ele>
        <time>2018-06-30T10:49:39Z</time>
      </trkpt>
      <trkpt lat="42.44866" lon="2.133">
        <ele>2677.802</ele>
        <time>2018-06-30T10:49:42Z</time>
      </trkpt>
      <trkpt lat="42.44858" lon="2.13304">
        <ele>2678.822</ele>
        <time>2018-06-30T10:49:50Z</time>
      </trkpt>
      <trkpt lat="42.44855" lon="2.13307">
        <ele>2679.308</ele>
        <time>2018-06-30T10:49:55Z</time>
      </trkpt>
      <trkpt lat="42.44853" lon="2.13309">
        <ele>2677.476</ele>
        <time>2018-06-30T10:49:57Z</time>
      </trkpt>
      <trkpt lat="42.44848" lon="2.13314">
        <ele>2676.44</ele>
        <time>2018-06-30T10:50:03Z</time>
      </trkpt>
      <trkpt lat="42.4484" lon="2.13322">
        <ele>2676.482</ele>
        <time>2018-06-30T10:50:13Z</time>
      </trkpt>
      <trkpt lat="42.44837" lon="2.13325">
        <ele>2675.471</ele>
        <time>2018-06-30T10:50:16Z</time>
      </trkpt>
      <trkpt lat="42.44832" lon="2.13327">
        <ele>2676.436</ele>
        <time>2018-06-30T10:50:23Z</time>
      </trkpt>
      <trkpt lat="42.44824" lon="2.13332">
        <ele>2672.695</ele>
        <time>2018-06-30T10:50:32Z</time>
      </trkpt>
      <trkpt lat="42.44822" lon="2.13332">
        <ele>2674.081</ele>
        <time>2018-06-30T10:50:35Z</time>
      </trkpt>
      <trkpt lat="42.44817" lon="2.13334">
        <ele>2676.487</ele>
        <time>2018-06-30T10:50:41Z</time>
      </trkpt>
      <trkpt lat="42.44815" lon="2.13334">
        <ele>2673.512</ele>
        <time>2018-06-30T10:50:43Z</time>
      </trkpt>
      <trkpt lat="42.44814" lon="2.13334">
        <ele>2673.532</ele>
        <time>2018-06-30T10:50:44Z</time>
      </trkpt>
      <trkpt lat="42.44811" lon="2.13333">
        <ele>2674.505</ele>
        <time>2018-06-30T10:50:48Z</time>
      </trkpt>
      <trkpt lat="42.44806" lon="2.13333">
        <ele>2674.508</ele>
        <time>2018-06-30T10:51:02Z</time>
      </trkpt>
      <trkpt lat="42.44803" lon="2.13332">
        <ele>2670.643</ele>
        <time>2018-06-30T10:51:06Z</time>
      </trkpt>
      <trkpt lat="42.44799" lon="2.13333">
        <ele>2672.677</ele>
        <time>2018-06-30T10:51:11Z</time>
      </trkpt>
      <trkpt lat="42.44798" lon="2.13332">
        <ele>2673.569</ele>
        <time>2018-06-30T10:51:21Z</time>
      </trkpt>
      <trkpt lat="42.44795" lon="2.13331">
        <ele>2672.118</ele>
        <time>2018-06-30T10:51:23Z</time>
      </trkpt>
      <trkpt lat="42.44794" lon="2.13332">
        <ele>2672.113</ele>
        <time>2018-06-30T10:51:42Z</time>
      </trkpt>
      <trkpt lat="42.4479" lon="2.1333">
        <ele>2672.162</ele>
        <time>2018-06-30T10:51:54Z</time>
      </trkpt>
      <trkpt lat="42.44788" lon="2.1333">
        <ele>2672.158</ele>
        <time>2018-06-30T10:51:56Z</time>
      </trkpt>
      <trkpt lat="42.4478" lon="2.1333">
        <ele>2672.684</ele>
        <time>2018-06-30T10:52:09Z</time>
      </trkpt>
      <trkpt lat="42.44775" lon="2.1333">
        <ele>2671.634</ele>
        <time>2018-06-30T10:52:27Z</time>
      </trkpt>
      <trkpt lat="42.44775" lon="2.13329">
        <ele>2671.655</ele>
        <time>2018-06-30T10:52:28Z</time>
      </trkpt>
      <trkpt lat="42.44766" lon="2.13328">
        <ele>2671.11</ele>
        <time>2018-06-30T10:52:38Z</time>
      </trkpt>
      <trkpt lat="42.44763" lon="2.1333">
        <ele>2670.208</ele>
        <time>2018-06-30T10:52:41Z</time>
      </trkpt>
      <trkpt lat="42.4476" lon="2.1333">
        <ele>2671.165</ele>
        <time>2018-06-30T10:52:45Z</time>
      </trkpt>
      <trkpt lat="42.44751" lon="2.13333">
        <ele>2670.279</ele>
        <time>2018-06-30T10:52:55Z</time>
      </trkpt>
      <trkpt lat="42.44749" lon="2.13333">
        <ele>2668.241</ele>
        <time>2018-06-30T10:52:57Z</time>
      </trkpt>
      <trkpt lat="42.44747" lon="2.13333">
        <ele>2670.24</ele>
        <time>2018-06-30T10:53:01Z</time>
      </trkpt>
      <trkpt lat="42.44742" lon="2.13337">
        <ele>2672.165</ele>
        <time>2018-06-30T10:53:09Z</time>
      </trkpt>
      <trkpt lat="42.44738" lon="2.13339">
        <ele>2670.274</ele>
        <time>2018-06-30T10:53:14Z</time>
      </trkpt>
      <trkpt lat="42.44734" lon="2.1334">
        <ele>2670.24</ele>
        <time>2018-06-30T10:53:24Z</time>
      </trkpt>
      <trkpt lat="42.44726" lon="2.13342">
        <ele>2668.216</ele>
        <time>2018-06-30T10:53:37Z</time>
      </trkpt>
      <trkpt lat="42.44719" lon="2.13345">
        <ele>2666.885</ele>
        <time>2018-06-30T10:53:46Z</time>
      </trkpt>
      <trkpt lat="42.44714" lon="2.13347">
        <ele>2665.389</ele>
        <time>2018-06-30T10:53:51Z</time>
      </trkpt>
      <trkpt lat="42.4471" lon="2.13351">
        <ele>2663.417</ele>
        <time>2018-06-30T10:54:00Z</time>
      </trkpt>
      <trkpt lat="42.44704" lon="2.13353">
        <ele>2662.508</ele>
        <time>2018-06-30T10:54:10Z</time>
      </trkpt>
      <trkpt lat="42.44695" lon="2.13359">
        <ele>2662.06</ele>
        <time>2018-06-30T10:54:23Z</time>
      </trkpt>
      <trkpt lat="42.44689" lon="2.13361">
        <ele>2660.114</ele>
        <time>2018-06-30T10:54:33Z</time>
      </trkpt>
      <trkpt lat="42.44676" lon="2.13367">
        <ele>2659.146</ele>
        <time>2018-06-30T10:54:46Z</time>
      </trkpt>
      <trkpt lat="42.44664" lon="2.13379">
        <ele>2658.655</ele>
        <time>2018-06-30T10:55:01Z</time>
      </trkpt>
      <trkpt lat="42.44654" lon="2.13384">
        <ele>2659.68</ele>
        <time>2018-06-30T10:55:12Z</time>
      </trkpt>
      <trkpt lat="42.44652" lon="2.13385">
        <ele>2658.169</ele>
        <time>2018-06-30T10:55:14Z</time>
      </trkpt>
      <trkpt lat="42.44642" lon="2.13392">
        <ele>2658.685</ele>
        <time>2018-06-30T10:55:24Z</time>
      </trkpt>
      <trkpt lat="42.44634" lon="2.13397">
        <ele>2661.511</ele>
        <time>2018-06-30T10:55:35Z</time>
      </trkpt>
      <trkpt lat="42.44629" lon="2.13399">
        <ele>2660.135</ele>
        <time>2018-06-30T10:55:41Z</time>
      </trkpt>
      <trkpt lat="42.44621" lon="2.13402">
        <ele>2659.686</ele>
        <time>2018-06-30T10:55:48Z</time>
      </trkpt>
      <trkpt lat="42.44618" lon="2.13403">
        <ele>2657.214</ele>
        <time>2018-06-30T10:55:51Z</time>
      </trkpt>
      <trkpt lat="42.44617" lon="2.13403">
        <ele>2657.208</ele>
        <time>2018-06-30T10:55:52Z</time>
      </trkpt>
      <trkpt lat="42.44614" lon="2.13404">
        <ele>2659.175</ele>
        <time>2018-06-30T10:55:54Z</time>
      </trkpt>
      <trkpt lat="42.44607" lon="2.13407">
        <ele>2658.669</ele>
        <time>2018-06-30T10:56:01Z</time>
      </trkpt>
      <trkpt lat="42.44602" lon="2.13409">
        <ele>2657.771</ele>
        <time>2018-06-30T10:56:05Z</time>
      </trkpt>
      <trkpt lat="42.446" lon="2.13411">
        <ele>2657.73</ele>
        <time>2018-06-30T10:56:08Z</time>
      </trkpt>
      <trkpt lat="42.44595" lon="2.13414">
        <ele>2660.145</ele>
        <time>2018-06-30T10:56:13Z</time>
      </trkpt>
      <trkpt lat="42.44591" lon="2.13415">
        <ele>2661.594</ele>
        <time>2018-06-30T10:56:17Z</time>
      </trkpt>
      <trkpt lat="42.44589" lon="2.13415">
        <ele>2660.56</ele>
        <time>2018-06-30T10:56:19Z</time>
      </trkpt>
      <trkpt lat="42.44586" lon="2.13416">
        <ele>2658.176</ele>
        <time>2018-06-30T10:56:22Z</time>
      </trkpt>
      <trkpt lat="42.44576" lon="2.13422">
        <ele>2657.752</ele>
        <time>2018-06-30T10:56:35Z</time>
      </trkpt>
      <trkpt lat="42.44574" lon="2.13423">
        <ele>2659.153</ele>
        <time>2018-06-30T10:56:37Z</time>
      </trkpt>
      <trkpt lat="42.44562" lon="2.13434">
        <ele>2658.108</ele>
        <time>2018-06-30T10:56:51Z</time>
      </trkpt>
      <trkpt lat="42.4456" lon="2.13437">
        <ele>2659.608</ele>
        <time>2018-06-30T10:56:55Z</time>
      </trkpt>
      <trkpt lat="42.44555" lon="2.13444">
        <ele>2662.937</ele>
        <time>2018-06-30T10:57:04Z</time>
      </trkpt>
      <trkpt lat="42.44552" lon="2.13448">
        <ele>2666.371</ele>
        <time>2018-06-30T10:57:10Z</time>
      </trkpt>
      <trkpt lat="42.44552" lon="2.13449">
        <ele>2669.243</ele>
        <time>2018-06-30T10:57:11Z</time>
      </trkpt>
      <trkpt lat="42.4455" lon="2.13451">
        <ele>2671.612</ele>
        <time>2018-06-30T10:57:14Z</time>
      </trkpt>
      <trkpt lat="42.44547" lon="2.13454">
        <ele>2669.297</ele>
        <time>2018-06-30T10:57:18Z</time>
      </trkpt>
      <trkpt lat="42.44542" lon="2.1346">
        <ele>2670.666</ele>
        <time>2018-06-30T10:57:25Z</time>
      </trkpt>
      <trkpt lat="42.44539" lon="2.13462">
        <ele>2668.762</ele>
        <time>2018-06-30T10:57:28Z</time>
      </trkpt>
      <trkpt lat="42.44539" lon="2.13462">
        <ele>2671.158</ele>
        <time>2018-06-30T10:57:30Z</time>
      </trkpt>
      <trkpt lat="42.44536" lon="2.13464">
        <ele>2669.737</ele>
        <time>2018-06-30T10:57:36Z</time>
      </trkpt>
      <trkpt lat="42.44534" lon="2.13465">
        <ele>2665.849</ele>
        <time>2018-06-30T10:57:55Z</time>
      </trkpt>
      <trkpt lat="42.44534" lon="2.13465">
        <ele>2668.713</ele>
        <time>2018-06-30T10:57:56Z</time>
      </trkpt>
      <trkpt lat="42.4453" lon="2.13467">
        <ele>2668.708</ele>
        <time>2018-06-30T10:58:03Z</time>
      </trkpt>
      <trkpt lat="42.44528" lon="2.13469">
        <ele>2670.235</ele>
        <time>2018-06-30T10:58:06Z</time>
      </trkpt>
      <trkpt lat="42.44517" lon="2.13478">
        <ele>2670.219</ele>
        <time>2018-06-30T10:58:19Z</time>
      </trkpt>
      <trkpt lat="42.44514" lon="2.13482">
        <ele>2673.591</ele>
        <time>2018-06-30T10:58:24Z</time>
      </trkpt>
      <trkpt lat="42.44514" lon="2.13483">
        <ele>2670.69</ele>
        <time>2018-06-30T10:58:31Z</time>
      </trkpt>
      <trkpt lat="42.44512" lon="2.13484">
        <ele>2670.225</ele>
        <time>2018-06-30T10:58:33Z</time>
      </trkpt>
      <trkpt lat="42.44507" lon="2.13485">
        <ele>2668.274</ele>
        <time>2018-06-30T10:58:41Z</time>
      </trkpt>
      <trkpt lat="42.445" lon="2.13492">
        <ele>2671.64</ele>
        <time>2018-06-30T10:58:48Z</time>
      </trkpt>
      <trkpt lat="42.44499" lon="2.13493">
        <ele>2671.646</ele>
        <time>2018-06-30T10:58:49Z</time>
      </trkpt>
      <trkpt lat="42.44494" lon="2.135">
        <ele>2674.065</ele>
        <time>2018-06-30T10:58:57Z</time>
      </trkpt>
      <trkpt lat="42.44488" lon="2.13511">
        <ele>2672.168</ele>
        <time>2018-06-30T10:59:11Z</time>
      </trkpt>
      <trkpt lat="42.44488" lon="2.13512">
        <ele>2673.514</ele>
        <time>2018-06-30T10:59:21Z</time>
      </trkpt>
      <trkpt lat="42.44488" lon="2.13512">
        <ele>2672.108</ele>
        <time>2018-06-30T10:59:28Z</time>
      </trkpt>
      <trkpt lat="42.44481" lon="2.13519">
        <ele>2672.178</ele>
        <time>2018-06-30T10:59:39Z</time>
      </trkpt>
      <trkpt lat="42.4448" lon="2.13522">
        <ele>2672.122</ele>
        <time>2018-06-30T10:59:43Z</time>
      </trkpt>
      <trkpt lat="42.44477" lon="2.13527">
        <ele>2673.554</ele>
        <time>2018-06-30T10:59:48Z</time>
      </trkpt>
      <trkpt lat="42.44476" lon="2.13529">
        <ele>2674.053</ele>
        <time>2018-06-30T10:59:51Z</time>
      </trkpt>
      <trkpt lat="42.44472" lon="2.13539">
        <ele>2677.838</ele>
        <time>2018-06-30T11:00:00Z</time>
      </trkpt>
      <trkpt lat="42.44469" lon="2.13545">
        <ele>2678.387</ele>
        <time>2018-06-30T11:00:06Z</time>
      </trkpt>
      <trkpt lat="42.44466" lon="2.1355">
        <ele>2679.323</ele>
        <time>2018-06-30T11:00:11Z</time>
      </trkpt>
      <trkpt lat="42.44461" lon="2.13566">
        <ele>2680.759</ele>
        <time>2018-06-30T11:00:25Z</time>
      </trkpt>
      <trkpt lat="42.44459" lon="2.13572">
        <ele>2680.254</ele>
        <time>2018-06-30T11:00:37Z</time>
      </trkpt>
      <trkpt lat="42.44457" lon="2.13577">
        <ele>2681.756</ele>
        <time>2018-06-30T11:00:40Z</time>
      </trkpt>
      <trkpt lat="42.44454" lon="2.13582">
        <ele>2681.711</ele>
        <time>2018-06-30T11:00:44Z</time>
      </trkpt>
      <trkpt lat="42.4445" lon="2.13592">
        <ele>2681.208</ele>
        <time>2018-06-30T11:00:52Z</time>
      </trkpt>
      <trkpt lat="42.44447" lon="2.13609">
        <ele>2683.187</ele>
        <time>2018-06-30T11:01:04Z</time>
      </trkpt>
      <trkpt lat="42.44446" lon="2.13621">
        <ele>2684.611</ele>
        <time>2018-06-30T11:01:13Z</time>
      </trkpt>
      <trkpt lat="42.44443" lon="2.13627">
        <ele>2685.163</ele>
        <time>2018-06-30T11:01:27Z</time>
      </trkpt>
      <trkpt lat="42.44442" lon="2.1363">
        <ele>2684.162</ele>
        <time>2018-06-30T11:01:29Z</time>
      </trkpt>
      <trkpt lat="42.4444" lon="2.13639">
        <ele>2681.787</ele>
        <time>2018-06-30T11:01:42Z</time>
      </trkpt>
      <trkpt lat="42.44437" lon="2.13644">
        <ele>2683.616</ele>
        <time>2018-06-30T11:01:46Z</time>
      </trkpt>
      <trkpt lat="42.44432" lon="2.13655">
        <ele>2683.112</ele>
        <time>2018-06-30T11:01:59Z</time>
      </trkpt>
      <trkpt lat="42.44432" lon="2.13656">
        <ele>2686.018</ele>
        <time>2018-06-30T11:02:01Z</time>
      </trkpt>
      <trkpt lat="42.44426" lon="2.13668">
        <ele>2688.459</ele>
        <time>2018-06-30T11:02:14Z</time>
      </trkpt>
      <trkpt lat="42.44423" lon="2.13674">
        <ele>2690.803</ele>
        <time>2018-06-30T11:02:22Z</time>
      </trkpt>
      <trkpt lat="42.44421" lon="2.13681">
        <ele>2690.823</ele>
        <time>2018-06-30T11:02:39Z</time>
      </trkpt>
      <trkpt lat="42.4442" lon="2.13684">
        <ele>2689.408</ele>
        <time>2018-06-30T11:02:42Z</time>
      </trkpt>
      <trkpt lat="42.44418" lon="2.13692">
        <ele>2692.717</ele>
        <time>2018-06-30T11:02:50Z</time>
      </trkpt>
      <trkpt lat="42.44417" lon="2.13694">
        <ele>2693.711</ele>
        <time>2018-06-30T11:02:52Z</time>
      </trkpt>
      <trkpt lat="42.44415" lon="2.13696">
        <ele>2693.763</ele>
        <time>2018-06-30T11:02:54Z</time>
      </trkpt>
      <trkpt lat="42.44414" lon="2.137">
        <ele>2692.362</ele>
        <time>2018-06-30T11:02:57Z</time>
      </trkpt>
      <trkpt lat="42.44409" lon="2.13717">
        <ele>2694.297</ele>
        <time>2018-06-30T11:03:11Z</time>
      </trkpt>
      <trkpt lat="42.44408" lon="2.13723">
        <ele>2696.626</ele>
        <time>2018-06-30T11:03:15Z</time>
      </trkpt>
      <trkpt lat="42.44405" lon="2.13729">
        <ele>2694.292</ele>
        <time>2018-06-30T11:03:20Z</time>
      </trkpt>
      <trkpt lat="42.44403" lon="2.13732">
        <ele>2699.088</ele>
        <time>2018-06-30T11:03:23Z</time>
      </trkpt>
      <trkpt lat="42.44403" lon="2.13736">
        <ele>2697.672</ele>
        <time>2018-06-30T11:03:26Z</time>
      </trkpt>
      <trkpt lat="42.44403" lon="2.13737">
        <ele>2697.613</ele>
        <time>2018-06-30T11:03:41Z</time>
      </trkpt>
      <trkpt lat="42.44403" lon="2.13737">
        <ele>2695.614</ele>
        <time>2018-06-30T11:03:44Z</time>
      </trkpt>
      <trkpt lat="42.44402" lon="2.13744">
        <ele>2696.608</ele>
        <time>2018-06-30T11:04:01Z</time>
      </trkpt>
      <trkpt lat="42.44401" lon="2.1375">
        <ele>2697.689</ele>
        <time>2018-06-30T11:04:06Z</time>
      </trkpt>
      <trkpt lat="42.44395" lon="2.13764">
        <ele>2699.013</ele>
        <time>2018-06-30T11:04:18Z</time>
      </trkpt>
      <trkpt lat="42.44394" lon="2.13767">
        <ele>2697.665</ele>
        <time>2018-06-30T11:04:22Z</time>
      </trkpt>
      <trkpt lat="42.44391" lon="2.1377">
        <ele>2699.094</ele>
        <time>2018-06-30T11:04:25Z</time>
      </trkpt>
      <trkpt lat="42.44387" lon="2.13775">
        <ele>2700.479</ele>
        <time>2018-06-30T11:04:34Z</time>
      </trkpt>
      <trkpt lat="42.44384" lon="2.13779">
        <ele>2698.588</ele>
        <time>2018-06-30T11:04:38Z</time>
      </trkpt>
      <trkpt lat="42.44379" lon="2.13782">
        <ele>2698.534</ele>
        <time>2018-06-30T11:04:44Z</time>
      </trkpt>
      <trkpt lat="42.44376" lon="2.13783">
        <ele>2700.03</ele>
        <time>2018-06-30T11:04:47Z</time>
      </trkpt>
      <trkpt lat="42.44372" lon="2.13784">
        <ele>2697.152</ele>
        <time>2018-06-30T11:04:51Z</time>
      </trkpt>
      <trkpt lat="42.44372" lon="2.13784">
        <ele>2700.453</ele>
        <time>2018-06-30T11:04:52Z</time>
      </trkpt>
      <trkpt lat="42.4437" lon="2.13785">
        <ele>2701.908</ele>
        <time>2018-06-30T11:04:54Z</time>
      </trkpt>
      <trkpt lat="42.44364" lon="2.13788">
        <ele>2702.408</ele>
        <time>2018-06-30T11:05:11Z</time>
      </trkpt>
      <trkpt lat="42.44355" lon="2.13792">
        <ele>2702.847</ele>
        <time>2018-06-30T11:05:23Z</time>
      </trkpt>
      <trkpt lat="42.44342" lon="2.13797">
        <ele>2705.231</ele>
        <time>2018-06-30T11:05:37Z</time>
      </trkpt>
      <trkpt lat="42.44337" lon="2.13799">
        <ele>2705.273</ele>
        <time>2018-06-30T11:05:44Z</time>
      </trkpt>
      <trkpt lat="42.44333" lon="2.138">
        <ele>2705.252</ele>
        <time>2018-06-30T11:05:49Z</time>
      </trkpt>
      <trkpt lat="42.44322" lon="2.13798">
        <ele>2703.817</ele>
        <time>2018-06-30T11:05:59Z</time>
      </trkpt>
      <trkpt lat="42.44317" lon="2.13799">
        <ele>2705.766</ele>
        <time>2018-06-30T11:06:04Z</time>
      </trkpt>
      <trkpt lat="42.44315" lon="2.13798">
        <ele>2703.832</ele>
        <time>2018-06-30T11:06:07Z</time>
      </trkpt>
      <trkpt lat="42.44314" lon="2.13797">
        <ele>2705.728</ele>
        <time>2018-06-30T11:06:10Z</time>
      </trkpt>
      <trkpt lat="42.4431" lon="2.13797">
        <ele>2703.354</ele>
        <time>2018-06-30T11:06:21Z</time>
      </trkpt>
      <trkpt lat="42.44304" lon="2.13796">
        <ele>2704.856</ele>
        <time>2018-06-30T11:06:25Z</time>
      </trkpt>
      <trkpt lat="42.44293" lon="2.13797">
        <ele>2703.311</ele>
        <time>2018-06-30T11:06:36Z</time>
      </trkpt>
      <trkpt lat="42.4429" lon="2.13798">
        <ele>2704.808</ele>
        <time>2018-06-30T11:06:39Z</time>
      </trkpt>
      <trkpt lat="42.44281" lon="2.13801">
        <ele>2704.847</ele>
        <time>2018-06-30T11:06:48Z</time>
      </trkpt>
      <trkpt lat="42.44277" lon="2.13805">
        <ele>2706.751</ele>
        <time>2018-06-30T11:06:53Z</time>
      </trkpt>
      <trkpt lat="42.44267" lon="2.13813">
        <ele>2708.613</ele>
        <time>2018-06-30T11:07:07Z</time>
      </trkpt>
      <trkpt lat="42.44258" lon="2.13822">
        <ele>2709.652</ele>
        <time>2018-06-30T11:07:20Z</time>
      </trkpt>
      <trkpt lat="42.44255" lon="2.13826">
        <ele>2710.037</ele>
        <time>2018-06-30T11:07:24Z</time>
      </trkpt>
      <trkpt lat="42.44253" lon="2.13828">
        <ele>2711.576</ele>
        <time>2018-06-30T11:07:27Z</time>
      </trkpt>
      <trkpt lat="42.44246" lon="2.13832">
        <ele>2709.682</ele>
        <time>2018-06-30T11:07:35Z</time>
      </trkpt>
      <trkpt lat="42.44244" lon="2.13833">
        <ele>2711.038</ele>
        <time>2018-06-30T11:07:37Z</time>
      </trkpt>
      <trkpt lat="42.4424" lon="2.13837">
        <ele>2711.594</ele>
        <time>2018-06-30T11:07:50Z</time>
      </trkpt>
      <trkpt lat="42.44239" lon="2.13837">
        <ele>2709.657</ele>
        <time>2018-06-30T11:07:54Z</time>
      </trkpt>
      <trkpt lat="42.44236" lon="2.13841">
        <ele>2711.522</ele>
        <time>2018-06-30T11:07:59Z</time>
      </trkpt>
      <trkpt lat="42.44228" lon="2.13852">
        <ele>2711.508</ele>
        <time>2018-06-30T11:08:13Z</time>
      </trkpt>
      <trkpt lat="42.44228" lon="2.13852">
        <ele>2712.591</ele>
        <time>2018-06-30T11:08:18Z</time>
      </trkpt>
      <trkpt lat="42.44228" lon="2.13852">
        <ele>2711.515</ele>
        <time>2018-06-30T11:08:23Z</time>
      </trkpt>
      <trkpt lat="42.44226" lon="2.13855">
        <ele>2713.477</ele>
        <time>2018-06-30T11:08:27Z</time>
      </trkpt>
      <trkpt lat="42.44218" lon="2.13863">
        <ele>2713.916</ele>
        <time>2018-06-30T11:08:42Z</time>
      </trkpt>
      <trkpt lat="42.44217" lon="2.13864">
        <ele>2713.981</ele>
        <time>2018-06-30T11:08:43Z</time>
      </trkpt>
      <trkpt lat="42.44214" lon="2.13868">
        <ele>2713.96</ele>
        <time>2018-06-30T11:08:48Z</time>
      </trkpt>
      <trkpt lat="42.4421" lon="2.13872">
        <ele>2715.326</ele>
        <time>2018-06-30T11:09:04Z</time>
      </trkpt>
      <trkpt lat="42.4421" lon="2.13872">
        <ele>2714.962</ele>
        <time>2018-06-30T11:09:17Z</time>
      </trkpt>
      <trkpt lat="42.44206" lon="2.13878">
        <ele>2716.356</ele>
        <time>2018-06-30T11:09:23Z</time>
      </trkpt>
      <trkpt lat="42.44194" lon="2.13893">
        <ele>2718.259</ele>
        <time>2018-06-30T11:09:38Z</time>
      </trkpt>
      <trkpt lat="42.44182" lon="2.13905">
        <ele>2719.714</ele>
        <time>2018-06-30T11:09:53Z</time>
      </trkpt>
      <trkpt lat="42.44179" lon="2.13909">
        <ele>2723.508</ele>
        <time>2018-06-30T11:09:57Z</time>
      </trkpt>
      <trkpt lat="42.44178" lon="2.13909">
        <ele>2723.517</ele>
        <time>2018-06-30T11:09:58Z</time>
      </trkpt>
      <trkpt lat="42.44176" lon="2.1391">
        <ele>2722.171</ele>
        <time>2018-06-30T11:10:00Z</time>
      </trkpt>
      <trkpt lat="42.44162" lon="2.13918">
        <ele>2723.093</ele>
        <time>2018-06-30T11:10:17Z</time>
      </trkpt>
      <trkpt lat="42.44151" lon="2.13925">
        <ele>2723.072</ele>
        <time>2018-06-30T11:10:30Z</time>
      </trkpt>
      <trkpt lat="42.44148" lon="2.13927">
        <ele>2725.437</ele>
        <time>2018-06-30T11:10:35Z</time>
      </trkpt>
      <trkpt lat="42.44144" lon="2.13927">
        <ele>2724.026</ele>
        <time>2018-06-30T11:10:38Z</time>
      </trkpt>
      <trkpt lat="42.44141" lon="2.13928">
        <ele>2722.512</ele>
        <time>2018-06-30T11:10:41Z</time>
      </trkpt>
      <trkpt lat="42.44137" lon="2.13932">
        <ele>2727.868</ele>
        <time>2018-06-30T11:10:47Z</time>
      </trkpt>
      <trkpt lat="42.44137" lon="2.13933">
        <ele>2727.863</ele>
        <time>2018-06-30T11:10:48Z</time>
      </trkpt>
      <trkpt lat="42.44132" lon="2.13944">
        <ele>2728.844</ele>
        <time>2018-06-30T11:11:02Z</time>
      </trkpt>
      <trkpt lat="42.44128" lon="2.13945">
        <ele>2728.318</ele>
        <time>2018-06-30T11:11:06Z</time>
      </trkpt>
      <trkpt lat="42.44125" lon="2.13949">
        <ele>2729.808</ele>
        <time>2018-06-30T11:11:11Z</time>
      </trkpt>
      <trkpt lat="42.44121" lon="2.13953">
        <ele>2729.878</ele>
        <time>2018-06-30T11:11:17Z</time>
      </trkpt>
      <trkpt lat="42.44113" lon="2.13964">
        <ele>2733.192</ele>
        <time>2018-06-30T11:11:33Z</time>
      </trkpt>
      <trkpt lat="42.4411" lon="2.13972">
        <ele>2736.084</ele>
        <time>2018-06-30T11:11:48Z</time>
      </trkpt>
      <trkpt lat="42.44105" lon="2.13978">
        <ele>2739.413</ele>
        <time>2018-06-30T11:11:59Z</time>
      </trkpt>
      <trkpt lat="42.44105" lon="2.13979">
        <ele>2739.438</ele>
        <time>2018-06-30T11:12:00Z</time>
      </trkpt>
      <trkpt lat="42.44103" lon="2.13983">
        <ele>2739.857</ele>
        <time>2018-06-30T11:12:15Z</time>
      </trkpt>
      <trkpt lat="42.44103" lon="2.13989">
        <ele>2740.373</ele>
        <time>2018-06-30T11:12:28Z</time>
      </trkpt>
      <trkpt lat="42.44093" lon="2.13994">
        <ele>2742.339</ele>
        <time>2018-06-30T11:12:40Z</time>
      </trkpt>
      <trkpt lat="42.4409" lon="2.13997">
        <ele>2743.712</ele>
        <time>2018-06-30T11:13:08Z</time>
      </trkpt>
      <trkpt lat="42.44091" lon="2.13997">
        <ele>2745.132</ele>
        <time>2018-06-30T11:13:36Z</time>
      </trkpt>
      <trkpt lat="42.4409" lon="2.13996">
        <ele>2744.205</ele>
        <time>2018-06-30T11:13:41Z</time>
      </trkpt>
      <trkpt lat="42.44082" lon="2.14005">
        <ele>2742.708</ele>
        <time>2018-06-30T11:13:49Z</time>
      </trkpt>
      <trkpt lat="42.4408" lon="2.14008">
        <ele>2744.793</ele>
        <time>2018-06-30T11:13:54Z</time>
      </trkpt>
      <trkpt lat="42.44074" lon="2.14014">
        <ele>2745.147</ele>
        <time>2018-06-30T11:14:10Z</time>
      </trkpt>
      <trkpt lat="42.44068" lon="2.14025">
        <ele>2746.139</ele>
        <time>2018-06-30T11:14:22Z</time>
      </trkpt>
      <trkpt lat="42.44057" lon="2.14037">
        <ele>2746.168</ele>
        <time>2018-06-30T11:14:36Z</time>
      </trkpt>
      <trkpt lat="42.44047" lon="2.1405">
        <ele>2747.563</ele>
        <time>2018-06-30T11:14:50Z</time>
      </trkpt>
      <trkpt lat="42.44045" lon="2.14053">
        <ele>2748.522</ele>
        <time>2018-06-30T11:14:54Z</time>
      </trkpt>
      <trkpt lat="42.44043" lon="2.14055">
        <ele>2749.988</ele>
        <time>2018-06-30T11:14:56Z</time>
      </trkpt>
      <trkpt lat="42.44042" lon="2.14058">
        <ele>2748.534</ele>
        <time>2018-06-30T11:14:58Z</time>
      </trkpt>
      <trkpt lat="42.44037" lon="2.14069">
        <ele>2751.466</ele>
        <time>2018-06-30T11:15:07Z</time>
      </trkpt>
      <trkpt lat="42.4403" lon="2.14085">
        <ele>2753.329</ele>
        <time>2018-06-30T11:15:21Z</time>
      </trkpt>
      <trkpt lat="42.44026" lon="2.14097">
        <ele>2755.221</ele>
        <time>2018-06-30T11:15:33Z</time>
      </trkpt>
      <trkpt lat="42.44025" lon="2.14106">
        <ele>2758.108</ele>
        <time>2018-06-30T11:15:40Z</time>
      </trkpt>
      <trkpt lat="42.44025" lon="2.14121">
        <ele>2760.018</ele>
        <time>2018-06-30T11:15:53Z</time>
      </trkpt>
      <trkpt lat="42.44025" lon="2.14134">
        <ele>2761.052</ele>
        <time>2018-06-30T11:16:04Z</time>
      </trkpt>
      <trkpt lat="42.44021" lon="2.14147">
        <ele>2763.424</ele>
        <time>2018-06-30T11:16:17Z</time>
      </trkpt>
      <trkpt lat="42.4402" lon="2.14146">
        <ele>2763.453</ele>
        <time>2018-06-30T11:16:34Z</time>
      </trkpt>
      <trkpt lat="42.4402" lon="2.14147">
        <ele>2764.428</ele>
        <time>2018-06-30T11:17:01Z</time>
      </trkpt>
      <trkpt lat="42.44019" lon="2.14146">
        <ele>2762.487</ele>
        <time>2018-06-30T11:17:26Z</time>
      </trkpt>
      <trkpt lat="42.44018" lon="2.14146">
        <ele>2763.923</ele>
        <time>2018-06-30T11:18:02Z</time>
      </trkpt>
      <trkpt lat="42.44015" lon="2.14145">
        <ele>2760.569</ele>
        <time>2018-06-30T11:18:05Z</time>
      </trkpt>
      <trkpt lat="42.44015" lon="2.14145">
        <ele>2760.524</ele>
        <time>2018-06-30T11:18:06Z</time>
      </trkpt>
      <trkpt lat="42.44012" lon="2.14145">
        <ele>2760.504</ele>
        <time>2018-06-30T11:18:08Z</time>
      </trkpt>
      <trkpt lat="42.44007" lon="2.14145">
        <ele>2757.614</ele>
        <time>2018-06-30T11:18:12Z</time>
      </trkpt>
      <trkpt lat="42.44001" lon="2.14149">
        <ele>2755.208</ele>
        <time>2018-06-30T11:18:16Z</time>
      </trkpt>
      <trkpt lat="42.43993" lon="2.14152">
        <ele>2751.474</ele>
        <time>2018-06-30T11:18:22Z</time>
      </trkpt>
      <trkpt lat="42.43985" lon="2.14156">
        <ele>2751.948</ele>
        <time>2018-06-30T11:18:28Z</time>
      </trkpt>
      <trkpt lat="42.43976" lon="2.14156">
        <ele>2750.44</ele>
        <time>2018-06-30T11:18:40Z</time>
      </trkpt>
      <trkpt lat="42.43963" lon="2.14158">
        <ele>2747.559</ele>
        <time>2018-06-30T11:18:50Z</time>
      </trkpt>
      <trkpt lat="42.43955" lon="2.1416">
        <ele>2746.154</ele>
        <time>2018-06-30T11:19:01Z</time>
      </trkpt>
      <trkpt lat="42.43954" lon="2.1416">
        <ele>2746.163</ele>
        <time>2018-06-30T11:19:03Z</time>
      </trkpt>
      <trkpt lat="42.43949" lon="2.14163">
        <ele>2743.769</ele>
        <time>2018-06-30T11:19:08Z</time>
      </trkpt>
      <trkpt lat="42.43944" lon="2.14164">
        <ele>2739.875</ele>
        <time>2018-06-30T11:19:11Z</time>
      </trkpt>
      <trkpt lat="42.43942" lon="2.14165">
        <ele>2742.347</ele>
        <time>2018-06-30T11:19:13Z</time>
      </trkpt>
      <trkpt lat="42.4394" lon="2.14167">
        <ele>2743.229</ele>
        <time>2018-06-30T11:19:15Z</time>
      </trkpt>
      <trkpt lat="42.43934" lon="2.14168">
        <ele>2740.321</ele>
        <time>2018-06-30T11:19:20Z</time>
      </trkpt>
      <trkpt lat="42.43923" lon="2.14169">
        <ele>2737.408</ele>
        <time>2018-06-30T11:19:36Z</time>
      </trkpt>
      <trkpt lat="42.43921" lon="2.14169">
        <ele>2737.016</ele>
        <time>2018-06-30T11:20:02Z</time>
      </trkpt>
      <trkpt lat="42.4392" lon="2.14169">
        <ele>2736.08</ele>
        <time>2018-06-30T11:20:22Z</time>
      </trkpt>
      <trkpt lat="42.43913" lon="2.14168">
        <ele>2737.062</ele>
        <time>2018-06-30T11:20:32Z</time>
      </trkpt>
      <trkpt lat="42.43911" lon="2.1417">
        <ele>2736.521</ele>
        <time>2018-06-30T11:20:45Z</time>
      </trkpt>
      <trkpt lat="42.43907" lon="2.1417">
        <ele>2734.646</ele>
        <time>2018-06-30T11:20:52Z</time>
      </trkpt>
      <trkpt lat="42.43903" lon="2.14169">
        <ele>2733.165</ele>
        <time>2018-06-30T11:20:57Z</time>
      </trkpt>
      <trkpt lat="42.43901" lon="2.14169">
        <ele>2731.791</ele>
        <time>2018-06-30T11:20:59Z</time>
      </trkpt>
      <trkpt lat="42.43893" lon="2.14169">
        <ele>2731.227</ele>
        <time>2018-06-30T11:21:12Z</time>
      </trkpt>
      <trkpt lat="42.43886" lon="2.1417">
        <ele>2729.869</ele>
        <time>2018-06-30T11:21:32Z</time>
      </trkpt>
      <trkpt lat="42.43881" lon="2.14172">
        <ele>2729.804</ele>
        <time>2018-06-30T11:21:37Z</time>
      </trkpt>
      <trkpt lat="42.43879" lon="2.14172">
        <ele>2727.824</ele>
        <time>2018-06-30T11:21:39Z</time>
      </trkpt>
      <trkpt lat="42.43868" lon="2.14172">
        <ele>2724.508</ele>
        <time>2018-06-30T11:21:50Z</time>
      </trkpt>
      <trkpt lat="42.43865" lon="2.14173">
        <ele>2724.568</ele>
        <time>2018-06-30T11:22:07Z</time>
      </trkpt>
      <trkpt lat="42.43863" lon="2.14172">
        <ele>2724.512</ele>
        <time>2018-06-30T11:22:09Z</time>
      </trkpt>
      <trkpt lat="42.43855" lon="2.14173">
        <ele>2721.124</ele>
        <time>2018-06-30T11:22:15Z</time>
      </trkpt>
      <trkpt lat="42.43853" lon="2.14173">
        <ele>2721.123</ele>
        <time>2018-06-30T11:22:16Z</time>
      </trkpt>
      <trkpt lat="42.43851" lon="2.14172">
        <ele>2719.258</ele>
        <time>2018-06-30T11:22:19Z</time>
      </trkpt>
      <trkpt lat="42.43842" lon="2.14168">
        <ele>2716.897</ele>
        <time>2018-06-30T11:22:34Z</time>
      </trkpt>
      <trkpt lat="42.43838" lon="2.14169">
        <ele>2712.983</ele>
        <time>2018-06-30T11:22:51Z</time>
      </trkpt>
      <trkpt lat="42.43835" lon="2.14166">
        <ele>2714.459</ele>
        <time>2018-06-30T11:22:56Z</time>
      </trkpt>
      <trkpt lat="42.43825" lon="2.1417">
        <ele>2712.941</ele>
        <time>2018-06-30T11:23:13Z</time>
      </trkpt>
      <trkpt lat="42.43824" lon="2.1417">
        <ele>2712.581</ele>
        <time>2018-06-30T11:23:32Z</time>
      </trkpt>
      <trkpt lat="42.43823" lon="2.14169">
        <ele>2712.509</ele>
        <time>2018-06-30T11:23:39Z</time>
      </trkpt>
      <trkpt lat="42.43818" lon="2.14169">
        <ele>2711.008</ele>
        <time>2018-06-30T11:23:44Z</time>
      </trkpt>
      <trkpt lat="42.43817" lon="2.1417">
        <ele>2711.026</ele>
        <time>2018-06-30T11:23:47Z</time>
      </trkpt>
      <trkpt lat="42.43805" lon="2.14176">
        <ele>2712.03</ele>
        <time>2018-06-30T11:24:01Z</time>
      </trkpt>
      <trkpt lat="42.43804" lon="2.14177">
        <ele>2712.072</ele>
        <time>2018-06-30T11:24:02Z</time>
      </trkpt>
      <trkpt lat="42.43799" lon="2.14182">
        <ele>2713.911</ele>
        <time>2018-06-30T11:24:19Z</time>
      </trkpt>
      <trkpt lat="42.43787" lon="2.1419">
        <ele>2716.356</ele>
        <time>2018-06-30T11:24:33Z</time>
      </trkpt>
      <trkpt lat="42.43776" lon="2.14195">
        <ele>2718.755</ele>
        <time>2018-06-30T11:24:46Z</time>
      </trkpt>
      <trkpt lat="42.43764" lon="2.14201">
        <ele>2720.151</ele>
        <time>2018-06-30T11:25:01Z</time>
      </trkpt>
      <trkpt lat="42.43761" lon="2.14202">
        <ele>2722.197</ele>
        <time>2018-06-30T11:25:04Z</time>
      </trkpt>
      <trkpt lat="42.43749" lon="2.14204">
        <ele>2723.523</ele>
        <time>2018-06-30T11:25:17Z</time>
      </trkpt>
      <trkpt lat="42.43738" lon="2.14204">
        <ele>2724.083</ele>
        <time>2018-06-30T11:25:30Z</time>
      </trkpt>
      <trkpt lat="42.43736" lon="2.14205">
        <ele>2724.911</ele>
        <time>2018-06-30T11:25:32Z</time>
      </trkpt>
      <trkpt lat="42.43735" lon="2.14205">
        <ele>2724.008</ele>
        <time>2018-06-30T11:25:36Z</time>
      </trkpt>
      <trkpt lat="42.43726" lon="2.14207">
        <ele>2725.994</ele>
        <time>2018-06-30T11:25:51Z</time>
      </trkpt>
      <trkpt lat="42.43725" lon="2.14207">
        <ele>2725.948</ele>
        <time>2018-06-30T11:25:53Z</time>
      </trkpt>
      <trkpt lat="42.43714" lon="2.14211">
        <ele>2728.87</ele>
        <time>2018-06-30T11:26:07Z</time>
      </trkpt>
      <trkpt lat="42.43706" lon="2.14215">
        <ele>2730.219</ele>
        <time>2018-06-30T11:26:20Z</time>
      </trkpt>
      <trkpt lat="42.43697" lon="2.14224">
        <ele>2733.684</ele>
        <time>2018-06-30T11:26:33Z</time>
      </trkpt>
      <trkpt lat="42.43687" lon="2.14231">
        <ele>2733.613</ele>
        <time>2018-06-30T11:26:47Z</time>
      </trkpt>
      <trkpt lat="42.43678" lon="2.14236">
        <ele>2734.139</ele>
        <time>2018-06-30T11:26:58Z</time>
      </trkpt>
      <trkpt lat="42.43668" lon="2.14243">
        <ele>2735.075</ele>
        <time>2018-06-30T11:27:12Z</time>
      </trkpt>
      <trkpt lat="42.43661" lon="2.14244">
        <ele>2735.525</ele>
        <time>2018-06-30T11:27:26Z</time>
      </trkpt>
      <trkpt lat="42.4366" lon="2.14244">
        <ele>2734.626</ele>
        <time>2018-06-30T11:27:27Z</time>
      </trkpt>
      <trkpt lat="42.43656" lon="2.14243">
        <ele>2735.508</ele>
        <time>2018-06-30T11:27:33Z</time>
      </trkpt>
      <trkpt lat="42.43651" lon="2.14248">
        <ele>2734.608</ele>
        <time>2018-06-30T11:27:45Z</time>
      </trkpt>
      <trkpt lat="42.43646" lon="2.14251">
        <ele>2733.654</ele>
        <time>2018-06-30T11:28:06Z</time>
      </trkpt>
      <trkpt lat="42.43639" lon="2.14254">
        <ele>2733.128</ele>
        <time>2018-06-30T11:28:16Z</time>
      </trkpt>
      <trkpt lat="42.43636" lon="2.14256">
        <ele>2734.67</ele>
        <time>2018-06-30T11:28:21Z</time>
      </trkpt>
      <trkpt lat="42.43636" lon="2.14263">
        <ele>2737.079</ele>
        <time>2018-06-30T11:28:37Z</time>
      </trkpt>
      <trkpt lat="42.43635" lon="2.14269">
        <ele>2739.864</ele>
        <time>2018-06-30T11:28:50Z</time>
      </trkpt>
      <trkpt lat="42.43632" lon="2.14271">
        <ele>2740.873</ele>
        <time>2018-06-30T11:29:06Z</time>
      </trkpt>
      <trkpt lat="42.43626" lon="2.14275">
        <ele>2741.879</ele>
        <time>2018-06-30T11:29:26Z</time>
      </trkpt>
      <trkpt lat="42.43619" lon="2.14281">
        <ele>2743.285</ele>
        <time>2018-06-30T11:29:39Z</time>
      </trkpt>
      <trkpt lat="42.43611" lon="2.14287">
        <ele>2745.139</ele>
        <time>2018-06-30T11:29:53Z</time>
      </trkpt>
      <trkpt lat="42.43606" lon="2.14294">
        <ele>2748.001</ele>
        <time>2018-06-30T11:30:07Z</time>
      </trkpt>
      <trkpt lat="42.43603" lon="2.14296">
        <ele>2750.421</ele>
        <time>2018-06-30T11:30:22Z</time>
      </trkpt>
      <trkpt lat="42.43601" lon="2.14301">
        <ele>2751.908</ele>
        <time>2018-06-30T11:30:39Z</time>
      </trkpt>
      <trkpt lat="42.43595" lon="2.14305">
        <ele>2754.825</ele>
        <time>2018-06-30T11:30:50Z</time>
      </trkpt>
      <trkpt lat="42.43588" lon="2.14309">
        <ele>2755.749</ele>
        <time>2018-06-30T11:31:03Z</time>
      </trkpt>
      <trkpt lat="42.43581" lon="2.14311">
        <ele>2757.651</ele>
        <time>2018-06-30T11:31:18Z</time>
      </trkpt>
      <trkpt lat="42.43579" lon="2.14312">
        <ele>2759.16</ele>
        <time>2018-06-30T11:31:32Z</time>
      </trkpt>
      <trkpt lat="42.43578" lon="2.14312">
        <ele>2758.165</ele>
        <time>2018-06-30T11:31:39Z</time>
      </trkpt>
      <trkpt lat="42.43576" lon="2.14314">
        <ele>2760.534</ele>
        <time>2018-06-30T11:31:53Z</time>
      </trkpt>
      <trkpt lat="42.43575" lon="2.14314">
        <ele>2760.52</ele>
        <time>2018-06-30T11:31:55Z</time>
      </trkpt>
      <trkpt lat="42.43569" lon="2.14315">
        <ele>2763.986</ele>
        <time>2018-06-30T11:32:05Z</time>
      </trkpt>
      <trkpt lat="42.43569" lon="2.14316">
        <ele>2763.943</ele>
        <time>2018-06-30T11:32:06Z</time>
      </trkpt>
      <trkpt lat="42.43569" lon="2.14325">
        <ele>2767.264</ele>
        <time>2018-06-30T11:32:24Z</time>
      </trkpt>
      <trkpt lat="42.43566" lon="2.14328">
        <ele>2769.71</ele>
        <time>2018-06-30T11:32:34Z</time>
      </trkpt>
      <trkpt lat="42.43564" lon="2.14329">
        <ele>2772.508</ele>
        <time>2018-06-30T11:32:45Z</time>
      </trkpt>
      <trkpt lat="42.43563" lon="2.14332">
        <ele>2770.626</ele>
        <time>2018-06-30T11:33:03Z</time>
      </trkpt>
      <trkpt lat="42.43562" lon="2.14333">
        <ele>2772.17</ele>
        <time>2018-06-30T11:33:07Z</time>
      </trkpt>
      <trkpt lat="42.4356" lon="2.1434">
        <ele>2774.942</ele>
        <time>2018-06-30T11:33:21Z</time>
      </trkpt>
      <trkpt lat="42.43557" lon="2.14344">
        <ele>2775.941</ele>
        <time>2018-06-30T11:33:40Z</time>
      </trkpt>
      <trkpt lat="42.43552" lon="2.14344">
        <ele>2776.976</ele>
        <time>2018-06-30T11:33:53Z</time>
      </trkpt>
      <trkpt lat="42.43551" lon="2.14344">
        <ele>2775.975</ele>
        <time>2018-06-30T11:34:05Z</time>
      </trkpt>
      <trkpt lat="42.43548" lon="2.14345">
        <ele>2777.361</ele>
        <time>2018-06-30T11:34:09Z</time>
      </trkpt>
      <trkpt lat="42.43544" lon="2.14354">
        <ele>2778.837</ele>
        <time>2018-06-30T11:34:23Z</time>
      </trkpt>
      <trkpt lat="42.43541" lon="2.14362">
        <ele>2781.782</ele>
        <time>2018-06-30T11:34:33Z</time>
      </trkpt>
      <trkpt lat="42.4354" lon="2.14366">
        <ele>2782.643</ele>
        <time>2018-06-30T11:34:38Z</time>
      </trkpt>
      <trkpt lat="42.43538" lon="2.14371">
        <ele>2781.217</ele>
        <time>2018-06-30T11:34:43Z</time>
      </trkpt>
      <trkpt lat="42.43537" lon="2.14373">
        <ele>2783.608</ele>
        <time>2018-06-30T11:34:49Z</time>
      </trkpt>
      <trkpt lat="42.43535" lon="2.14373">
        <ele>2783.16</ele>
        <time>2018-06-30T11:35:00Z</time>
      </trkpt>
      <trkpt lat="42.43532" lon="2.14371">
        <ele>2781.224</ele>
        <time>2018-06-30T11:35:09Z</time>
      </trkpt>
      <trkpt lat="42.43525" lon="2.14369">
        <ele>2784.196</ele>
        <time>2018-06-30T11:35:21Z</time>
      </trkpt>
      <trkpt lat="42.43523" lon="2.14376">
        <ele>2787.435</ele>
        <time>2018-06-30T11:35:34Z</time>
      </trkpt>
      <trkpt lat="42.43519" lon="2.14378">
        <ele>2790.82</ele>
        <time>2018-06-30T11:35:42Z</time>
      </trkpt>
      <trkpt lat="42.43518" lon="2.14378">
        <ele>2787.989</ele>
        <time>2018-06-30T11:35:44Z</time>
      </trkpt>
      <trkpt lat="42.43518" lon="2.14379">
        <ele>2787.975</ele>
        <time>2018-06-30T11:35:45Z</time>
      </trkpt>
      <trkpt lat="42.43517" lon="2.14379">
        <ele>2790.891</ele>
        <time>2018-06-30T11:35:47Z</time>
      </trkpt>
      <trkpt lat="42.43513" lon="2.14381">
        <ele>2792.721</ele>
        <time>2018-06-30T11:36:01Z</time>
      </trkpt>
      <trkpt lat="42.43512" lon="2.14382">
        <ele>2790.341</ele>
        <time>2018-06-30T11:36:04Z</time>
      </trkpt>
      <trkpt lat="42.43509" lon="2.14384">
        <ele>2792.205</ele>
        <time>2018-06-30T11:36:10Z</time>
      </trkpt>
      <trkpt lat="42.43503" lon="2.14387">
        <ele>2794.608</ele>
        <time>2018-06-30T11:36:25Z</time>
      </trkpt>
      <trkpt lat="42.43501" lon="2.14387">
        <ele>2797.014</ele>
        <time>2018-06-30T11:36:39Z</time>
      </trkpt>
      <trkpt lat="42.43499" lon="2.14388">
        <ele>2797.558</ele>
        <time>2018-06-30T11:36:55Z</time>
      </trkpt>
      <trkpt lat="42.43498" lon="2.14392">
        <ele>2800.48</ele>
        <time>2018-06-30T11:37:07Z</time>
      </trkpt>
      <trkpt lat="42.43501" lon="2.14395">
        <ele>2802.379</ele>
        <time>2018-06-30T11:37:21Z</time>
      </trkpt>
      <trkpt lat="42.435" lon="2.144">
        <ele>2804.794</ele>
        <time>2018-06-30T11:37:34Z</time>
      </trkpt>
      <trkpt lat="42.43499" lon="2.14409">
        <ele>2805.293</ele>
        <time>2018-06-30T11:37:46Z</time>
      </trkpt>
      <trkpt lat="42.43499" lon="2.14409">
        <ele>2806.279</ele>
        <time>2018-06-30T11:38:00Z</time>
      </trkpt>
      <trkpt lat="42.43498" lon="2.14413">
        <ele>2804.385</ele>
        <time>2018-06-30T11:38:14Z</time>
      </trkpt>
      <trkpt lat="42.43497" lon="2.14414">
        <ele>2807.168</ele>
        <time>2018-06-30T11:39:09Z</time>
      </trkpt>
      <trkpt lat="42.43495" lon="2.14413">
        <ele>2807.642</ele>
        <time>2018-06-30T11:39:28Z</time>
      </trkpt>
      <trkpt lat="42.43491" lon="2.14421">
        <ele>2806.726</ele>
        <time>2018-06-30T11:39:44Z</time>
      </trkpt>
      <trkpt lat="42.43491" lon="2.14422">
        <ele>2805.708</ele>
        <time>2018-06-30T11:39:52Z</time>
      </trkpt>
      <trkpt lat="42.43488" lon="2.14426">
        <ele>2804.758</ele>
        <time>2018-06-30T11:39:55Z</time>
      </trkpt>
      <trkpt lat="42.43479" lon="2.14444">
        <ele>2800.952</ele>
        <time>2018-06-30T11:40:07Z</time>
      </trkpt>
      <trkpt lat="42.43471" lon="2.14468">
        <ele>2800.464</ele>
        <time>2018-06-30T11:40:22Z</time>
      </trkpt>
      <trkpt lat="42.43467" lon="2.14486">
        <ele>2800.943</ele>
        <time>2018-06-30T11:40:35Z</time>
      </trkpt>
      <trkpt lat="42.43466" lon="2.14489">
        <ele>2802.398</ele>
        <time>2018-06-30T11:40:37Z</time>
      </trkpt>
      <trkpt lat="42.43463" lon="2.145">
        <ele>2800.917</ele>
        <time>2018-06-30T11:40:44Z</time>
      </trkpt>
      <trkpt lat="42.43463" lon="2.14503">
        <ele>2800.913</ele>
        <time>2018-06-30T11:40:46Z</time>
      </trkpt>
      <trkpt lat="42.43457" lon="2.14528">
        <ele>2801.489</ele>
        <time>2018-06-30T11:41:01Z</time>
      </trkpt>
      <trkpt lat="42.43454" lon="2.14546">
        <ele>2800.475</ele>
        <time>2018-06-30T11:41:17Z</time>
      </trkpt>
      <trkpt lat="42.43453" lon="2.14549">
        <ele>2800.428</ele>
        <time>2018-06-30T11:41:25Z</time>
      </trkpt>
      <trkpt lat="42.43453" lon="2.1455">
        <ele>2800.42</ele>
        <time>2018-06-30T11:41:26Z</time>
      </trkpt>
      <trkpt lat="42.43452" lon="2.14554">
        <ele>2800.408</ele>
        <time>2018-06-30T11:41:34Z</time>
      </trkpt>
      <trkpt lat="42.43452" lon="2.14561">
        <ele>2800.429</ele>
        <time>2018-06-30T11:41:38Z</time>
      </trkpt>
      <trkpt lat="42.43454" lon="2.14567">
        <ele>2800.463</ele>
        <time>2018-06-30T11:41:43Z</time>
      </trkpt>
      <trkpt lat="42.43454" lon="2.14572">
        <ele>2801.975</ele>
        <time>2018-06-30T11:41:47Z</time>
      </trkpt>
      <trkpt lat="42.43454" lon="2.14581">
        <ele>2803.854</ele>
        <time>2018-06-30T11:42:00Z</time>
      </trkpt>
      <trkpt lat="42.43454" lon="2.14592">
        <ele>2805.289</ele>
        <time>2018-06-30T11:42:16Z</time>
      </trkpt>
      <trkpt lat="42.43454" lon="2.14603">
        <ele>2807.118</ele>
        <time>2018-06-30T11:42:25Z</time>
      </trkpt>
      <trkpt lat="42.43452" lon="2.14619">
        <ele>2806.774</ele>
        <time>2018-06-30T11:42:35Z</time>
      </trkpt>
      <trkpt lat="42.43451" lon="2.14622">
        <ele>2807.62</ele>
        <time>2018-06-30T11:42:37Z</time>
      </trkpt>
      <trkpt lat="42.43449" lon="2.14635">
        <ele>2811.092</ele>
        <time>2018-06-30T11:42:48Z</time>
      </trkpt>
      <trkpt lat="42.43448" lon="2.14654">
        <ele>2812.473</ele>
        <time>2018-06-30T11:43:02Z</time>
      </trkpt>
      <trkpt lat="42.43448" lon="2.14672">
        <ele>2813.92</ele>
        <time>2018-06-30T11:43:15Z</time>
      </trkpt>
      <trkpt lat="42.43447" lon="2.14675">
        <ele>2815.308</ele>
        <time>2018-06-30T11:43:19Z</time>
      </trkpt>
      <trkpt lat="42.43447" lon="2.14689">
        <ele>2818.221</ele>
        <time>2018-06-30T11:43:33Z</time>
      </trkpt>
      <trkpt lat="42.43447" lon="2.147">
        <ele>2820.125</ele>
        <time>2018-06-30T11:43:46Z</time>
      </trkpt>
      <trkpt lat="42.43445" lon="2.14706">
        <ele>2821.657</ele>
        <time>2018-06-30T11:44:03Z</time>
      </trkpt>
      <trkpt lat="42.43446" lon="2.14708">
        <ele>2819.696</ele>
        <time>2018-06-30T11:44:18Z</time>
      </trkpt>
      <trkpt lat="42.43446" lon="2.14709">
        <ele>2819.251</ele>
        <time>2018-06-30T11:44:54Z</time>
      </trkpt>
      <trkpt lat="42.43446" lon="2.14709">
        <ele>2819.22</ele>
        <time>2018-06-30T11:45:18Z</time>
      </trkpt>
      <trkpt lat="42.43445" lon="2.1471">
        <ele>2819.216</ele>
        <time>2018-06-30T11:45:41Z</time>
      </trkpt>
      <trkpt lat="42.43445" lon="2.14711">
        <ele>2821.632</ele>
        <time>2018-06-30T11:45:58Z</time>
      </trkpt>
      <trkpt lat="42.43445" lon="2.14712">
        <ele>2820.648</ele>
        <time>2018-06-30T11:46:02Z</time>
      </trkpt>
      <trkpt lat="42.43445" lon="2.14713">
        <ele>2822.061</ele>
        <time>2018-06-30T11:46:13Z</time>
      </trkpt>
      <trkpt lat="42.43447" lon="2.14713">
        <ele>2821.117</ele>
        <time>2018-06-30T11:46:35Z</time>
      </trkpt>
      <trkpt lat="42.43446" lon="2.14714">
        <ele>2820.108</ele>
        <time>2018-06-30T11:46:59Z</time>
      </trkpt>
      <trkpt lat="42.43445" lon="2.14715">
        <ele>2821.636</ele>
        <time>2018-06-30T11:47:32Z</time>
      </trkpt>
      <trkpt lat="42.4344" lon="2.14721">
        <ele>2821.14</ele>
        <time>2018-06-30T11:47:46Z</time>
      </trkpt>
      <trkpt lat="42.43439" lon="2.14723">
        <ele>2820.662</ele>
        <time>2018-06-30T11:47:59Z</time>
      </trkpt>
      <trkpt lat="42.43439" lon="2.14724">
        <ele>2822.581</ele>
        <time>2018-06-30T11:48:07Z</time>
      </trkpt>
      <trkpt lat="42.43438" lon="2.14724">
        <ele>2820.676</ele>
        <time>2018-06-30T11:48:12Z</time>
      </trkpt>
      <trkpt lat="42.43438" lon="2.14724">
        <ele>2822.095</ele>
        <time>2018-06-30T11:48:30Z</time>
      </trkpt>
      <trkpt lat="42.43435" lon="2.14725">
        <ele>2820.691</ele>
        <time>2018-06-30T11:48:32Z</time>
      </trkpt>
      <trkpt lat="42.43433" lon="2.14725">
        <ele>2819.287</ele>
        <time>2018-06-30T11:48:34Z</time>
      </trkpt>
      <trkpt lat="42.4343" lon="2.14727">
        <ele>2819.243</ele>
        <time>2018-06-30T11:48:36Z</time>
      </trkpt>
      <trkpt lat="42.43426" lon="2.14731">
        <ele>2817.764</ele>
        <time>2018-06-30T11:48:40Z</time>
      </trkpt>
      <trkpt lat="42.43418" lon="2.14736">
        <ele>2814.81</ele>
        <time>2018-06-30T11:48:48Z</time>
      </trkpt>
      <trkpt lat="42.43417" lon="2.14737">
        <ele>2814.808</ele>
        <time>2018-06-30T11:49:25Z</time>
      </trkpt>
      <trkpt lat="42.43408" lon="2.14741">
        <ele>2813.426</ele>
        <time>2018-06-30T11:49:37Z</time>
      </trkpt>
      <trkpt lat="42.434" lon="2.14743">
        <ele>2811.93</ele>
        <time>2018-06-30T11:49:53Z</time>
      </trkpt>
      <trkpt lat="42.43391" lon="2.14747">
        <ele>2810.562</ele>
        <time>2018-06-30T11:50:05Z</time>
      </trkpt>
      <trkpt lat="42.43383" lon="2.1475">
        <ele>2807.621</ele>
        <time>2018-06-30T11:50:12Z</time>
      </trkpt>
      <trkpt lat="42.43371" lon="2.14752">
        <ele>2804.316</ele>
        <time>2018-06-30T11:50:24Z</time>
      </trkpt>
      <trkpt lat="42.43369" lon="2.14753">
        <ele>2803.825</ele>
        <time>2018-06-30T11:50:26Z</time>
      </trkpt>
      <trkpt lat="42.4336" lon="2.14755">
        <ele>2800.461</ele>
        <time>2018-06-30T11:50:38Z</time>
      </trkpt>
      <trkpt lat="42.43354" lon="2.14756">
        <ele>2798.037</ele>
        <time>2018-06-30T11:50:51Z</time>
      </trkpt>
      <trkpt lat="42.43344" lon="2.14757">
        <ele>2795.131</ele>
        <time>2018-06-30T11:51:02Z</time>
      </trkpt>
      <trkpt lat="42.43339" lon="2.14757">
        <ele>2791.861</ele>
        <time>2018-06-30T11:51:08Z</time>
      </trkpt>
      <trkpt lat="42.43336" lon="2.1476">
        <ele>2793.707</ele>
        <time>2018-06-30T11:51:11Z</time>
      </trkpt>
      <trkpt lat="42.43331" lon="2.14764">
        <ele>2792.708</ele>
        <time>2018-06-30T11:51:16Z</time>
      </trkpt>
      <trkpt lat="42.4333" lon="2.14765">
        <ele>2794.215</ele>
        <time>2018-06-30T11:51:18Z</time>
      </trkpt>
      <trkpt lat="42.43323" lon="2.14768">
        <ele>2790.329</ele>
        <time>2018-06-30T11:51:25Z</time>
      </trkpt>
      <trkpt lat="42.43322" lon="2.14768">
        <ele>2790.321</ele>
        <time>2018-06-30T11:51:26Z</time>
      </trkpt>
      <trkpt lat="42.4332" lon="2.14769">
        <ele>2792.29</ele>
        <time>2018-06-30T11:51:28Z</time>
      </trkpt>
      <trkpt lat="42.43318" lon="2.1477">
        <ele>2792.225</ele>
        <time>2018-06-30T11:51:35Z</time>
      </trkpt>
      <trkpt lat="42.43316" lon="2.1477">
        <ele>2790.824</ele>
        <time>2018-06-30T11:51:37Z</time>
      </trkpt>
      <trkpt lat="42.43307" lon="2.14774">
        <ele>2787.45</ele>
        <time>2018-06-30T11:51:50Z</time>
      </trkpt>
      <trkpt lat="42.433" lon="2.14778">
        <ele>2788.966</ele>
        <time>2018-06-30T11:51:58Z</time>
      </trkpt>
      <trkpt lat="42.43297" lon="2.1478">
        <ele>2787.081</ele>
        <time>2018-06-30T11:52:01Z</time>
      </trkpt>
      <trkpt lat="42.43287" lon="2.14786">
        <ele>2786.561</ele>
        <time>2018-06-30T11:52:13Z</time>
      </trkpt>
      <trkpt lat="42.43285" lon="2.14787">
        <ele>2786.517</ele>
        <time>2018-06-30T11:52:15Z</time>
      </trkpt>
      <trkpt lat="42.43278" lon="2.14789">
        <ele>2787.008</ele>
        <time>2018-06-30T11:52:25Z</time>
      </trkpt>
      <trkpt lat="42.43267" lon="2.14795">
        <ele>2786.58</ele>
        <time>2018-06-30T11:52:41Z</time>
      </trkpt>
      <trkpt lat="42.43255" lon="2.148">
        <ele>2784.644</ele>
        <time>2018-06-30T11:52:55Z</time>
      </trkpt>
      <trkpt lat="42.43247" lon="2.14799">
        <ele>2785.016</ele>
        <time>2018-06-30T11:53:04Z</time>
      </trkpt>
      <trkpt lat="42.43245" lon="2.148">
        <ele>2785.045</ele>
        <time>2018-06-30T11:53:06Z</time>
      </trkpt>
      <trkpt lat="42.43238" lon="2.14802">
        <ele>2782.61</ele>
        <time>2018-06-30T11:53:12Z</time>
      </trkpt>
      <trkpt lat="42.43226" lon="2.14807">
        <ele>2784.119</ele>
        <time>2018-06-30T11:53:25Z</time>
      </trkpt>
      <trkpt lat="42.43223" lon="2.14808">
        <ele>2783.115</ele>
        <time>2018-06-30T11:53:27Z</time>
      </trkpt>
      <trkpt lat="42.43221" lon="2.14812">
        <ele>2783.191</ele>
        <time>2018-06-30T11:53:31Z</time>
      </trkpt>
      <trkpt lat="42.4322" lon="2.14814">
        <ele>2784.675</ele>
        <time>2018-06-30T11:53:33Z</time>
      </trkpt>
      <trkpt lat="42.43214" lon="2.14819">
        <ele>2785.028</ele>
        <time>2018-06-30T11:53:46Z</time>
      </trkpt>
      <trkpt lat="42.43212" lon="2.14819">
        <ele>2785.02</ele>
        <time>2018-06-30T11:53:48Z</time>
      </trkpt>
      <trkpt lat="42.43209" lon="2.14819">
        <ele>2783.608</ele>
        <time>2018-06-30T11:53:51Z</time>
      </trkpt>
      <trkpt lat="42.43208" lon="2.14819">
        <ele>2783.649</ele>
        <time>2018-06-30T11:53:52Z</time>
      </trkpt>
      <trkpt lat="42.43201" lon="2.14823">
        <ele>2784.683</ele>
        <time>2018-06-30T11:54:06Z</time>
      </trkpt>
      <trkpt lat="42.43195" lon="2.14826">
        <ele>2782.125</ele>
        <time>2018-06-30T11:54:15Z</time>
      </trkpt>
      <trkpt lat="42.43193" lon="2.14827">
        <ele>2784.124</ele>
        <time>2018-06-30T11:54:17Z</time>
      </trkpt>
      <trkpt lat="42.4319" lon="2.14827">
        <ele>2781.779</ele>
        <time>2018-06-30T11:54:19Z</time>
      </trkpt>
      <trkpt lat="42.43183" lon="2.14831">
        <ele>2784.628</ele>
        <time>2018-06-30T11:54:25Z</time>
      </trkpt>
      <trkpt lat="42.4317" lon="2.14845">
        <ele>2780.714</ele>
        <time>2018-06-30T11:54:40Z</time>
      </trkpt>
      <trkpt lat="42.43168" lon="2.14844">
        <ele>2780.71</ele>
        <time>2018-06-30T11:54:53Z</time>
      </trkpt>
      <trkpt lat="42.43167" lon="2.14845">
        <ele>2780.731</ele>
        <time>2018-06-30T11:55:00Z</time>
      </trkpt>
      <trkpt lat="42.43164" lon="2.14846">
        <ele>2779.361</ele>
        <time>2018-06-30T11:55:03Z</time>
      </trkpt>
      <trkpt lat="42.43161" lon="2.14843">
        <ele>2776.407</ele>
        <time>2018-06-30T11:55:16Z</time>
      </trkpt>
      <trkpt lat="42.43154" lon="2.14845">
        <ele>2775.408</ele>
        <time>2018-06-30T11:55:29Z</time>
      </trkpt>
      <trkpt lat="42.4315" lon="2.14847">
        <ele>2772.175</ele>
        <time>2018-06-30T11:55:33Z</time>
      </trkpt>
      <trkpt lat="42.43149" lon="2.14847">
        <ele>2772.149</ele>
        <time>2018-06-30T11:55:34Z</time>
      </trkpt>
      <trkpt lat="42.43141" lon="2.14849">
        <ele>2771.121</ele>
        <time>2018-06-30T11:55:42Z</time>
      </trkpt>
      <trkpt lat="42.43132" lon="2.14853">
        <ele>2769.76</ele>
        <time>2018-06-30T11:55:57Z</time>
      </trkpt>
      <trkpt lat="42.43128" lon="2.14855">
        <ele>2770.695</ele>
        <time>2018-06-30T11:56:01Z</time>
      </trkpt>
      <trkpt lat="42.43126" lon="2.14855">
        <ele>2769.254</ele>
        <time>2018-06-30T11:56:03Z</time>
      </trkpt>
      <trkpt lat="42.43115" lon="2.14861">
        <ele>2767.71</ele>
        <time>2018-06-30T11:56:16Z</time>
      </trkpt>
      <trkpt lat="42.43109" lon="2.14867">
        <ele>2769.226</ele>
        <time>2018-06-30T11:56:23Z</time>
      </trkpt>
      <trkpt lat="42.43106" lon="2.14869">
        <ele>2767.273</ele>
        <time>2018-06-30T11:56:26Z</time>
      </trkpt>
      <trkpt lat="42.43098" lon="2.14872">
        <ele>2768.785</ele>
        <time>2018-06-30T11:56:33Z</time>
      </trkpt>
      <trkpt lat="42.43092" lon="2.14874">
        <ele>2767.713</ele>
        <time>2018-06-30T11:56:39Z</time>
      </trkpt>
      <trkpt lat="42.43089" lon="2.14876">
        <ele>2769.208</ele>
        <time>2018-06-30T11:56:42Z</time>
      </trkpt>
      <trkpt lat="42.43085" lon="2.14879">
        <ele>2768.259</ele>
        <time>2018-06-30T11:56:50Z</time>
      </trkpt>
      <trkpt lat="42.43077" lon="2.14882">
        <ele>2765.813</ele>
        <time>2018-06-30T11:57:02Z</time>
      </trkpt>
      <trkpt lat="42.43072" lon="2.14883">
        <ele>2767.285</ele>
        <time>2018-06-30T11:57:07Z</time>
      </trkpt>
      <trkpt lat="42.43069" lon="2.14883">
        <ele>2764.894</ele>
        <time>2018-06-30T11:57:10Z</time>
      </trkpt>
      <trkpt lat="42.43065" lon="2.14884">
        <ele>2767.259</ele>
        <time>2018-06-30T11:57:15Z</time>
      </trkpt>
      <trkpt lat="42.43061" lon="2.14884">
        <ele>2763.918</ele>
        <time>2018-06-30T11:57:23Z</time>
      </trkpt>
      <trkpt lat="42.43057" lon="2.14884">
        <ele>2762.064</ele>
        <time>2018-06-30T11:57:30Z</time>
      </trkpt>
      <trkpt lat="42.43049" lon="2.14886">
        <ele>2758.68</ele>
        <time>2018-06-30T11:57:42Z</time>
      </trkpt>
      <trkpt lat="42.43046" lon="2.14886">
        <ele>2758.626</ele>
        <time>2018-06-30T11:57:46Z</time>
      </trkpt>
      <trkpt lat="42.43039" lon="2.14892">
        <ele>2757.247</ele>
        <time>2018-06-30T11:57:53Z</time>
      </trkpt>
      <trkpt lat="42.43031" lon="2.14897">
        <ele>2754.811</ele>
        <time>2018-06-30T11:58:03Z</time>
      </trkpt>
      <trkpt lat="42.43024" lon="2.14902">
        <ele>2752.808</ele>
        <time>2018-06-30T11:58:11Z</time>
      </trkpt>
      <trkpt lat="42.43021" lon="2.14904">
        <ele>2750.974</ele>
        <time>2018-06-30T11:58:15Z</time>
      </trkpt>
      <trkpt lat="42.43016" lon="2.14907">
        <ele>2748.578</ele>
        <time>2018-06-30T11:58:20Z</time>
      </trkpt>
      <trkpt lat="42.43005" lon="2.14917">
        <ele>2746.62</ele>
        <time>2018-06-30T11:58:33Z</time>
      </trkpt>
      <trkpt lat="42.43002" lon="2.14919">
        <ele>2746.119</ele>
        <time>2018-06-30T11:58:44Z</time>
      </trkpt>
      <trkpt lat="42.42995" lon="2.14921">
        <ele>2746.114</ele>
        <time>2018-06-30T11:58:58Z</time>
      </trkpt>
      <trkpt lat="42.42991" lon="2.14923">
        <ele>2743.793</ele>
        <time>2018-06-30T11:59:02Z</time>
      </trkpt>
      <trkpt lat="42.42977" lon="2.14927">
        <ele>2742.359</ele>
        <time>2018-06-30T11:59:18Z</time>
      </trkpt>
      <trkpt lat="42.42968" lon="2.1493">
        <ele>2740.325</ele>
        <time>2018-06-30T11:59:26Z</time>
      </trkpt>
      <trkpt lat="42.42965" lon="2.14932">
        <ele>2744.235</ele>
        <time>2018-06-30T11:59:31Z</time>
      </trkpt>
      <trkpt lat="42.42964" lon="2.14932">
        <ele>2744.286</ele>
        <time>2018-06-30T11:59:32Z</time>
      </trkpt>
      <trkpt lat="42.42962" lon="2.14934">
        <ele>2741.814</ele>
        <time>2018-06-30T11:59:36Z</time>
      </trkpt>
      <trkpt lat="42.42961" lon="2.14934">
        <ele>2740.308</ele>
        <time>2018-06-30T11:59:38Z</time>
      </trkpt>
      <trkpt lat="42.42957" lon="2.14934">
        <ele>2737.015</ele>
        <time>2018-06-30T11:59:47Z</time>
      </trkpt>
      <trkpt lat="42.42952" lon="2.14935">
        <ele>2736.089</ele>
        <time>2018-06-30T11:59:55Z</time>
      </trkpt>
      <trkpt lat="42.42943" lon="2.1494">
        <ele>2732.691</ele>
        <time>2018-06-30T12:00:09Z</time>
      </trkpt>
      <trkpt lat="42.42938" lon="2.1494">
        <ele>2730.25</ele>
        <time>2018-06-30T12:00:17Z</time>
      </trkpt>
      <trkpt lat="42.42923" lon="2.14955">
        <ele>2728.825</ele>
        <time>2018-06-30T12:00:35Z</time>
      </trkpt>
      <trkpt lat="42.42917" lon="2.14964">
        <ele>2725.924</ele>
        <time>2018-06-30T12:00:47Z</time>
      </trkpt>
      <trkpt lat="42.42916" lon="2.14964">
        <ele>2725.97</ele>
        <time>2018-06-30T12:00:48Z</time>
      </trkpt>
      <trkpt lat="42.42916" lon="2.14967">
        <ele>2727.456</ele>
        <time>2018-06-30T12:00:51Z</time>
      </trkpt>
      <trkpt lat="42.42915" lon="2.14969">
        <ele>2725.493</ele>
        <time>2018-06-30T12:00:54Z</time>
      </trkpt>
      <trkpt lat="42.42911" lon="2.14975">
        <ele>2723.065</ele>
        <time>2018-06-30T12:01:07Z</time>
      </trkpt>
      <trkpt lat="42.42909" lon="2.14977">
        <ele>2722.521</ele>
        <time>2018-06-30T12:01:10Z</time>
      </trkpt>
      <trkpt lat="42.42906" lon="2.14979">
        <ele>2724.008</ele>
        <time>2018-06-30T12:01:26Z</time>
      </trkpt>
      <trkpt lat="42.42904" lon="2.1498">
        <ele>2722.511</ele>
        <time>2018-06-30T12:01:33Z</time>
      </trkpt>
      <trkpt lat="42.42895" lon="2.1499">
        <ele>2719.265</ele>
        <time>2018-06-30T12:01:44Z</time>
      </trkpt>
      <trkpt lat="42.42893" lon="2.14992">
        <ele>2719.277</ele>
        <time>2018-06-30T12:01:47Z</time>
      </trkpt>
      <trkpt lat="42.42891" lon="2.14994">
        <ele>2717.326</ele>
        <time>2018-06-30T12:01:49Z</time>
      </trkpt>
      <trkpt lat="42.42887" lon="2.14997">
        <ele>2717.721</ele>
        <time>2018-06-30T12:01:54Z</time>
      </trkpt>
      <trkpt lat="42.42884" lon="2.15003">
        <ele>2713.43</ele>
        <time>2018-06-30T12:02:01Z</time>
      </trkpt>
      <trkpt lat="42.42883" lon="2.15003">
        <ele>2710.026</ele>
        <time>2018-06-30T12:02:02Z</time>
      </trkpt>
      <trkpt lat="42.42881" lon="2.15003">
        <ele>2710.072</ele>
        <time>2018-06-30T12:02:03Z</time>
      </trkpt>
      <trkpt lat="42.42879" lon="2.15007">
        <ele>2712.566</ele>
        <time>2018-06-30T12:02:06Z</time>
      </trkpt>
      <trkpt lat="42.42874" lon="2.15012">
        <ele>2709.629</ele>
        <time>2018-06-30T12:02:13Z</time>
      </trkpt>
      <trkpt lat="42.4287" lon="2.15013">
        <ele>2707.621</ele>
        <time>2018-06-30T12:02:16Z</time>
      </trkpt>
      <trkpt lat="42.42866" lon="2.15013">
        <ele>2707.608</ele>
        <time>2018-06-30T12:02:19Z</time>
      </trkpt>
      <trkpt lat="42.42864" lon="2.15016">
        <ele>2710.058</ele>
        <time>2018-06-30T12:02:22Z</time>
      </trkpt>
      <trkpt lat="42.42861" lon="2.15023">
        <ele>2709.122</ele>
        <time>2018-06-30T12:02:30Z</time>
      </trkpt>
      <trkpt lat="42.4286" lon="2.15025">
        <ele>2708.114</ele>
        <time>2018-06-30T12:02:38Z</time>
      </trkpt>
      <trkpt lat="42.42857" lon="2.15027">
        <ele>2710.093</ele>
        <time>2018-06-30T12:02:43Z</time>
      </trkpt>
      <trkpt lat="42.42852" lon="2.15033">
        <ele>2707.618</ele>
        <time>2018-06-30T12:02:54Z</time>
      </trkpt>
      <trkpt lat="42.42851" lon="2.15035">
        <ele>2708.617</ele>
        <time>2018-06-30T12:02:58Z</time>
      </trkpt>
      <trkpt lat="42.42851" lon="2.15035">
        <ele>2710.013</ele>
        <time>2018-06-30T12:03:02Z</time>
      </trkpt>
      <trkpt lat="42.4285" lon="2.15038">
        <ele>2706.279</ele>
        <time>2018-06-30T12:03:05Z</time>
      </trkpt>
      <trkpt lat="42.42849" lon="2.1504">
        <ele>2706.273</ele>
        <time>2018-06-30T12:03:06Z</time>
      </trkpt>
      <trkpt lat="42.42846" lon="2.15046">
        <ele>2701.985</ele>
        <time>2018-06-30T12:03:10Z</time>
      </trkpt>
      <trkpt lat="42.42845" lon="2.15047">
        <ele>2701.913</ele>
        <time>2018-06-30T12:03:11Z</time>
      </trkpt>
      <trkpt lat="42.42842" lon="2.1505">
        <ele>2703.308</ele>
        <time>2018-06-30T12:03:13Z</time>
      </trkpt>
      <trkpt lat="42.4284" lon="2.15052">
        <ele>2701.439</ele>
        <time>2018-06-30T12:03:15Z</time>
      </trkpt>
      <trkpt lat="42.42834" lon="2.15061">
        <ele>2701.483</ele>
        <time>2018-06-30T12:03:22Z</time>
      </trkpt>
      <trkpt lat="42.42832" lon="2.15065">
        <ele>2698.525</ele>
        <time>2018-06-30T12:03:25Z</time>
      </trkpt>
      <trkpt lat="42.42826" lon="2.15075">
        <ele>2696.634</ele>
        <time>2018-06-30T12:03:40Z</time>
      </trkpt>
      <trkpt lat="42.42826" lon="2.15075">
        <ele>2696.619</ele>
        <time>2018-06-30T12:03:42Z</time>
      </trkpt>
      <trkpt lat="42.42821" lon="2.15082">
        <ele>2695.128</ele>
        <time>2018-06-30T12:03:48Z</time>
      </trkpt>
      <trkpt lat="42.4282" lon="2.15085">
        <ele>2699.544</ele>
        <time>2018-06-30T12:03:50Z</time>
      </trkpt>
      <trkpt lat="42.42819" lon="2.15086">
        <ele>2699.54</ele>
        <time>2018-06-30T12:03:51Z</time>
      </trkpt>
      <trkpt lat="42.42817" lon="2.15089">
        <ele>2698.051</ele>
        <time>2018-06-30T12:03:53Z</time>
      </trkpt>
      <trkpt lat="42.42814" lon="2.15098">
        <ele>2694.701</ele>
        <time>2018-06-30T12:03:58Z</time>
      </trkpt>
      <trkpt lat="42.42812" lon="2.15101">
        <ele>2691.311</ele>
        <time>2018-06-30T12:04:01Z</time>
      </trkpt>
      <trkpt lat="42.42811" lon="2.15102">
        <ele>2691.308</ele>
        <time>2018-06-30T12:04:02Z</time>
      </trkpt>
      <trkpt lat="42.42808" lon="2.15106">
        <ele>2686.587</ele>
        <time>2018-06-30T12:04:05Z</time>
      </trkpt>
      <trkpt lat="42.42807" lon="2.15107">
        <ele>2686.511</ele>
        <time>2018-06-30T12:04:06Z</time>
      </trkpt>
      <trkpt lat="42.42802" lon="2.15114">
        <ele>2689.463</ele>
        <time>2018-06-30T12:04:11Z</time>
      </trkpt>
      <trkpt lat="42.42801" lon="2.15116">
        <ele>2689.412</ele>
        <time>2018-06-30T12:04:12Z</time>
      </trkpt>
      <trkpt lat="42.428" lon="2.15117">
        <ele>2687.927</ele>
        <time>2018-06-30T12:04:21Z</time>
      </trkpt>
      <trkpt lat="42.42799" lon="2.15117">
        <ele>2687.996</ele>
        <time>2018-06-30T12:04:23Z</time>
      </trkpt>
      <trkpt lat="42.42797" lon="2.15122">
        <ele>2685.582</ele>
        <time>2018-06-30T12:04:26Z</time>
      </trkpt>
      <trkpt lat="42.42793" lon="2.15131">
        <ele>2682.248</ele>
        <time>2018-06-30T12:04:31Z</time>
      </trkpt>
      <trkpt lat="42.42792" lon="2.15133">
        <ele>2682.221</ele>
        <time>2018-06-30T12:04:32Z</time>
      </trkpt>
      <trkpt lat="42.42787" lon="2.15139">
        <ele>2683.641</ele>
        <time>2018-06-30T12:04:36Z</time>
      </trkpt>
      <trkpt lat="42.42782" lon="2.15149">
        <ele>2681.705</ele>
        <time>2018-06-30T12:04:50Z</time>
      </trkpt>
      <trkpt lat="42.42775" lon="2.15162">
        <ele>2677.408</ele>
        <time>2018-06-30T12:04:59Z</time>
      </trkpt>
      <trkpt lat="42.42774" lon="2.15164">
        <ele>2677.454</ele>
        <time>2018-06-30T12:05:00Z</time>
      </trkpt>
      <trkpt lat="42.42771" lon="2.15167">
        <ele>2678.838</ele>
        <time>2018-06-30T12:05:02Z</time>
      </trkpt>
      <trkpt lat="42.42766" lon="2.15175">
        <ele>2678.32</ele>
        <time>2018-06-30T12:05:10Z</time>
      </trkpt>
      <trkpt lat="42.42763" lon="2.15178">
        <ele>2677.879</ele>
        <time>2018-06-30T12:05:13Z</time>
      </trkpt>
      <trkpt lat="42.4276" lon="2.15186">
        <ele>2678.824</ele>
        <time>2018-06-30T12:05:27Z</time>
      </trkpt>
      <trkpt lat="42.42758" lon="2.15188">
        <ele>2677.483</ele>
        <time>2018-06-30T12:05:32Z</time>
      </trkpt>
      <trkpt lat="42.42751" lon="2.1521">
        <ele>2675.049</ele>
        <time>2018-06-30T12:05:44Z</time>
      </trkpt>
      <trkpt lat="42.42745" lon="2.15228">
        <ele>2673.095</ele>
        <time>2018-06-30T12:05:55Z</time>
      </trkpt>
      <trkpt lat="42.42744" lon="2.15235">
        <ele>2669.756</ele>
        <time>2018-06-30T12:06:01Z</time>
      </trkpt>
      <trkpt lat="42.42744" lon="2.15236">
        <ele>2669.759</ele>
        <time>2018-06-30T12:06:02Z</time>
      </trkpt>
      <trkpt lat="42.42743" lon="2.15238">
        <ele>2671.114</ele>
        <time>2018-06-30T12:06:05Z</time>
      </trkpt>
      <trkpt lat="42.42741" lon="2.15242">
        <ele>2670.208</ele>
        <time>2018-06-30T12:06:25Z</time>
      </trkpt>
      <trkpt lat="42.42739" lon="2.15247">
        <ele>2671.177</ele>
        <time>2018-06-30T12:06:47Z</time>
      </trkpt>
      <trkpt lat="42.42739" lon="2.15247">
        <ele>2674.011</ele>
        <time>2018-06-30T12:07:04Z</time>
      </trkpt>
      <trkpt lat="42.42736" lon="2.15251">
        <ele>2671.153</ele>
        <time>2018-06-30T12:07:09Z</time>
      </trkpt>
      <trkpt lat="42.42732" lon="2.15258">
        <ele>2673.062</ele>
        <time>2018-06-30T12:07:15Z</time>
      </trkpt>
      <trkpt lat="42.42731" lon="2.15262">
        <ele>2676.957</ele>
        <time>2018-06-30T12:07:18Z</time>
      </trkpt>
      <trkpt lat="42.4273" lon="2.15262">
        <ele>2676.966</ele>
        <time>2018-06-30T12:07:19Z</time>
      </trkpt>
      <trkpt lat="42.42728" lon="2.15263">
        <ele>2672.692</ele>
        <time>2018-06-30T12:07:21Z</time>
      </trkpt>
      <trkpt lat="42.42726" lon="2.15263">
        <ele>2669.728</ele>
        <time>2018-06-30T12:07:24Z</time>
      </trkpt>
      <trkpt lat="42.42725" lon="2.15263">
        <ele>2673.077</ele>
        <time>2018-06-30T12:07:25Z</time>
      </trkpt>
      <trkpt lat="42.42724" lon="2.15264">
        <ele>2676.461</ele>
        <time>2018-06-30T12:07:26Z</time>
      </trkpt>
      <trkpt lat="42.42724" lon="2.15264">
        <ele>2676.427</ele>
        <time>2018-06-30T12:07:27Z</time>
      </trkpt>
      <trkpt lat="42.42724" lon="2.15267">
        <ele>2678.808</ele>
        <time>2018-06-30T12:07:30Z</time>
      </trkpt>
      <trkpt lat="42.42724" lon="2.15271">
        <ele>2679.349</ele>
        <time>2018-06-30T12:07:35Z</time>
      </trkpt>
      <trkpt lat="42.42723" lon="2.15276">
        <ele>2681.283</ele>
        <time>2018-06-30T12:07:39Z</time>
      </trkpt>
      <trkpt lat="42.42724" lon="2.15278">
        <ele>2679.815</ele>
        <time>2018-06-30T12:07:42Z</time>
      </trkpt>
      <trkpt lat="42.42722" lon="2.15281">
        <ele>2676.474</ele>
        <time>2018-06-30T12:07:46Z</time>
      </trkpt>
      <trkpt lat="42.42719" lon="2.15285">
        <ele>2680.719</ele>
        <time>2018-06-30T12:07:51Z</time>
      </trkpt>
      <trkpt lat="42.42719" lon="2.15285">
        <ele>2681.728</ele>
        <time>2018-06-30T12:07:54Z</time>
      </trkpt>
      <trkpt lat="42.4272" lon="2.15286">
        <ele>2680.714</ele>
        <time>2018-06-30T12:08:13Z</time>
      </trkpt>
      <trkpt lat="42.42718" lon="2.15291">
        <ele>2677.48</ele>
        <time>2018-06-30T12:08:20Z</time>
      </trkpt>
      <trkpt lat="42.42717" lon="2.15293">
        <ele>2682.255</ele>
        <time>2018-06-30T12:08:22Z</time>
      </trkpt>
      <trkpt lat="42.42716" lon="2.15294">
        <ele>2685.507</ele>
        <time>2018-06-30T12:08:24Z</time>
      </trkpt>
      <trkpt lat="42.42716" lon="2.15295">
        <ele>2685.517</ele>
        <time>2018-06-30T12:08:25Z</time>
      </trkpt>
      <trkpt lat="42.42717" lon="2.15306">
        <ele>2682.708</ele>
        <time>2018-06-30T12:08:38Z</time>
      </trkpt>
      <trkpt lat="42.42717" lon="2.15308">
        <ele>2686.097</ele>
        <time>2018-06-30T12:08:40Z</time>
      </trkpt>
      <trkpt lat="42.42716" lon="2.15314">
        <ele>2689.991</ele>
        <time>2018-06-30T12:08:48Z</time>
      </trkpt>
      <trkpt lat="42.42716" lon="2.15318">
        <ele>2688.953</ele>
        <time>2018-06-30T12:08:53Z</time>
      </trkpt>
      <trkpt lat="42.42714" lon="2.15323">
        <ele>2688.442</ele>
        <time>2018-06-30T12:09:07Z</time>
      </trkpt>
      <trkpt lat="42.42715" lon="2.15326">
        <ele>2689.967</ele>
        <time>2018-06-30T12:09:22Z</time>
      </trkpt>
      <trkpt lat="42.42714" lon="2.15329">
        <ele>2692.746</ele>
        <time>2018-06-30T12:09:26Z</time>
      </trkpt>
      <trkpt lat="42.42714" lon="2.15331">
        <ele>2694.282</ele>
        <time>2018-06-30T12:09:28Z</time>
      </trkpt>
      <trkpt lat="42.42713" lon="2.15332">
        <ele>2690.348</ele>
        <time>2018-06-30T12:09:30Z</time>
      </trkpt>
      <trkpt lat="42.42713" lon="2.15333">
        <ele>2689.982</ele>
        <time>2018-06-30T12:09:31Z</time>
      </trkpt>
      <trkpt lat="42.42712" lon="2.15336">
        <ele>2692.343</ele>
        <time>2018-06-30T12:09:35Z</time>
      </trkpt>
      <trkpt lat="42.42713" lon="2.1534">
        <ele>2694.217</ele>
        <time>2018-06-30T12:09:40Z</time>
      </trkpt>
      <trkpt lat="42.42713" lon="2.15347">
        <ele>2695.608</ele>
        <time>2018-06-30T12:09:55Z</time>
      </trkpt>
      <trkpt lat="42.42711" lon="2.15352">
        <ele>2696.61</ele>
        <time>2018-06-30T12:10:04Z</time>
      </trkpt>
      <trkpt lat="42.42711" lon="2.15353">
        <ele>2698.014</ele>
        <time>2018-06-30T12:10:11Z</time>
      </trkpt>
      <trkpt lat="42.42711" lon="2.15353">
        <ele>2694.746</ele>
        <time>2018-06-30T12:10:12Z</time>
      </trkpt>
      <trkpt lat="42.42711" lon="2.15354">
        <ele>2696.615</ele>
        <time>2018-06-30T12:10:13Z</time>
      </trkpt>
      <trkpt lat="42.4271" lon="2.15355">
        <ele>2697.63</ele>
        <time>2018-06-30T12:10:15Z</time>
      </trkpt>
      <trkpt lat="42.42708" lon="2.15358">
        <ele>2700.449</ele>
        <time>2018-06-30T12:10:22Z</time>
      </trkpt>
      <trkpt lat="42.42706" lon="2.1536">
        <ele>2698.055</ele>
        <time>2018-06-30T12:10:25Z</time>
      </trkpt>
      <trkpt lat="42.42706" lon="2.15362">
        <ele>2700.471</ele>
        <time>2018-06-30T12:10:27Z</time>
      </trkpt>
      <trkpt lat="42.42705" lon="2.15369">
        <ele>2701.439</ele>
        <time>2018-06-30T12:10:42Z</time>
      </trkpt>
      <trkpt lat="42.42703" lon="2.15374">
        <ele>2701.901</ele>
        <time>2018-06-30T12:10:48Z</time>
      </trkpt>
      <trkpt lat="42.427" lon="2.15389">
        <ele>2704.321</ele>
        <time>2018-06-30T12:11:04Z</time>
      </trkpt>
      <trkpt lat="42.42695" lon="2.15401">
        <ele>2707.208</ele>
        <time>2018-06-30T12:11:18Z</time>
      </trkpt>
      <trkpt lat="42.42693" lon="2.15405">
        <ele>2708.625</ele>
        <time>2018-06-30T12:11:34Z</time>
      </trkpt>
      <trkpt lat="42.42693" lon="2.15406">
        <ele>2708.629</ele>
        <time>2018-06-30T12:11:36Z</time>
      </trkpt>
      <trkpt lat="42.42689" lon="2.15409">
        <ele>2707.661</ele>
        <time>2018-06-30T12:11:40Z</time>
      </trkpt>
      <trkpt lat="42.42688" lon="2.15412">
        <ele>2705.78</ele>
        <time>2018-06-30T12:11:42Z</time>
      </trkpt>
      <trkpt lat="42.42685" lon="2.15419">
        <ele>2707.285</ele>
        <time>2018-06-30T12:11:49Z</time>
      </trkpt>
      <trkpt lat="42.42684" lon="2.1543">
        <ele>2708.634</ele>
        <time>2018-06-30T12:12:02Z</time>
      </trkpt>
      <trkpt lat="42.42677" lon="2.15443">
        <ele>2710.09</ele>
        <time>2018-06-30T12:12:17Z</time>
      </trkpt>
      <trkpt lat="42.42677" lon="2.15446">
        <ele>2710.596</ele>
        <time>2018-06-30T12:12:20Z</time>
      </trkpt>
      <trkpt lat="42.42669" lon="2.15461">
        <ele>2713.988</ele>
        <time>2018-06-30T12:12:34Z</time>
      </trkpt>
      <trkpt lat="42.42661" lon="2.15475">
        <ele>2714.924</ele>
        <time>2018-06-30T12:12:47Z</time>
      </trkpt>
      <trkpt lat="42.42656" lon="2.15482">
        <ele>2715.326</ele>
        <time>2018-06-30T12:12:54Z</time>
      </trkpt>
      <trkpt lat="42.42651" lon="2.15486">
        <ele>2713.408</ele>
        <time>2018-06-30T12:13:00Z</time>
      </trkpt>
      <trkpt lat="42.42643" lon="2.15502">
        <ele>2714.95</ele>
        <time>2018-06-30T12:13:14Z</time>
      </trkpt>
      <trkpt lat="42.42642" lon="2.15504">
        <ele>2714.964</ele>
        <time>2018-06-30T12:13:16Z</time>
      </trkpt>
      <trkpt lat="42.4264" lon="2.15506">
        <ele>2714.996</ele>
        <time>2018-06-30T12:13:18Z</time>
      </trkpt>
      <trkpt lat="42.42633" lon="2.15522">
        <ele>2714.955</ele>
        <time>2018-06-30T12:13:33Z</time>
      </trkpt>
      <trkpt lat="42.42632" lon="2.15525">
        <ele>2715.34</ele>
        <time>2018-06-30T12:13:36Z</time>
      </trkpt>
      <trkpt lat="42.42625" lon="2.1554">
        <ele>2715.899</ele>
        <time>2018-06-30T12:13:52Z</time>
      </trkpt>
      <trkpt lat="42.42624" lon="2.15548">
        <ele>2717.785</ele>
        <time>2018-06-30T12:14:07Z</time>
      </trkpt>
      <trkpt lat="42.42622" lon="2.15552">
        <ele>2717.711</ele>
        <time>2018-06-30T12:14:22Z</time>
      </trkpt>
      <trkpt lat="42.42619" lon="2.15561">
        <ele>2720.635</ele>
        <time>2018-06-30T12:14:32Z</time>
      </trkpt>
      <trkpt lat="42.42617" lon="2.1557">
        <ele>2722.586</ele>
        <time>2018-06-30T12:14:43Z</time>
      </trkpt>
      <trkpt lat="42.42611" lon="2.15577">
        <ele>2724.914</ele>
        <time>2018-06-30T12:14:57Z</time>
      </trkpt>
      <trkpt lat="42.42605" lon="2.15585">
        <ele>2724.908</ele>
        <time>2018-06-30T12:15:10Z</time>
      </trkpt>
      <trkpt lat="42.42597" lon="2.15592">
        <ele>2725.935</ele>
        <time>2018-06-30T12:15:21Z</time>
      </trkpt>
      <trkpt lat="42.4259" lon="2.15599">
        <ele>2728.319</ele>
        <time>2018-06-30T12:15:36Z</time>
      </trkpt>
      <trkpt lat="42.42589" lon="2.15602">
        <ele>2728.341</ele>
        <time>2018-06-30T12:15:41Z</time>
      </trkpt>
      <trkpt lat="42.4258" lon="2.15616">
        <ele>2730.73</ele>
        <time>2018-06-30T12:15:55Z</time>
      </trkpt>
      <trkpt lat="42.42578" lon="2.15621">
        <ele>2733.185</ele>
        <time>2018-06-30T12:16:02Z</time>
      </trkpt>
      <trkpt lat="42.42578" lon="2.15623">
        <ele>2732.244</ele>
        <time>2018-06-30T12:16:04Z</time>
      </trkpt>
      <trkpt lat="42.42575" lon="2.15626">
        <ele>2733.61</ele>
        <time>2018-06-30T12:16:10Z</time>
      </trkpt>
      <trkpt lat="42.42569" lon="2.15637">
        <ele>2735.026</ele>
        <time>2018-06-30T12:16:23Z</time>
      </trkpt>
      <trkpt lat="42.42568" lon="2.15638">
        <ele>2735.573</ele>
        <time>2018-06-30T12:16:26Z</time>
      </trkpt>
      <trkpt lat="42.42555" lon="2.15644">
        <ele>2736.085</ele>
        <time>2018-06-30T12:16:41Z</time>
      </trkpt>
      <trkpt lat="42.42544" lon="2.15647">
        <ele>2737.413</ele>
        <time>2018-06-30T12:16:53Z</time>
      </trkpt>
      <trkpt lat="42.42536" lon="2.15649">
        <ele>2738.908</ele>
        <time>2018-06-30T12:17:14Z</time>
      </trkpt>
      <trkpt lat="42.42531" lon="2.15655">
        <ele>2742.359</ele>
        <time>2018-06-30T12:17:22Z</time>
      </trkpt>
      <trkpt lat="42.42526" lon="2.1567">
        <ele>2744.743</ele>
        <time>2018-06-30T12:17:39Z</time>
      </trkpt>
      <trkpt lat="42.42518" lon="2.15675">
        <ele>2746.165</ele>
        <time>2018-06-30T12:17:53Z</time>
      </trkpt>
      <trkpt lat="42.42509" lon="2.1568">
        <ele>2749.094</ele>
        <time>2018-06-30T12:18:06Z</time>
      </trkpt>
      <trkpt lat="42.42501" lon="2.15688">
        <ele>2752.349</ele>
        <time>2018-06-30T12:18:21Z</time>
      </trkpt>
      <trkpt lat="42.42494" lon="2.15698">
        <ele>2753.858</ele>
        <time>2018-06-30T12:18:33Z</time>
      </trkpt>
      <trkpt lat="42.42493" lon="2.157">
        <ele>2754.894</ele>
        <time>2018-06-30T12:18:58Z</time>
      </trkpt>
      <trkpt lat="42.42488" lon="2.157">
        <ele>2755.72</ele>
        <time>2018-06-30T12:19:06Z</time>
      </trkpt>
      <trkpt lat="42.42477" lon="2.15708">
        <ele>2758.632</ele>
        <time>2018-06-30T12:19:22Z</time>
      </trkpt>
      <trkpt lat="42.42471" lon="2.15711">
        <ele>2761.592</ele>
        <time>2018-06-30T12:19:34Z</time>
      </trkpt>
      <trkpt lat="42.4247" lon="2.15711">
        <ele>2762.411</ele>
        <time>2018-06-30T12:19:36Z</time>
      </trkpt>
      <trkpt lat="42.42462" lon="2.15716">
        <ele>2763.908</ele>
        <time>2018-06-30T12:19:49Z</time>
      </trkpt>
      <trkpt lat="42.42453" lon="2.1572">
        <ele>2765.835</ele>
        <time>2018-06-30T12:20:04Z</time>
      </trkpt>
      <trkpt lat="42.42453" lon="2.1572">
        <ele>2767.279</ele>
        <time>2018-06-30T12:20:06Z</time>
      </trkpt>
      <trkpt lat="42.42453" lon="2.15721">
        <ele>2767.721</ele>
        <time>2018-06-30T12:20:27Z</time>
      </trkpt>
      <trkpt lat="42.42449" lon="2.15724">
        <ele>2768.26</ele>
        <time>2018-06-30T12:20:33Z</time>
      </trkpt>
      <trkpt lat="42.42442" lon="2.15726">
        <ele>2766.865</ele>
        <time>2018-06-30T12:20:44Z</time>
      </trkpt>
      <trkpt lat="42.42441" lon="2.15726">
        <ele>2766.864</ele>
        <time>2018-06-30T12:20:45Z</time>
      </trkpt>
      <trkpt lat="42.42437" lon="2.15726">
        <ele>2769.23</ele>
        <time>2018-06-30T12:20:49Z</time>
      </trkpt>
      <trkpt lat="42.42428" lon="2.15725">
        <ele>2768.276</ele>
        <time>2018-06-30T12:21:00Z</time>
      </trkpt>
      <trkpt lat="42.42425" lon="2.15725">
        <ele>2769.714</ele>
        <time>2018-06-30T12:21:03Z</time>
      </trkpt>
      <trkpt lat="42.42415" lon="2.15719">
        <ele>2772.554</ele>
        <time>2018-06-30T12:21:18Z</time>
      </trkpt>
      <trkpt lat="42.42409" lon="2.1571">
        <ele>2774.009</ele>
        <time>2018-06-30T12:21:31Z</time>
      </trkpt>
      <trkpt lat="42.42405" lon="2.15707">
        <ele>2776.908</ele>
        <time>2018-06-30T12:21:38Z</time>
      </trkpt>
      <trkpt lat="42.42402" lon="2.15706">
        <ele>2778.883</ele>
        <time>2018-06-30T12:21:42Z</time>
      </trkpt>
      <trkpt lat="42.42394" lon="2.15703">
        <ele>2779.797</ele>
        <time>2018-06-30T12:21:58Z</time>
      </trkpt>
      <trkpt lat="42.42393" lon="2.15702">
        <ele>2781.239</ele>
        <time>2018-06-30T12:22:00Z</time>
      </trkpt>
      <trkpt lat="42.42392" lon="2.15699">
        <ele>2783.148</ele>
        <time>2018-06-30T12:22:21Z</time>
      </trkpt>
      <trkpt lat="42.4239" lon="2.15699">
        <ele>2780.243</ele>
        <time>2018-06-30T12:22:27Z</time>
      </trkpt>
      <trkpt lat="42.42385" lon="2.15698">
        <ele>2778.362</ele>
        <time>2018-06-30T12:22:31Z</time>
      </trkpt>
      <trkpt lat="42.4238" lon="2.15697">
        <ele>2782.138</ele>
        <time>2018-06-30T12:22:36Z</time>
      </trkpt>
      <trkpt lat="42.42379" lon="2.15697">
        <ele>2782.184</ele>
        <time>2018-06-30T12:22:37Z</time>
      </trkpt>
      <trkpt lat="42.42368" lon="2.15697">
        <ele>2780.267</ele>
        <time>2018-06-30T12:22:48Z</time>
      </trkpt>
      <trkpt lat="42.42361" lon="2.15695">
        <ele>2781.781</ele>
        <time>2018-06-30T12:22:55Z</time>
      </trkpt>
      <trkpt lat="42.42355" lon="2.15694">
        <ele>2784.619</ele>
        <time>2018-06-30T12:23:03Z</time>
      </trkpt>
      <trkpt lat="42.42354" lon="2.15694">
        <ele>2784.608</ele>
        <time>2018-06-30T12:23:04Z</time>
      </trkpt>
      <trkpt lat="42.42347" lon="2.15693">
        <ele>2783.158</ele>
        <time>2018-06-30T12:23:12Z</time>
      </trkpt>
      <trkpt lat="42.42345" lon="2.15693">
        <ele>2785.072</ele>
        <time>2018-06-30T12:23:29Z</time>
      </trkpt>
      <trkpt lat="42.42345" lon="2.15693">
        <ele>2786.064</ele>
        <time>2018-06-30T12:23:36Z</time>
      </trkpt>
      <trkpt lat="42.42344" lon="2.15693">
        <ele>2784.133</ele>
        <time>2018-06-30T12:24:06Z</time>
      </trkpt>
      <trkpt lat="42.42339" lon="2.1569">
        <ele>2789.428</ele>
        <time>2018-06-30T13:04:06Z</time>
      </trkpt>
      <trkpt lat="42.42337" lon="2.15684">
        <ele>2787.977</ele>
        <time>2018-06-30T13:04:11Z</time>
      </trkpt>
      <trkpt lat="42.42337" lon="2.1568">
        <ele>2786.583</ele>
        <time>2018-06-30T13:04:15Z</time>
      </trkpt>
      <trkpt lat="42.42334" lon="2.15675">
        <ele>2784.699</ele>
        <time>2018-06-30T13:04:30Z</time>
      </trkpt>
      <trkpt lat="42.42331" lon="2.15672">
        <ele>2782.698</ele>
        <time>2018-06-30T13:04:33Z</time>
      </trkpt>
      <trkpt lat="42.42326" lon="2.1566">
        <ele>2779.315</ele>
        <time>2018-06-30T13:05:11Z</time>
      </trkpt>
      <trkpt lat="42.42324" lon="2.15657">
        <ele>2776.426</ele>
        <time>2018-06-30T13:05:18Z</time>
      </trkpt>
      <trkpt lat="42.42324" lon="2.15655">
        <ele>2777.308</ele>
        <time>2018-06-30T13:05:20Z</time>
      </trkpt>
      <trkpt lat="42.42323" lon="2.15653">
        <ele>2774.081</ele>
        <time>2018-06-30T13:05:25Z</time>
      </trkpt>
      <trkpt lat="42.42321" lon="2.15649">
        <ele>2774.975</ele>
        <time>2018-06-30T13:05:29Z</time>
      </trkpt>
      <trkpt lat="42.4232" lon="2.15648">
        <ele>2771.647</ele>
        <time>2018-06-30T13:05:31Z</time>
      </trkpt>
      <trkpt lat="42.42314" lon="2.15646">
        <ele>2768.716</ele>
        <time>2018-06-30T13:05:37Z</time>
      </trkpt>
      <trkpt lat="42.42308" lon="2.15644">
        <ele>2766.351</ele>
        <time>2018-06-30T13:05:43Z</time>
      </trkpt>
      <trkpt lat="42.42305" lon="2.15642">
        <ele>2767.76</ele>
        <time>2018-06-30T13:05:47Z</time>
      </trkpt>
      <trkpt lat="42.42304" lon="2.15639">
        <ele>2766.356</ele>
        <time>2018-06-30T13:05:50Z</time>
      </trkpt>
      <trkpt lat="42.42302" lon="2.15638">
        <ele>2765.382</ele>
        <time>2018-06-30T13:05:52Z</time>
      </trkpt>
      <trkpt lat="42.423" lon="2.15639">
        <ele>2763.926</ele>
        <time>2018-06-30T13:05:54Z</time>
      </trkpt>
      <trkpt lat="42.42299" lon="2.15633">
        <ele>2764.847</ele>
        <time>2018-06-30T13:06:02Z</time>
      </trkpt>
      <trkpt lat="42.42296" lon="2.15631">
        <ele>2761.511</ele>
        <time>2018-06-30T13:06:05Z</time>
      </trkpt>
      <trkpt lat="42.42294" lon="2.15633">
        <ele>2760.508</ele>
        <time>2018-06-30T13:06:07Z</time>
      </trkpt>
      <trkpt lat="42.42291" lon="2.15631">
        <ele>2759.644</ele>
        <time>2018-06-30T13:06:11Z</time>
      </trkpt>
      <trkpt lat="42.42288" lon="2.15626">
        <ele>2757.638</ele>
        <time>2018-06-30T13:06:17Z</time>
      </trkpt>
      <trkpt lat="42.42285" lon="2.15624">
        <ele>2756.23</ele>
        <time>2018-06-30T13:06:20Z</time>
      </trkpt>
      <trkpt lat="42.42283" lon="2.15621">
        <ele>2758.189</ele>
        <time>2018-06-30T13:06:23Z</time>
      </trkpt>
      <trkpt lat="42.42279" lon="2.15617">
        <ele>2756.794</ele>
        <time>2018-06-30T13:06:27Z</time>
      </trkpt>
      <trkpt lat="42.42277" lon="2.15615">
        <ele>2755.223</ele>
        <time>2018-06-30T13:06:29Z</time>
      </trkpt>
      <trkpt lat="42.42263" lon="2.15607">
        <ele>2750.949</ele>
        <time>2018-06-30T13:07:10Z</time>
      </trkpt>
      <trkpt lat="42.4226" lon="2.15606">
        <ele>2750.935</ele>
        <time>2018-06-30T13:07:12Z</time>
      </trkpt>
      <trkpt lat="42.42259" lon="2.15602">
        <ele>2752.395</ele>
        <time>2018-06-30T13:07:15Z</time>
      </trkpt>
      <trkpt lat="42.42253" lon="2.15588">
        <ele>2749.549</ele>
        <time>2018-06-30T13:07:30Z</time>
      </trkpt>
      <trkpt lat="42.42252" lon="2.15574">
        <ele>2747.123</ele>
        <time>2018-06-30T13:07:44Z</time>
      </trkpt>
      <trkpt lat="42.42251" lon="2.15572">
        <ele>2747.108</ele>
        <time>2018-06-30T13:07:46Z</time>
      </trkpt>
      <trkpt lat="42.42249" lon="2.15568">
        <ele>2745.141</ele>
        <time>2018-06-30T13:07:49Z</time>
      </trkpt>
      <trkpt lat="42.42246" lon="2.15561">
        <ele>2742.335</ele>
        <time>2018-06-30T13:07:54Z</time>
      </trkpt>
      <trkpt lat="42.42242" lon="2.15547">
        <ele>2739.497</ele>
        <time>2018-06-30T13:08:04Z</time>
      </trkpt>
      <trkpt lat="42.42236" lon="2.15531">
        <ele>2735.536</ele>
        <time>2018-06-30T13:08:15Z</time>
      </trkpt>
      <trkpt lat="42.42232" lon="2.15523">
        <ele>2733.151</ele>
        <time>2018-06-30T13:08:26Z</time>
      </trkpt>
      <trkpt lat="42.42228" lon="2.15519">
        <ele>2730.78</ele>
        <time>2018-06-30T13:08:30Z</time>
      </trkpt>
      <trkpt lat="42.42228" lon="2.15517">
        <ele>2730.266</ele>
        <time>2018-06-30T13:08:35Z</time>
      </trkpt>
      <trkpt lat="42.42226" lon="2.15514">
        <ele>2729.322</ele>
        <time>2018-06-30T13:08:38Z</time>
      </trkpt>
      <trkpt lat="42.42224" lon="2.15512">
        <ele>2728.365</ele>
        <time>2018-06-30T13:08:40Z</time>
      </trkpt>
      <trkpt lat="42.42223" lon="2.1551">
        <ele>2727.468</ele>
        <time>2018-06-30T13:08:42Z</time>
      </trkpt>
      <trkpt lat="42.4222" lon="2.15503">
        <ele>2726.414</ele>
        <time>2018-06-30T13:08:47Z</time>
      </trkpt>
      <trkpt lat="42.42217" lon="2.155">
        <ele>2724.908</ele>
        <time>2018-06-30T13:08:50Z</time>
      </trkpt>
      <trkpt lat="42.42215" lon="2.155">
        <ele>2723.528</ele>
        <time>2018-06-30T13:08:52Z</time>
      </trkpt>
      <trkpt lat="42.42211" lon="2.15498">
        <ele>2721.612</ele>
        <time>2018-06-30T13:08:56Z</time>
      </trkpt>
      <trkpt lat="42.42198" lon="2.15486">
        <ele>2721.154</ele>
        <time>2018-06-30T13:09:08Z</time>
      </trkpt>
      <trkpt lat="42.42196" lon="2.15484">
        <ele>2719.783</ele>
        <time>2018-06-30T13:09:10Z</time>
      </trkpt>
      <trkpt lat="42.42193" lon="2.15482">
        <ele>2721.188</ele>
        <time>2018-06-30T13:09:12Z</time>
      </trkpt>
      <trkpt lat="42.42192" lon="2.15481">
        <ele>2721.197</ele>
        <time>2018-06-30T13:09:13Z</time>
      </trkpt>
      <trkpt lat="42.4219" lon="2.15478">
        <ele>2717.713</ele>
        <time>2018-06-30T13:09:15Z</time>
      </trkpt>
      <trkpt lat="42.42189" lon="2.15475">
        <ele>2719.289</ele>
        <time>2018-06-30T13:09:17Z</time>
      </trkpt>
      <trkpt lat="42.42188" lon="2.15472">
        <ele>2717.778</ele>
        <time>2018-06-30T13:09:19Z</time>
      </trkpt>
      <trkpt lat="42.42187" lon="2.15469">
        <ele>2719.233</ele>
        <time>2018-06-30T13:09:21Z</time>
      </trkpt>
      <trkpt lat="42.42185" lon="2.15458">
        <ele>2717.326</ele>
        <time>2018-06-30T13:09:28Z</time>
      </trkpt>
      <trkpt lat="42.42185" lon="2.1543">
        <ele>2714.908</ele>
        <time>2018-06-30T13:09:43Z</time>
      </trkpt>
      <trkpt lat="42.42184" lon="2.15405">
        <ele>2714.419</ele>
        <time>2018-06-30T13:09:57Z</time>
      </trkpt>
      <trkpt lat="42.42178" lon="2.15391">
        <ele>2714.963</ele>
        <time>2018-06-30T13:10:06Z</time>
      </trkpt>
      <trkpt lat="42.42174" lon="2.15372">
        <ele>2714.955</ele>
        <time>2018-06-30T13:10:22Z</time>
      </trkpt>
      <trkpt lat="42.42174" lon="2.15369">
        <ele>2714.954</ele>
        <time>2018-06-30T13:10:29Z</time>
      </trkpt>
      <trkpt lat="42.42168" lon="2.15348">
        <ele>2714.919</ele>
        <time>2018-06-30T13:10:42Z</time>
      </trkpt>
      <trkpt lat="42.4216" lon="2.1534">
        <ele>2716.348</ele>
        <time>2018-06-30T13:10:52Z</time>
      </trkpt>
      <trkpt lat="42.42159" lon="2.15337">
        <ele>2716.344</ele>
        <time>2018-06-30T13:10:54Z</time>
      </trkpt>
      <trkpt lat="42.42156" lon="2.15326">
        <ele>2717.35</ele>
        <time>2018-06-30T13:11:03Z</time>
      </trkpt>
      <trkpt lat="42.42153" lon="2.1531">
        <ele>2717.324</ele>
        <time>2018-06-30T13:11:15Z</time>
      </trkpt>
      <trkpt lat="42.42151" lon="2.15298">
        <ele>2715.804</ele>
        <time>2018-06-30T13:11:23Z</time>
      </trkpt>
      <trkpt lat="42.42144" lon="2.15275">
        <ele>2712.914</ele>
        <time>2018-06-30T13:11:40Z</time>
      </trkpt>
      <trkpt lat="42.4214" lon="2.15248">
        <ele>2710.508</ele>
        <time>2018-06-30T13:11:56Z</time>
      </trkpt>
      <trkpt lat="42.42139" lon="2.1522">
        <ele>2709.124</ele>
        <time>2018-06-30T13:12:12Z</time>
      </trkpt>
      <trkpt lat="42.42137" lon="2.15209">
        <ele>2708.658</ele>
        <time>2018-06-30T13:12:18Z</time>
      </trkpt>
      <trkpt lat="42.42137" lon="2.15197">
        <ele>2707.66</ele>
        <time>2018-06-30T13:12:25Z</time>
      </trkpt>
      <trkpt lat="42.42137" lon="2.15178">
        <ele>2707.689</ele>
        <time>2018-06-30T13:12:36Z</time>
      </trkpt>
      <trkpt lat="42.42136" lon="2.15155">
        <ele>2708.694</ele>
        <time>2018-06-30T13:12:52Z</time>
      </trkpt>
      <trkpt lat="42.42135" lon="2.15153">
        <ele>2710.063</ele>
        <time>2018-06-30T13:12:54Z</time>
      </trkpt>
      <trkpt lat="42.42135" lon="2.15147">
        <ele>2708.699</ele>
        <time>2018-06-30T13:12:59Z</time>
      </trkpt>
      <trkpt lat="42.42131" lon="2.15121">
        <ele>2706.275</ele>
        <time>2018-06-30T13:13:17Z</time>
      </trkpt>
      <trkpt lat="42.4213" lon="2.15114">
        <ele>2705.215</ele>
        <time>2018-06-30T13:13:22Z</time>
      </trkpt>
      <trkpt lat="42.4213" lon="2.15115">
        <ele>2704.365</ele>
        <time>2018-06-30T13:13:43Z</time>
      </trkpt>
      <trkpt lat="42.42129" lon="2.15111">
        <ele>2705.711</ele>
        <time>2018-06-30T13:13:46Z</time>
      </trkpt>
      <trkpt lat="42.42129" lon="2.15108">
        <ele>2705.708</ele>
        <time>2018-06-30T13:13:48Z</time>
      </trkpt>
      <trkpt lat="42.42127" lon="2.15102">
        <ele>2704.313</ele>
        <time>2018-06-30T13:13:51Z</time>
      </trkpt>
      <trkpt lat="42.42126" lon="2.15093">
        <ele>2702.887</ele>
        <time>2018-06-30T13:13:57Z</time>
      </trkpt>
      <trkpt lat="42.42127" lon="2.1509">
        <ele>2702.859</ele>
        <time>2018-06-30T13:13:59Z</time>
      </trkpt>
      <trkpt lat="42.42126" lon="2.15086">
        <ele>2701.478</ele>
        <time>2018-06-30T13:14:02Z</time>
      </trkpt>
      <trkpt lat="42.42128" lon="2.1508">
        <ele>2699.023</ele>
        <time>2018-06-30T13:14:07Z</time>
      </trkpt>
      <trkpt lat="42.42126" lon="2.15075">
        <ele>2698.592</ele>
        <time>2018-06-30T13:14:11Z</time>
      </trkpt>
      <trkpt lat="42.42126" lon="2.15057">
        <ele>2694.268</ele>
        <time>2018-06-30T13:14:23Z</time>
      </trkpt>
      <trkpt lat="42.42123" lon="2.15034">
        <ele>2691.354</ele>
        <time>2018-06-30T13:14:37Z</time>
      </trkpt>
      <trkpt lat="42.42117" lon="2.15022">
        <ele>2688.919</ele>
        <time>2018-06-30T13:14:45Z</time>
      </trkpt>
      <trkpt lat="42.42111" lon="2.15002">
        <ele>2687.009</ele>
        <time>2018-06-30T13:14:58Z</time>
      </trkpt>
      <trkpt lat="42.42111" lon="2.14994">
        <ele>2685.519</ele>
        <time>2018-06-30T13:15:11Z</time>
      </trkpt>
      <trkpt lat="42.42114" lon="2.14992">
        <ele>2684.608</ele>
        <time>2018-06-30T13:15:24Z</time>
      </trkpt>
      <trkpt lat="42.4212" lon="2.14982">
        <ele>2681.253</ele>
        <time>2018-06-30T13:15:36Z</time>
      </trkpt>
      <trkpt lat="42.42122" lon="2.14979">
        <ele>2679.377</ele>
        <time>2018-06-30T13:15:49Z</time>
      </trkpt>
      <trkpt lat="42.4213" lon="2.14978">
        <ele>2676.489</ele>
        <time>2018-06-30T13:16:02Z</time>
      </trkpt>
      <trkpt lat="42.4213" lon="2.14973">
        <ele>2675.488</ele>
        <time>2018-06-30T13:16:06Z</time>
      </trkpt>
      <trkpt lat="42.42131" lon="2.14956">
        <ele>2672.693</ele>
        <time>2018-06-30T13:16:20Z</time>
      </trkpt>
      <trkpt lat="42.42138" lon="2.14951">
        <ele>2669.712</ele>
        <time>2018-06-30T13:16:33Z</time>
      </trkpt>
      <trkpt lat="42.42147" lon="2.14945">
        <ele>2665.878</ele>
        <time>2018-06-30T13:16:44Z</time>
      </trkpt>
      <trkpt lat="42.42156" lon="2.14947">
        <ele>2662.514</ele>
        <time>2018-06-30T13:16:55Z</time>
      </trkpt>
      <trkpt lat="42.42159" lon="2.14947">
        <ele>2661.554</ele>
        <time>2018-06-30T13:16:58Z</time>
      </trkpt>
      <trkpt lat="42.4217" lon="2.14944">
        <ele>2657.756</ele>
        <time>2018-06-30T13:17:08Z</time>
      </trkpt>
      <trkpt lat="42.42178" lon="2.14937">
        <ele>2654.311</ele>
        <time>2018-06-30T13:17:17Z</time>
      </trkpt>
      <trkpt lat="42.42179" lon="2.14936">
        <ele>2654.308</ele>
        <time>2018-06-30T13:17:18Z</time>
      </trkpt>
      <trkpt lat="42.42188" lon="2.14928">
        <ele>2650.917</ele>
        <time>2018-06-30T13:17:29Z</time>
      </trkpt>
      <trkpt lat="42.42195" lon="2.14923">
        <ele>2647.621</ele>
        <time>2018-06-30T13:17:37Z</time>
      </trkpt>
      <trkpt lat="42.42197" lon="2.14921">
        <ele>2646.653</ele>
        <time>2018-06-30T13:17:39Z</time>
      </trkpt>
      <trkpt lat="42.42206" lon="2.14917">
        <ele>2643.292</ele>
        <time>2018-06-30T13:17:49Z</time>
      </trkpt>
      <trkpt lat="42.42214" lon="2.14912">
        <ele>2639.957</ele>
        <time>2018-06-30T13:17:58Z</time>
      </trkpt>
      <trkpt lat="42.42217" lon="2.14907">
        <ele>2637.946</ele>
        <time>2018-06-30T13:18:04Z</time>
      </trkpt>
      <trkpt lat="42.42222" lon="2.14898">
        <ele>2635.192</ele>
        <time>2018-06-30T13:18:14Z</time>
      </trkpt>
      <trkpt lat="42.42225" lon="2.14891">
        <ele>2633.128</ele>
        <time>2018-06-30T13:18:19Z</time>
      </trkpt>
      <trkpt lat="42.42226" lon="2.14883">
        <ele>2631.215</ele>
        <time>2018-06-30T13:18:25Z</time>
      </trkpt>
      <trkpt lat="42.4223" lon="2.14881">
        <ele>2630.365</ele>
        <time>2018-06-30T13:18:29Z</time>
      </trkpt>
      <trkpt lat="42.42235" lon="2.14871">
        <ele>2627.411</ele>
        <time>2018-06-30T13:18:37Z</time>
      </trkpt>
      <trkpt lat="42.42239" lon="2.14869">
        <ele>2625.508</ele>
        <time>2018-06-30T13:18:42Z</time>
      </trkpt>
      <trkpt lat="42.42244" lon="2.14862">
        <ele>2623.593</ele>
        <time>2018-06-30T13:18:48Z</time>
      </trkpt>
      <trkpt lat="42.42254" lon="2.14856">
        <ele>2620.257</ele>
        <time>2018-06-30T13:18:59Z</time>
      </trkpt>
      <trkpt lat="42.42265" lon="2.14847">
        <ele>2616.879</ele>
        <time>2018-06-30T13:19:12Z</time>
      </trkpt>
      <trkpt lat="42.42269" lon="2.14844">
        <ele>2615.878</ele>
        <time>2018-06-30T13:19:17Z</time>
      </trkpt>
      <trkpt lat="42.4227" lon="2.14858">
        <ele>2613.923</ele>
        <time>2018-06-30T13:19:29Z</time>
      </trkpt>
      <trkpt lat="42.42271" lon="2.14865">
        <ele>2612.572</ele>
        <time>2018-06-30T13:19:34Z</time>
      </trkpt>
      <trkpt lat="42.42282" lon="2.14876">
        <ele>2608.628</ele>
        <time>2018-06-30T13:19:48Z</time>
      </trkpt>
      <trkpt lat="42.42287" lon="2.14873">
        <ele>2607.284</ele>
        <time>2018-06-30T13:19:54Z</time>
      </trkpt>
      <trkpt lat="42.42295" lon="2.14864">
        <ele>2603.872</ele>
        <time>2018-06-30T13:20:06Z</time>
      </trkpt>
      <trkpt lat="42.42302" lon="2.14858">
        <ele>2600.513</ele>
        <time>2018-06-30T13:20:16Z</time>
      </trkpt>
      <trkpt lat="42.42307" lon="2.14868">
        <ele>2597.114</ele>
        <time>2018-06-30T13:20:28Z</time>
      </trkpt>
      <trkpt lat="42.42317" lon="2.14863">
        <ele>2593.708</ele>
        <time>2018-06-30T13:20:41Z</time>
      </trkpt>
      <trkpt lat="42.42326" lon="2.14856">
        <ele>2590.889</ele>
        <time>2018-06-30T13:20:53Z</time>
      </trkpt>
      <trkpt lat="42.42333" lon="2.14846">
        <ele>2588.443</ele>
        <time>2018-06-30T13:21:04Z</time>
      </trkpt>
      <trkpt lat="42.4234" lon="2.14836">
        <ele>2584.645</ele>
        <time>2018-06-30T13:21:18Z</time>
      </trkpt>
      <trkpt lat="42.42351" lon="2.14829">
        <ele>2580.854</ele>
        <time>2018-06-30T13:21:33Z</time>
      </trkpt>
      <trkpt lat="42.42359" lon="2.14819">
        <ele>2577.979</ele>
        <time>2018-06-30T13:21:45Z</time>
      </trkpt>
      <trkpt lat="42.42359" lon="2.14816">
        <ele>2577.468</ele>
        <time>2018-06-30T13:21:57Z</time>
      </trkpt>
      <trkpt lat="42.42366" lon="2.14806">
        <ele>2575.034</ele>
        <time>2018-06-30T13:22:05Z</time>
      </trkpt>
      <trkpt lat="42.42368" lon="2.14803">
        <ele>2574.59</ele>
        <time>2018-06-30T13:22:08Z</time>
      </trkpt>
      <trkpt lat="42.42374" lon="2.148">
        <ele>2572.118</ele>
        <time>2018-06-30T13:22:22Z</time>
      </trkpt>
      <trkpt lat="42.42376" lon="2.14802">
        <ele>2571.698</ele>
        <time>2018-06-30T13:23:05Z</time>
      </trkpt>
      <trkpt lat="42.42378" lon="2.14803">
        <ele>2571.617</ele>
        <time>2018-06-30T13:23:38Z</time>
      </trkpt>
      <trkpt lat="42.4238" lon="2.14805">
        <ele>2573.108</ele>
        <time>2018-06-30T13:23:54Z</time>
      </trkpt>
      <trkpt lat="42.42383" lon="2.14795">
        <ele>2570.783</ele>
        <time>2018-06-30T13:24:14Z</time>
      </trkpt>
      <trkpt lat="42.4239" lon="2.14785">
        <ele>2566.847</ele>
        <time>2018-06-30T13:24:26Z</time>
      </trkpt>
      <trkpt lat="42.42398" lon="2.14775">
        <ele>2563.419</ele>
        <time>2018-06-30T13:24:37Z</time>
      </trkpt>
      <trkpt lat="42.42405" lon="2.14768">
        <ele>2561.068</ele>
        <time>2018-06-30T13:24:54Z</time>
      </trkpt>
      <trkpt lat="42.42407" lon="2.14756">
        <ele>2557.753</ele>
        <time>2018-06-30T13:25:04Z</time>
      </trkpt>
      <trkpt lat="42.42411" lon="2.14749">
        <ele>2554.332</ele>
        <time>2018-06-30T13:25:15Z</time>
      </trkpt>
      <trkpt lat="42.42417" lon="2.14739">
        <ele>2551.978</ele>
        <time>2018-06-30T13:25:27Z</time>
      </trkpt>
      <trkpt lat="42.42417" lon="2.14736">
        <ele>2551.094</ele>
        <time>2018-06-30T13:25:30Z</time>
      </trkpt>
      <trkpt lat="42.42426" lon="2.14746">
        <ele>2547.129</ele>
        <time>2018-06-30T13:25:43Z</time>
      </trkpt>
      <trkpt lat="42.4243" lon="2.14738">
        <ele>2544.2</ele>
        <time>2018-06-30T13:25:54Z</time>
      </trkpt>
      <trkpt lat="42.42439" lon="2.14744">
        <ele>2540.92</ele>
        <time>2018-06-30T13:26:05Z</time>
      </trkpt>
      <trkpt lat="42.4244" lon="2.14744">
        <ele>2540.908</ele>
        <time>2018-06-30T13:26:06Z</time>
      </trkpt>
      <trkpt lat="42.42444" lon="2.14734">
        <ele>2538.554</ele>
        <time>2018-06-30T13:26:16Z</time>
      </trkpt>
      <trkpt lat="42.42448" lon="2.14722">
        <ele>2535.198</ele>
        <time>2018-06-30T13:26:27Z</time>
      </trkpt>
      <trkpt lat="42.42451" lon="2.14707">
        <ele>2532.21</ele>
        <time>2018-06-30T13:26:41Z</time>
      </trkpt>
      <trkpt lat="42.42452" lon="2.14694">
        <ele>2530.879</ele>
        <time>2018-06-30T13:26:49Z</time>
      </trkpt>
      <trkpt lat="42.42452" lon="2.14689">
        <ele>2529.394</ele>
        <time>2018-06-30T13:26:52Z</time>
      </trkpt>
      <trkpt lat="42.42454" lon="2.14676">
        <ele>2526.953</ele>
        <time>2018-06-30T13:27:02Z</time>
      </trkpt>
      <trkpt lat="42.42469" lon="2.14698">
        <ele>2523.149</ele>
        <time>2018-06-30T13:27:18Z</time>
      </trkpt>
      <trkpt lat="42.42482" lon="2.14715">
        <ele>2520.295</ele>
        <time>2018-06-30T13:27:32Z</time>
      </trkpt>
      <trkpt lat="42.42488" lon="2.14723">
        <ele>2518.774</ele>
        <time>2018-06-30T13:27:38Z</time>
      </trkpt>
      <trkpt lat="42.425" lon="2.1474">
        <ele>2515.956</ele>
        <time>2018-06-30T13:27:52Z</time>
      </trkpt>
      <trkpt lat="42.42506" lon="2.14736">
        <ele>2515.421</ele>
        <time>2018-06-30T13:27:58Z</time>
      </trkpt>
      <trkpt lat="42.42507" lon="2.14722">
        <ele>2512.508</ele>
        <time>2018-06-30T13:28:08Z</time>
      </trkpt>
      <trkpt lat="42.42508" lon="2.14719">
        <ele>2511.549</ele>
        <time>2018-06-30T13:28:10Z</time>
      </trkpt>
      <trkpt lat="42.42509" lon="2.14718">
        <ele>2511.153</ele>
        <time>2018-06-30T13:28:11Z</time>
      </trkpt>
      <trkpt lat="42.42509" lon="2.14703">
        <ele>2509.115</ele>
        <time>2018-06-30T13:28:22Z</time>
      </trkpt>
      <trkpt lat="42.42512" lon="2.14695">
        <ele>2507.774</ele>
        <time>2018-06-30T13:28:34Z</time>
      </trkpt>
      <trkpt lat="42.4251" lon="2.14679">
        <ele>2504.889</ele>
        <time>2018-06-30T13:28:44Z</time>
      </trkpt>
      <trkpt lat="42.42511" lon="2.14671">
        <ele>2503.428</ele>
        <time>2018-06-30T13:28:48Z</time>
      </trkpt>
      <trkpt lat="42.42509" lon="2.14649">
        <ele>2499.554</ele>
        <time>2018-06-30T13:29:01Z</time>
      </trkpt>
      <trkpt lat="42.42508" lon="2.1463">
        <ele>2496.64</ele>
        <time>2018-06-30T13:29:13Z</time>
      </trkpt>
      <trkpt lat="42.42507" lon="2.14614">
        <ele>2493.355</ele>
        <time>2018-06-30T13:29:24Z</time>
      </trkpt>
      <trkpt lat="42.42506" lon="2.14604">
        <ele>2491.307</ele>
        <time>2018-06-30T13:29:33Z</time>
      </trkpt>
      <trkpt lat="42.42508" lon="2.1459">
        <ele>2488.017</ele>
        <time>2018-06-30T13:29:43Z</time>
      </trkpt>
      <trkpt lat="42.4251" lon="2.14573">
        <ele>2484.608</ele>
        <time>2018-06-30T13:29:54Z</time>
      </trkpt>
      <trkpt lat="42.42513" lon="2.14559">
        <ele>2482.757</ele>
        <time>2018-06-30T13:30:04Z</time>
      </trkpt>
      <trkpt lat="42.42521" lon="2.1455">
        <ele>2480.361</ele>
        <time>2018-06-30T13:30:14Z</time>
      </trkpt>
      <trkpt lat="42.42524" lon="2.14545">
        <ele>2479.363</ele>
        <time>2018-06-30T13:30:24Z</time>
      </trkpt>
      <trkpt lat="42.42526" lon="2.1452">
        <ele>2475.582</ele>
        <time>2018-06-30T13:30:37Z</time>
      </trkpt>
      <trkpt lat="42.42526" lon="2.14519">
        <ele>2475.587</ele>
        <time>2018-06-30T13:30:38Z</time>
      </trkpt>
      <trkpt lat="42.42532" lon="2.14505">
        <ele>2472.186</ele>
        <time>2018-06-30T13:30:49Z</time>
      </trkpt>
      <trkpt lat="42.42534" lon="2.14484">
        <ele>2469.762</ele>
        <time>2018-06-30T13:31:01Z</time>
      </trkpt>
      <trkpt lat="42.42537" lon="2.14479">
        <ele>2468.328</ele>
        <time>2018-06-30T13:31:05Z</time>
      </trkpt>
      <trkpt lat="42.4254" lon="2.14475">
        <ele>2467.399</ele>
        <time>2018-06-30T13:31:09Z</time>
      </trkpt>
      <trkpt lat="42.4254" lon="2.14456">
        <ele>2464.007</ele>
        <time>2018-06-30T13:31:22Z</time>
      </trkpt>
      <trkpt lat="42.42544" lon="2.14442">
        <ele>2460.627</ele>
        <time>2018-06-30T13:31:35Z</time>
      </trkpt>
      <trkpt lat="42.42551" lon="2.14427">
        <ele>2457.208</ele>
        <time>2018-06-30T13:31:47Z</time>
      </trkpt>
      <trkpt lat="42.42556" lon="2.14419">
        <ele>2455.361</ele>
        <time>2018-06-30T13:31:55Z</time>
      </trkpt>
      <trkpt lat="42.42557" lon="2.14399">
        <ele>2452.485</ele>
        <time>2018-06-30T13:32:10Z</time>
      </trkpt>
      <trkpt lat="42.42558" lon="2.14391">
        <ele>2450.077</ele>
        <time>2018-06-30T13:32:16Z</time>
      </trkpt>
      <trkpt lat="42.42561" lon="2.14378">
        <ele>2447.186</ele>
        <time>2018-06-30T13:32:27Z</time>
      </trkpt>
      <trkpt lat="42.42564" lon="2.14366">
        <ele>2443.871</ele>
        <time>2018-06-30T13:32:41Z</time>
      </trkpt>
      <trkpt lat="42.42563" lon="2.14353">
        <ele>2440.45</ele>
        <time>2018-06-30T13:32:51Z</time>
      </trkpt>
      <trkpt lat="42.42567" lon="2.14336">
        <ele>2437.576</ele>
        <time>2018-06-30T13:33:04Z</time>
      </trkpt>
      <trkpt lat="42.42567" lon="2.14318">
        <ele>2435.672</ele>
        <time>2018-06-30T13:33:15Z</time>
      </trkpt>
      <trkpt lat="42.42569" lon="2.14311">
        <ele>2433.244</ele>
        <time>2018-06-30T13:33:30Z</time>
      </trkpt>
      <trkpt lat="42.4257" lon="2.14298">
        <ele>2429.305</ele>
        <time>2018-06-30T13:33:44Z</time>
      </trkpt>
      <trkpt lat="42.4257" lon="2.14287">
        <ele>2426.515</ele>
        <time>2018-06-30T13:33:55Z</time>
      </trkpt>
      <trkpt lat="42.4257" lon="2.14279">
        <ele>2424.508</ele>
        <time>2018-06-30T13:34:01Z</time>
      </trkpt>
      <trkpt lat="42.4257" lon="2.14276">
        <ele>2424.136</ele>
        <time>2018-06-30T13:34:03Z</time>
      </trkpt>
      <trkpt lat="42.42571" lon="2.14269">
        <ele>2422.64</ele>
        <time>2018-06-30T13:34:09Z</time>
      </trkpt>
      <trkpt lat="42.42571" lon="2.14252">
        <ele>2419.722</ele>
        <time>2018-06-30T13:34:20Z</time>
      </trkpt>
      <trkpt lat="42.42575" lon="2.14242">
        <ele>2416.421</ele>
        <time>2018-06-30T13:34:30Z</time>
      </trkpt>
      <trkpt lat="42.42574" lon="2.14234">
        <ele>2415.956</ele>
        <time>2018-06-30T13:34:35Z</time>
      </trkpt>
      <trkpt lat="42.42575" lon="2.14227">
        <ele>2414.035</ele>
        <time>2018-06-30T13:34:49Z</time>
      </trkpt>
      <trkpt lat="42.42576" lon="2.14214">
        <ele>2410.661</ele>
        <time>2018-06-30T13:35:00Z</time>
      </trkpt>
      <trkpt lat="42.42575" lon="2.14208">
        <ele>2409.677</ele>
        <time>2018-06-30T13:35:04Z</time>
      </trkpt>
      <trkpt lat="42.42575" lon="2.14198">
        <ele>2407.727</ele>
        <time>2018-06-30T13:35:12Z</time>
      </trkpt>
      <trkpt lat="42.42569" lon="2.14183">
        <ele>2404.868</ele>
        <time>2018-06-30T13:35:24Z</time>
      </trkpt>
      <trkpt lat="42.42569" lon="2.1418">
        <ele>2403.414</ele>
        <time>2018-06-30T13:35:35Z</time>
      </trkpt>
      <trkpt lat="42.42573" lon="2.14173">
        <ele>2401.508</ele>
        <time>2018-06-30T13:35:49Z</time>
      </trkpt>
      <trkpt lat="42.42576" lon="2.14167">
        <ele>2399.584</ele>
        <time>2018-06-30T13:35:53Z</time>
      </trkpt>
      <trkpt lat="42.42577" lon="2.14164">
        <ele>2398.678</ele>
        <time>2018-06-30T13:35:55Z</time>
      </trkpt>
      <trkpt lat="42.4258" lon="2.14148">
        <ele>2394.74</ele>
        <time>2018-06-30T13:36:06Z</time>
      </trkpt>
      <trkpt lat="42.42581" lon="2.14145">
        <ele>2394.719</ele>
        <time>2018-06-30T13:36:08Z</time>
      </trkpt>
      <trkpt lat="42.42581" lon="2.14142">
        <ele>2393.394</ele>
        <time>2018-06-30T13:36:10Z</time>
      </trkpt>
      <trkpt lat="42.42582" lon="2.14126">
        <ele>2389.963</ele>
        <time>2018-06-30T13:36:20Z</time>
      </trkpt>
      <trkpt lat="42.42585" lon="2.1412">
        <ele>2389.089</ele>
        <time>2018-06-30T13:36:25Z</time>
      </trkpt>
      <trkpt lat="42.42593" lon="2.14105">
        <ele>2385.155</ele>
        <time>2018-06-30T13:36:38Z</time>
      </trkpt>
      <trkpt lat="42.42595" lon="2.14103">
        <ele>2383.772</ele>
        <time>2018-06-30T13:36:50Z</time>
      </trkpt>
      <trkpt lat="42.42593" lon="2.14085">
        <ele>2380.313</ele>
        <time>2018-06-30T13:37:02Z</time>
      </trkpt>
      <trkpt lat="42.42594" lon="2.14084">
        <ele>2379.414</ele>
        <time>2018-06-30T13:37:03Z</time>
      </trkpt>
      <trkpt lat="42.42596" lon="2.14076">
        <ele>2377.908</ele>
        <time>2018-06-30T13:37:09Z</time>
      </trkpt>
      <trkpt lat="42.42596" lon="2.1407">
        <ele>2377.069</ele>
        <time>2018-06-30T13:37:13Z</time>
      </trkpt>
      <trkpt lat="42.426" lon="2.14058">
        <ele>2374.593</ele>
        <time>2018-06-30T13:37:29Z</time>
      </trkpt>
      <trkpt lat="42.42602" lon="2.14054">
        <ele>2373.135</ele>
        <time>2018-06-30T13:38:01Z</time>
      </trkpt>
      <trkpt lat="42.42601" lon="2.14051">
        <ele>2373.144</ele>
        <time>2018-06-30T13:38:05Z</time>
      </trkpt>
      <trkpt lat="42.42602" lon="2.14034">
        <ele>2370.249</ele>
        <time>2018-06-30T13:38:19Z</time>
      </trkpt>
      <trkpt lat="42.426" lon="2.14031">
        <ele>2369.768</ele>
        <time>2018-06-30T13:38:22Z</time>
      </trkpt>
      <trkpt lat="42.42597" lon="2.14007">
        <ele>2369.764</ele>
        <time>2018-06-30T13:38:37Z</time>
      </trkpt>
      <trkpt lat="42.42595" lon="2.13995">
        <ele>2368.81</ele>
        <time>2018-06-30T13:38:44Z</time>
      </trkpt>
      <trkpt lat="42.42591" lon="2.13982">
        <ele>2368.372</ele>
        <time>2018-06-30T13:38:52Z</time>
      </trkpt>
      <trkpt lat="42.4259" lon="2.13969">
        <ele>2368.313</ele>
        <time>2018-06-30T13:39:00Z</time>
      </trkpt>
      <trkpt lat="42.42593" lon="2.13967">
        <ele>2368.314</ele>
        <time>2018-06-30T13:39:04Z</time>
      </trkpt>
      <trkpt lat="42.42592" lon="2.13964">
        <ele>2368.308</ele>
        <time>2018-06-30T13:39:20Z</time>
      </trkpt>
      <trkpt lat="42.42598" lon="2.13947">
        <ele>2366.929</ele>
        <time>2018-06-30T13:39:51Z</time>
      </trkpt>
      <trkpt lat="42.426" lon="2.13926">
        <ele>2364.943</ele>
        <time>2018-06-30T13:40:04Z</time>
      </trkpt>
      <trkpt lat="42.42601" lon="2.13904">
        <ele>2363.585</ele>
        <time>2018-06-30T13:40:21Z</time>
      </trkpt>
      <trkpt lat="42.42601" lon="2.13896">
        <ele>2362.534</ele>
        <time>2018-06-30T13:40:41Z</time>
      </trkpt>
      <trkpt lat="42.42607" lon="2.13871">
        <ele>2360.169</ele>
        <time>2018-06-30T13:40:58Z</time>
      </trkpt>
      <trkpt lat="42.42607" lon="2.13869">
        <ele>2360.198</ele>
        <time>2018-06-30T13:40:59Z</time>
      </trkpt>
      <trkpt lat="42.42609" lon="2.13843">
        <ele>2357.724</ele>
        <time>2018-06-30T13:41:14Z</time>
      </trkpt>
      <trkpt lat="42.42609" lon="2.13839">
        <ele>2357.29</ele>
        <time>2018-06-30T13:41:17Z</time>
      </trkpt>
      <trkpt lat="42.42608" lon="2.13824">
        <ele>2356.369</ele>
        <time>2018-06-30T13:41:30Z</time>
      </trkpt>
      <trkpt lat="42.42606" lon="2.13804">
        <ele>2355.304</ele>
        <time>2018-06-30T13:41:41Z</time>
      </trkpt>
      <trkpt lat="42.42602" lon="2.13794">
        <ele>2354.824</ele>
        <time>2018-06-30T13:41:54Z</time>
      </trkpt>
      <trkpt lat="42.42603" lon="2.13792">
        <ele>2354.408</ele>
        <time>2018-06-30T13:42:11Z</time>
      </trkpt>
      <trkpt lat="42.42607" lon="2.13771">
        <ele>2354.418</ele>
        <time>2018-06-30T13:42:26Z</time>
      </trkpt>
      <trkpt lat="42.42613" lon="2.13755">
        <ele>2354.432</ele>
        <time>2018-06-30T13:42:37Z</time>
      </trkpt>
      <trkpt lat="42.42616" lon="2.1375">
        <ele>2354.474</ele>
        <time>2018-06-30T13:42:50Z</time>
      </trkpt>
      <trkpt lat="42.42617" lon="2.13747">
        <ele>2354.473</ele>
        <time>2018-06-30T13:42:55Z</time>
      </trkpt>
      <trkpt lat="42.42616" lon="2.13741">
        <ele>2354.498</ele>
        <time>2018-06-30T13:43:09Z</time>
      </trkpt>
      <trkpt lat="42.4262" lon="2.13718">
        <ele>2354.847</ele>
        <time>2018-06-30T13:43:23Z</time>
      </trkpt>
      <trkpt lat="42.42623" lon="2.13712">
        <ele>2354.493</ele>
        <time>2018-06-30T13:43:31Z</time>
      </trkpt>
      <trkpt lat="42.42624" lon="2.13709">
        <ele>2355.859</ele>
        <time>2018-06-30T13:43:43Z</time>
      </trkpt>
      <trkpt lat="42.42627" lon="2.13702">
        <ele>2355.892</ele>
        <time>2018-06-30T13:43:48Z</time>
      </trkpt>
      <trkpt lat="42.4263" lon="2.13696">
        <ele>2355.373</ele>
        <time>2018-06-30T13:43:52Z</time>
      </trkpt>
      <trkpt lat="42.42634" lon="2.13675">
        <ele>2355.32</ele>
        <time>2018-06-30T13:44:08Z</time>
      </trkpt>
      <trkpt lat="42.42636" lon="2.13669">
        <ele>2355.308</ele>
        <time>2018-06-30T13:44:21Z</time>
      </trkpt>
      <trkpt lat="42.42639" lon="2.1366">
        <ele>2355.321</ele>
        <time>2018-06-30T13:44:26Z</time>
      </trkpt>
      <trkpt lat="42.42642" lon="2.13652">
        <ele>2352.965</ele>
        <time>2018-06-30T13:44:38Z</time>
      </trkpt>
      <trkpt lat="42.42643" lon="2.13651">
        <ele>2352.947</ele>
        <time>2018-06-30T13:44:42Z</time>
      </trkpt>
      <trkpt lat="42.42643" lon="2.13649">
        <ele>2354.426</ele>
        <time>2018-06-30T13:44:44Z</time>
      </trkpt>
      <trkpt lat="42.42645" lon="2.13644">
        <ele>2354.421</ele>
        <time>2018-06-30T13:44:47Z</time>
      </trkpt>
      <trkpt lat="42.42645" lon="2.13636">
        <ele>2353.94</ele>
        <time>2018-06-30T13:44:53Z</time>
      </trkpt>
      <trkpt lat="42.42646" lon="2.13628">
        <ele>2353.966</ele>
        <time>2018-06-30T13:44:58Z</time>
      </trkpt>
      <trkpt lat="42.42658" lon="2.13605">
        <ele>2353.932</ele>
        <time>2018-06-30T13:45:14Z</time>
      </trkpt>
      <trkpt lat="42.42664" lon="2.13598">
        <ele>2352.451</ele>
        <time>2018-06-30T13:45:20Z</time>
      </trkpt>
      <trkpt lat="42.42684" lon="2.13581">
        <ele>2349.601</ele>
        <time>2018-06-30T13:45:38Z</time>
      </trkpt>
      <trkpt lat="42.42695" lon="2.13555">
        <ele>2348.611</ele>
        <time>2018-06-30T13:45:55Z</time>
      </trkpt>
      <trkpt lat="42.42706" lon="2.1354">
        <ele>2348.108</ele>
        <time>2018-06-30T13:46:09Z</time>
      </trkpt>
      <trkpt lat="42.42709" lon="2.13536">
        <ele>2347.637</ele>
        <time>2018-06-30T13:46:27Z</time>
      </trkpt>
      <trkpt lat="42.42715" lon="2.13523">
        <ele>2347.261</ele>
        <time>2018-06-30T13:46:43Z</time>
      </trkpt>
      <trkpt lat="42.42721" lon="2.13495">
        <ele>2347.233</ele>
        <time>2018-06-30T13:47:00Z</time>
      </trkpt>
      <trkpt lat="42.4273" lon="2.13476">
        <ele>2347.212</ele>
        <time>2018-06-30T13:47:15Z</time>
      </trkpt>
      <trkpt lat="42.4274" lon="2.13457">
        <ele>2344.387</ele>
        <time>2018-06-30T13:47:31Z</time>
      </trkpt>
      <trkpt lat="42.42751" lon="2.13439">
        <ele>2341.476</ele>
        <time>2018-06-30T13:47:48Z</time>
      </trkpt>
      <trkpt lat="42.42756" lon="2.1343">
        <ele>2340.992</ele>
        <time>2018-06-30T13:48:09Z</time>
      </trkpt>
      <trkpt lat="42.42765" lon="2.13417">
        <ele>2339.938</ele>
        <time>2018-06-30T13:48:21Z</time>
      </trkpt>
      <trkpt lat="42.42766" lon="2.13415">
        <ele>2339.928</ele>
        <time>2018-06-30T13:48:23Z</time>
      </trkpt>
      <trkpt lat="42.4278" lon="2.13405">
        <ele>2337.189</ele>
        <time>2018-06-30T13:48:35Z</time>
      </trkpt>
      <trkpt lat="42.42783" lon="2.134">
        <ele>2336.617</ele>
        <time>2018-06-30T13:48:39Z</time>
      </trkpt>
      <trkpt lat="42.42786" lon="2.13396">
        <ele>2335.608</ele>
        <time>2018-06-30T13:48:42Z</time>
      </trkpt>
      <trkpt lat="42.42799" lon="2.13378">
        <ele>2332.324</ele>
        <time>2018-06-30T13:48:58Z</time>
      </trkpt>
      <trkpt lat="42.42804" lon="2.13365">
        <ele>2331.318</ele>
        <time>2018-06-30T13:49:15Z</time>
      </trkpt>
      <trkpt lat="42.42812" lon="2.13347">
        <ele>2328.46</ele>
        <time>2018-06-30T13:49:28Z</time>
      </trkpt>
      <trkpt lat="42.42816" lon="2.13333">
        <ele>2326.599</ele>
        <time>2018-06-30T13:49:40Z</time>
      </trkpt>
      <trkpt lat="42.42816" lon="2.13328">
        <ele>2325.084</ele>
        <time>2018-06-30T13:49:43Z</time>
      </trkpt>
      <trkpt lat="42.42817" lon="2.13324">
        <ele>2324.613</ele>
        <time>2018-06-30T13:49:45Z</time>
      </trkpt>
      <trkpt lat="42.42826" lon="2.13311">
        <ele>2321.299</ele>
        <time>2018-06-30T13:49:57Z</time>
      </trkpt>
      <trkpt lat="42.42834" lon="2.13299">
        <ele>2319.385</ele>
        <time>2018-06-30T13:50:10Z</time>
      </trkpt>
      <trkpt lat="42.42842" lon="2.13288">
        <ele>2315.948</ele>
        <time>2018-06-30T13:50:20Z</time>
      </trkpt>
      <trkpt lat="42.42845" lon="2.13284">
        <ele>2314.561</ele>
        <time>2018-06-30T13:50:24Z</time>
      </trkpt>
      <trkpt lat="42.42848" lon="2.13277">
        <ele>2313.017</ele>
        <time>2018-06-30T13:50:30Z</time>
      </trkpt>
      <trkpt lat="42.42858" lon="2.13261">
        <ele>2308.708</ele>
        <time>2018-06-30T13:50:43Z</time>
      </trkpt>
      <trkpt lat="42.42875" lon="2.1325">
        <ele>2305.346</ele>
        <time>2018-06-30T13:51:00Z</time>
      </trkpt>
      <trkpt lat="42.42883" lon="2.1324">
        <ele>2302.93</ele>
        <time>2018-06-30T13:51:14Z</time>
      </trkpt>
      <trkpt lat="42.42886" lon="2.13237">
        <ele>2301.042</ele>
        <time>2018-06-30T13:52:03Z</time>
      </trkpt>
      <trkpt lat="42.42888" lon="2.13236">
        <ele>2300.551</ele>
        <time>2018-06-30T13:52:07Z</time>
      </trkpt>
      <trkpt lat="42.4289" lon="2.1323">
        <ele>2300.566</ele>
        <time>2018-06-30T13:52:22Z</time>
      </trkpt>
      <trkpt lat="42.42892" lon="2.13223">
        <ele>2300.535</ele>
        <time>2018-06-30T13:52:46Z</time>
      </trkpt>
      <trkpt lat="42.42894" lon="2.13214">
        <ele>2300.011</ele>
        <time>2018-06-30T13:52:52Z</time>
      </trkpt>
      <trkpt lat="42.42901" lon="2.13197">
        <ele>2299.687</ele>
        <time>2018-06-30T13:53:06Z</time>
      </trkpt>
      <trkpt lat="42.42902" lon="2.13196">
        <ele>2299.678</ele>
        <time>2018-06-30T13:53:07Z</time>
      </trkpt>
      <trkpt lat="42.42909" lon="2.13193">
        <ele>2301.033</ele>
        <time>2018-06-30T13:53:16Z</time>
      </trkpt>
      <trkpt lat="42.42915" lon="2.13187">
        <ele>2300.026</ele>
        <time>2018-06-30T13:53:23Z</time>
      </trkpt>
      <trkpt lat="42.42918" lon="2.13186">
        <ele>2299.608</ele>
        <time>2018-06-30T13:53:25Z</time>
      </trkpt>
      <trkpt lat="42.42923" lon="2.13186">
        <ele>2299.179</ele>
        <time>2018-06-30T13:53:29Z</time>
      </trkpt>
      <trkpt lat="42.42931" lon="2.13182">
        <ele>2298.193</ele>
        <time>2018-06-30T13:53:38Z</time>
      </trkpt>
      <trkpt lat="42.42945" lon="2.1317">
        <ele>2296.255</ele>
        <time>2018-06-30T13:53:54Z</time>
      </trkpt>
      <trkpt lat="42.42949" lon="2.13166">
        <ele>2295.254</ele>
        <time>2018-06-30T13:54:09Z</time>
      </trkpt>
      <trkpt lat="42.42954" lon="2.13164">
        <ele>2276.559</ele>
        <time>2018-06-30T14:13:31Z</time>
      </trkpt>
      <trkpt lat="42.42964" lon="2.13159">
        <ele>2276.578</ele>
        <time>2018-06-30T14:13:44Z</time>
      </trkpt>
      <trkpt lat="42.42969" lon="2.13157">
        <ele>2277.954</ele>
        <time>2018-06-30T14:13:54Z</time>
      </trkpt>
      <trkpt lat="42.42973" lon="2.13156">
        <ele>2277.93</ele>
        <time>2018-06-30T14:14:05Z</time>
      </trkpt>
      <trkpt lat="42.42979" lon="2.13156">
        <ele>2277.951</ele>
        <time>2018-06-30T14:14:10Z</time>
      </trkpt>
      <trkpt lat="42.42989" lon="2.1316">
        <ele>2276.001</ele>
        <time>2018-06-30T14:14:22Z</time>
      </trkpt>
      <trkpt lat="42.43006" lon="2.13157">
        <ele>2274.611</ele>
        <time>2018-06-30T14:14:40Z</time>
      </trkpt>
      <trkpt lat="42.43018" lon="2.1315">
        <ele>2273.608</ele>
        <time>2018-06-30T14:14:56Z</time>
      </trkpt>
      <trkpt lat="42.43023" lon="2.13144">
        <ele>2273.617</ele>
        <time>2018-06-30T14:15:02Z</time>
      </trkpt>
      <trkpt lat="42.43025" lon="2.13143">
        <ele>2273.661</ele>
        <time>2018-06-30T14:15:04Z</time>
      </trkpt>
      <trkpt lat="42.43032" lon="2.13141">
        <ele>2272.253</ele>
        <time>2018-06-30T14:15:13Z</time>
      </trkpt>
      <trkpt lat="42.43033" lon="2.1314">
        <ele>2272.282</ele>
        <time>2018-06-30T14:15:14Z</time>
      </trkpt>
      <trkpt lat="42.43038" lon="2.13139">
        <ele>2272.247</ele>
        <time>2018-06-30T14:15:18Z</time>
      </trkpt>
      <trkpt lat="42.43046" lon="2.13139">
        <ele>2270.296</ele>
        <time>2018-06-30T14:15:35Z</time>
      </trkpt>
      <trkpt lat="42.4305" lon="2.13137">
        <ele>2269.852</ele>
        <time>2018-06-30T14:15:53Z</time>
      </trkpt>
      <trkpt lat="42.4307" lon="2.13134">
        <ele>2268.818</ele>
        <time>2018-06-30T14:16:08Z</time>
      </trkpt>
      <trkpt lat="42.43088" lon="2.13136">
        <ele>2267.414</ele>
        <time>2018-06-30T14:16:22Z</time>
      </trkpt>
      <trkpt lat="42.43101" lon="2.13132">
        <ele>2265.054</ele>
        <time>2018-06-30T14:16:38Z</time>
      </trkpt>
      <trkpt lat="42.43099" lon="2.13137">
        <ele>2263.509</ele>
        <time>2018-06-30T14:16:55Z</time>
      </trkpt>
      <trkpt lat="42.431" lon="2.1314">
        <ele>2261.108</ele>
        <time>2018-06-30T14:17:17Z</time>
      </trkpt>
      <trkpt lat="42.43102" lon="2.13134">
        <ele>2263.093</ele>
        <time>2018-06-30T14:17:30Z</time>
      </trkpt>
      <trkpt lat="42.43117" lon="2.13128">
        <ele>2265.497</ele>
        <time>2018-06-30T14:17:45Z</time>
      </trkpt>
      <trkpt lat="42.43118" lon="2.13129">
        <ele>2265.419</ele>
        <time>2018-06-30T14:17:46Z</time>
      </trkpt>
      <trkpt lat="42.43142" lon="2.13131">
        <ele>2263.048</ele>
        <time>2018-06-30T14:18:06Z</time>
      </trkpt>
      <trkpt lat="42.43163" lon="2.13121">
        <ele>2261.673</ele>
        <time>2018-06-30T14:18:23Z</time>
      </trkpt>
      <trkpt lat="42.43173" lon="2.13115">
        <ele>2260.672</ele>
        <time>2018-06-30T14:18:38Z</time>
      </trkpt>
      <trkpt lat="42.43177" lon="2.13108">
        <ele>2258.748</ele>
        <time>2018-06-30T14:18:44Z</time>
      </trkpt>
      <trkpt lat="42.43191" lon="2.13097">
        <ele>2257.714</ele>
        <time>2018-06-30T14:18:58Z</time>
      </trkpt>
      <trkpt lat="42.43207" lon="2.13095">
        <ele>2255.836</ele>
        <time>2018-06-30T14:19:13Z</time>
      </trkpt>
      <trkpt lat="42.4322" lon="2.13095">
        <ele>2255.817</ele>
        <time>2018-06-30T14:19:24Z</time>
      </trkpt>
      <trkpt lat="42.43234" lon="2.13098">
        <ele>2253.418</ele>
        <time>2018-06-30T14:19:39Z</time>
      </trkpt>
      <trkpt lat="42.43236" lon="2.13097">
        <ele>2252.508</ele>
        <time>2018-06-30T14:19:41Z</time>
      </trkpt>
      <trkpt lat="42.43241" lon="2.13095">
        <ele>2252.525</ele>
        <time>2018-06-30T14:19:46Z</time>
      </trkpt>
      <trkpt lat="42.43255" lon="2.13095">
        <ele>2251.559</ele>
        <time>2018-06-30T14:20:00Z</time>
      </trkpt>
      <trkpt lat="42.43262" lon="2.13094">
        <ele>2251.071</ele>
        <time>2018-06-30T14:20:11Z</time>
      </trkpt>
      <trkpt lat="42.43269" lon="2.13095">
        <ele>2249.69</ele>
        <time>2018-06-30T14:20:26Z</time>
      </trkpt>
      <trkpt lat="42.43275" lon="2.13093">
        <ele>2248.125</ele>
        <time>2018-06-30T14:20:39Z</time>
      </trkpt>
      <trkpt lat="42.43278" lon="2.13092">
        <ele>2247.734</ele>
        <time>2018-06-30T14:20:41Z</time>
      </trkpt>
      <trkpt lat="42.43288" lon="2.13088">
        <ele>2245.74</ele>
        <time>2018-06-30T14:20:54Z</time>
      </trkpt>
      <trkpt lat="42.43292" lon="2.13088">
        <ele>2244.396</ele>
        <time>2018-06-30T14:20:59Z</time>
      </trkpt>
      <trkpt lat="42.43302" lon="2.13083">
        <ele>2245.774</ele>
        <time>2018-06-30T14:21:13Z</time>
      </trkpt>
      <trkpt lat="42.43305" lon="2.13076">
        <ele>2248.656</ele>
        <time>2018-06-30T14:21:27Z</time>
      </trkpt>
      <trkpt lat="42.4331" lon="2.13074">
        <ele>2249.121</ele>
        <time>2018-06-30T14:21:38Z</time>
      </trkpt>
      <trkpt lat="42.43313" lon="2.13077">
        <ele>2247.708</ele>
        <time>2018-06-30T14:21:44Z</time>
      </trkpt>
      <trkpt lat="42.43318" lon="2.13071">
        <ele>2245.769</ele>
        <time>2018-06-30T14:21:56Z</time>
      </trkpt>
      <trkpt lat="42.43326" lon="2.13074">
        <ele>2242.863</ele>
        <time>2018-06-30T14:22:08Z</time>
      </trkpt>
      <trkpt lat="42.43327" lon="2.13079">
        <ele>2240.485</ele>
        <time>2018-06-30T14:22:22Z</time>
      </trkpt>
      <trkpt lat="42.43334" lon="2.13072">
        <ele>2238.084</ele>
        <time>2018-06-30T14:22:42Z</time>
      </trkpt>
      <trkpt lat="42.43339" lon="2.13067">
        <ele>2237.189</ele>
        <time>2018-06-30T14:22:56Z</time>
      </trkpt>
      <trkpt lat="42.43341" lon="2.13069">
        <ele>2234.788</ele>
        <time>2018-06-30T14:23:02Z</time>
      </trkpt>
      <trkpt lat="42.43351" lon="2.13067">
        <ele>2232.324</ele>
        <time>2018-06-30T14:23:14Z</time>
      </trkpt>
      <trkpt lat="42.43358" lon="2.1307">
        <ele>2229.42</ele>
        <time>2018-06-30T14:23:27Z</time>
      </trkpt>
      <trkpt lat="42.43361" lon="2.13068">
        <ele>2227.979</ele>
        <time>2018-06-30T14:23:45Z</time>
      </trkpt>
      <trkpt lat="42.4337" lon="2.13067">
        <ele>2224.605</ele>
        <time>2018-06-30T14:23:57Z</time>
      </trkpt>
      <trkpt lat="42.43375" lon="2.13066">
        <ele>2222.225</ele>
        <time>2018-06-30T14:24:09Z</time>
      </trkpt>
      <trkpt lat="42.43384" lon="2.1306">
        <ele>2219.808</ele>
        <time>2018-06-30T14:24:23Z</time>
      </trkpt>
      <trkpt lat="42.43388" lon="2.13049">
        <ele>2218.819</ele>
        <time>2018-06-30T14:24:38Z</time>
      </trkpt>
      <trkpt lat="42.43389" lon="2.13044">
        <ele>2218.363</ele>
        <time>2018-06-30T14:24:42Z</time>
      </trkpt>
      <trkpt lat="42.43391" lon="2.1304">
        <ele>2218.375</ele>
        <time>2018-06-30T14:24:46Z</time>
      </trkpt>
      <trkpt lat="42.43394" lon="2.13036">
        <ele>2217.444</ele>
        <time>2018-06-30T14:24:50Z</time>
      </trkpt>
      <trkpt lat="42.43395" lon="2.13033">
        <ele>2216.949</ele>
        <time>2018-06-30T14:25:03Z</time>
      </trkpt>
      <trkpt lat="42.43395" lon="2.13029">
        <ele>2217.498</ele>
        <time>2018-06-30T14:25:18Z</time>
      </trkpt>
      <trkpt lat="42.43403" lon="2.1302">
        <ele>2215.944</ele>
        <time>2018-06-30T14:25:26Z</time>
      </trkpt>
      <trkpt lat="42.43409" lon="2.13009">
        <ele>2214.02</ele>
        <time>2018-06-30T14:25:40Z</time>
      </trkpt>
      <trkpt lat="42.43414" lon="2.13002">
        <ele>2211.112</ele>
        <time>2018-06-30T14:25:53Z</time>
      </trkpt>
      <trkpt lat="42.43417" lon="2.12992">
        <ele>2207.832</ele>
        <time>2018-06-30T14:26:03Z</time>
      </trkpt>
      <trkpt lat="42.4342" lon="2.12992">
        <ele>2206.805</ele>
        <time>2018-06-30T14:26:17Z</time>
      </trkpt>
      <trkpt lat="42.43423" lon="2.1299">
        <ele>2205.808</ele>
        <time>2018-06-30T14:26:21Z</time>
      </trkpt>
      <trkpt lat="42.43424" lon="2.12989">
        <ele>2205.413</ele>
        <time>2018-06-30T14:26:23Z</time>
      </trkpt>
      <trkpt lat="42.43426" lon="2.12986">
        <ele>2203.967</ele>
        <time>2018-06-30T14:26:35Z</time>
      </trkpt>
      <trkpt lat="42.43425" lon="2.12975">
        <ele>2201.059</ele>
        <time>2018-06-30T14:26:42Z</time>
      </trkpt>
      <trkpt lat="42.43422" lon="2.12964">
        <ele>2199.688</ele>
        <time>2018-06-30T14:26:49Z</time>
      </trkpt>
      <trkpt lat="42.43425" lon="2.12957">
        <ele>2196.223</ele>
        <time>2018-06-30T14:26:56Z</time>
      </trkpt>
      <trkpt lat="42.43427" lon="2.12951">
        <ele>2194.322</ele>
        <time>2018-06-30T14:27:01Z</time>
      </trkpt>
      <trkpt lat="42.43431" lon="2.12939">
        <ele>2191.458</ele>
        <time>2018-06-30T14:27:11Z</time>
      </trkpt>
      <trkpt lat="42.43435" lon="2.12926">
        <ele>2189.064</ele>
        <time>2018-06-30T14:27:25Z</time>
      </trkpt>
      <trkpt lat="42.43442" lon="2.12915">
        <ele>2186.663</ele>
        <time>2018-06-30T14:27:37Z</time>
      </trkpt>
      <trkpt lat="42.43449" lon="2.12893">
        <ele>2184.744</ele>
        <time>2018-06-30T14:27:55Z</time>
      </trkpt>
      <trkpt lat="42.43456" lon="2.12882">
        <ele>2181.318</ele>
        <time>2018-06-30T14:28:09Z</time>
      </trkpt>
      <trkpt lat="42.43458" lon="2.12881">
        <ele>2179.408</ele>
        <time>2018-06-30T14:28:25Z</time>
      </trkpt>
      <trkpt lat="42.4346" lon="2.12869">
        <ele>2178.448</ele>
        <time>2018-06-30T14:28:36Z</time>
      </trkpt>
      <trkpt lat="42.43459" lon="2.12835">
        <ele>2176.012</ele>
        <time>2018-06-30T14:28:53Z</time>
      </trkpt>
      <trkpt lat="42.43465" lon="2.12828">
        <ele>2174.144</ele>
        <time>2018-06-30T14:29:01Z</time>
      </trkpt>
      <trkpt lat="42.43475" lon="2.12829">
        <ele>2173.263</ele>
        <time>2018-06-30T14:29:16Z</time>
      </trkpt>
      <trkpt lat="42.43474" lon="2.1282">
        <ele>2172.798</ele>
        <time>2018-06-30T14:29:22Z</time>
      </trkpt>
      <trkpt lat="42.4347" lon="2.12807">
        <ele>2172.217</ele>
        <time>2018-06-30T14:29:31Z</time>
      </trkpt>
      <trkpt lat="42.43472" lon="2.12801">
        <ele>2171.763</ele>
        <time>2018-06-30T14:29:37Z</time>
      </trkpt>
      <trkpt lat="42.43478" lon="2.12777">
        <ele>2170.399</ele>
        <time>2018-06-30T14:29:54Z</time>
      </trkpt>
      <trkpt lat="42.43483" lon="2.12761">
        <ele>2169.824</ele>
        <time>2018-06-30T14:30:06Z</time>
      </trkpt>
      <trkpt lat="42.43486" lon="2.12753">
        <ele>2167.904</ele>
        <time>2018-06-30T14:30:15Z</time>
      </trkpt>
      <trkpt lat="42.43486" lon="2.12751">
        <ele>2167.914</ele>
        <time>2018-06-30T14:30:17Z</time>
      </trkpt>
      <trkpt lat="42.43491" lon="2.12729">
        <ele>2166.408</ele>
        <time>2018-06-30T14:30:32Z</time>
      </trkpt>
      <trkpt lat="42.43497" lon="2.12709">
        <ele>2164.064</ele>
        <time>2018-06-30T14:30:47Z</time>
      </trkpt>
      <trkpt lat="42.43498" lon="2.12695">
        <ele>2165.068</ele>
        <time>2018-06-30T14:31:08Z</time>
      </trkpt>
      <trkpt lat="42.43506" lon="2.1269">
        <ele>2165.02</ele>
        <time>2018-06-30T14:31:18Z</time>
      </trkpt>
      <trkpt lat="42.43509" lon="2.12686">
        <ele>2163.599</ele>
        <time>2018-06-30T14:31:22Z</time>
      </trkpt>
      <trkpt lat="42.43512" lon="2.12679">
        <ele>2162.674</ele>
        <time>2018-06-30T14:31:36Z</time>
      </trkpt>
      <trkpt lat="42.43512" lon="2.12678">
        <ele>2162.623</ele>
        <time>2018-06-30T14:31:39Z</time>
      </trkpt>
      <trkpt lat="42.43513" lon="2.12672">
        <ele>2162.149</ele>
        <time>2018-06-30T14:31:43Z</time>
      </trkpt>
      <trkpt lat="42.4352" lon="2.12659">
        <ele>2163.155</ele>
        <time>2018-06-30T14:31:53Z</time>
      </trkpt>
      <trkpt lat="42.43521" lon="2.12658">
        <ele>2163.193</ele>
        <time>2018-06-30T14:31:54Z</time>
      </trkpt>
      <trkpt lat="42.43526" lon="2.12656">
        <ele>2163.565</ele>
        <time>2018-06-30T14:31:58Z</time>
      </trkpt>
      <trkpt lat="42.43543" lon="2.12639">
        <ele>2163.521</ele>
        <time>2018-06-30T14:32:16Z</time>
      </trkpt>
      <trkpt lat="42.43545" lon="2.12636">
        <ele>2162.108</ele>
        <time>2018-06-30T14:32:19Z</time>
      </trkpt>
      <trkpt lat="42.43557" lon="2.12614">
        <ele>2160.741</ele>
        <time>2018-06-30T14:32:35Z</time>
      </trkpt>
      <trkpt lat="42.43559" lon="2.12611">
        <ele>2160.725</ele>
        <time>2018-06-30T14:32:37Z</time>
      </trkpt>
      <trkpt lat="42.43574" lon="2.12592">
        <ele>2159.747</ele>
        <time>2018-06-30T14:32:55Z</time>
      </trkpt>
      <trkpt lat="42.43578" lon="2.12583">
        <ele>2159.226</ele>
        <time>2018-06-30T14:33:11Z</time>
      </trkpt>
      <trkpt lat="42.4358" lon="2.12575">
        <ele>2158.741</ele>
        <time>2018-06-30T14:33:25Z</time>
      </trkpt>
      <trkpt lat="42.43587" lon="2.12564">
        <ele>2157.83</ele>
        <time>2018-06-30T14:33:41Z</time>
      </trkpt>
      <trkpt lat="42.43589" lon="2.12562">
        <ele>2157.836</ele>
        <time>2018-06-30T14:33:44Z</time>
      </trkpt>
      <trkpt lat="42.4359" lon="2.1256">
        <ele>2157.842</ele>
        <time>2018-06-30T14:33:46Z</time>
      </trkpt>
      <trkpt lat="42.436" lon="2.12554">
        <ele>2155.865</ele>
        <time>2018-06-30T14:34:02Z</time>
      </trkpt>
      <trkpt lat="42.4361" lon="2.12545">
        <ele>2154.468</ele>
        <time>2018-06-30T14:34:18Z</time>
      </trkpt>
      <trkpt lat="42.4362" lon="2.12541">
        <ele>2154.414</ele>
        <time>2018-06-30T14:34:33Z</time>
      </trkpt>
      <trkpt lat="42.43626" lon="2.12533">
        <ele>2153.408</ele>
        <time>2018-06-30T14:34:41Z</time>
      </trkpt>
      <trkpt lat="42.43631" lon="2.1253">
        <ele>2154.948</ele>
        <time>2018-06-30T14:34:45Z</time>
      </trkpt>
      <trkpt lat="42.43642" lon="2.12515">
        <ele>2152.022</ele>
        <time>2018-06-30T14:34:57Z</time>
      </trkpt>
      <trkpt lat="42.43653" lon="2.12502">
        <ele>2148.694</ele>
        <time>2018-06-30T14:35:07Z</time>
      </trkpt>
      <trkpt lat="42.43664" lon="2.1248">
        <ele>2146.243</ele>
        <time>2018-06-30T14:35:26Z</time>
      </trkpt>
      <trkpt lat="42.43668" lon="2.12462">
        <ele>2144.888</ele>
        <time>2018-06-30T14:35:41Z</time>
      </trkpt>
      <trkpt lat="42.43675" lon="2.12442">
        <ele>2143.827</ele>
        <time>2018-06-30T14:35:57Z</time>
      </trkpt>
      <trkpt lat="42.43675" lon="2.12441">
        <ele>2143.823</ele>
        <time>2018-06-30T14:36:03Z</time>
      </trkpt>
      <trkpt lat="42.43689" lon="2.1242">
        <ele>2141.949</ele>
        <time>2018-06-30T14:36:18Z</time>
      </trkpt>
      <trkpt lat="42.43697" lon="2.12413">
        <ele>2142.498</ele>
        <time>2018-06-30T14:36:24Z</time>
      </trkpt>
      <trkpt lat="42.43702" lon="2.1241">
        <ele>2141.915</ele>
        <time>2018-06-30T14:36:28Z</time>
      </trkpt>
      <trkpt lat="42.43713" lon="2.12404">
        <ele>2141.926</ele>
        <time>2018-06-30T14:36:37Z</time>
      </trkpt>
      <trkpt lat="42.43715" lon="2.12401">
        <ele>2142.908</ele>
        <time>2018-06-30T14:36:39Z</time>
      </trkpt>
      <trkpt lat="42.4372" lon="2.12378">
        <ele>2141.911</ele>
        <time>2018-06-30T14:36:53Z</time>
      </trkpt>
      <trkpt lat="42.43725" lon="2.12359">
        <ele>2140.555</ele>
        <time>2018-06-30T14:37:05Z</time>
      </trkpt>
      <trkpt lat="42.43734" lon="2.12346">
        <ele>2141.987</ele>
        <time>2018-06-30T14:37:17Z</time>
      </trkpt>
      <trkpt lat="42.43737" lon="2.12338">
        <ele>2142.496</ele>
        <time>2018-06-30T14:37:29Z</time>
      </trkpt>
      <trkpt lat="42.43742" lon="2.12331">
        <ele>2140.571</ele>
        <time>2018-06-30T14:37:38Z</time>
      </trkpt>
      <trkpt lat="42.43745" lon="2.12326">
        <ele>2140.01</ele>
        <time>2018-06-30T14:37:43Z</time>
      </trkpt>
      <trkpt lat="42.43752" lon="2.12319">
        <ele>2138.516</ele>
        <time>2018-06-30T14:37:50Z</time>
      </trkpt>
      <trkpt lat="42.43755" lon="2.12314">
        <ele>2138.182</ele>
        <time>2018-06-30T14:37:54Z</time>
      </trkpt>
      <trkpt lat="42.43763" lon="2.12297">
        <ele>2136.634</ele>
        <time>2018-06-30T14:38:08Z</time>
      </trkpt>
      <trkpt lat="42.43764" lon="2.12295">
        <ele>2136.655</ele>
        <time>2018-06-30T14:38:26Z</time>
      </trkpt>
      <trkpt lat="42.43766" lon="2.12292">
        <ele>2136.11</ele>
        <time>2018-06-30T14:38:33Z</time>
      </trkpt>
      <trkpt lat="42.43774" lon="2.12281">
        <ele>2135.708</ele>
        <time>2018-06-30T14:38:47Z</time>
      </trkpt>
      <trkpt lat="42.43791" lon="2.12263">
        <ele>2134.215</ele>
        <time>2018-06-30T14:39:05Z</time>
      </trkpt>
      <trkpt lat="42.43801" lon="2.12258">
        <ele>2133.339</ele>
        <time>2018-06-30T14:39:18Z</time>
      </trkpt>
      <trkpt lat="42.43804" lon="2.12255">
        <ele>2132.861</ele>
        <time>2018-06-30T14:39:34Z</time>
      </trkpt>
      <trkpt lat="42.43826" lon="2.12252">
        <ele>2131.89</ele>
        <time>2018-06-30T14:39:52Z</time>
      </trkpt>
      <trkpt lat="42.43837" lon="2.12247">
        <ele>2130.935</ele>
        <time>2018-06-30T14:40:02Z</time>
      </trkpt>
      <trkpt lat="42.43854" lon="2.12244">
        <ele>2130.414</ele>
        <time>2018-06-30T14:40:16Z</time>
      </trkpt>
      <trkpt lat="42.43872" lon="2.12237">
        <ele>2129.99</ele>
        <time>2018-06-30T14:40:32Z</time>
      </trkpt>
      <trkpt lat="42.43881" lon="2.12229">
        <ele>2128.926</ele>
        <time>2018-06-30T14:40:40Z</time>
      </trkpt>
      <trkpt lat="42.43886" lon="2.12225">
        <ele>2128.596</ele>
        <time>2018-06-30T14:40:46Z</time>
      </trkpt>
      <trkpt lat="42.43891" lon="2.12223">
        <ele>2128.031</ele>
        <time>2018-06-30T14:40:50Z</time>
      </trkpt>
      <trkpt lat="42.43905" lon="2.12203">
        <ele>2127.524</ele>
        <time>2018-06-30T14:41:07Z</time>
      </trkpt>
      <trkpt lat="42.43911" lon="2.12189">
        <ele>2126.508</ele>
        <time>2018-06-30T14:41:20Z</time>
      </trkpt>
      <trkpt lat="42.43912" lon="2.12186">
        <ele>2126.521</ele>
        <time>2018-06-30T14:41:35Z</time>
      </trkpt>
      <trkpt lat="42.43912" lon="2.12184">
        <ele>2126.015</ele>
        <time>2018-06-30T14:42:04Z</time>
      </trkpt>
      <trkpt lat="42.43917" lon="2.12176">
        <ele>2126.047</ele>
        <time>2018-06-30T14:42:09Z</time>
      </trkpt>
      <trkpt lat="42.4393" lon="2.12155">
        <ele>2126.096</ele>
        <time>2018-06-30T14:42:24Z</time>
      </trkpt>
      <trkpt lat="42.4393" lon="2.12154">
        <ele>2126.011</ele>
        <time>2018-06-30T14:42:25Z</time>
      </trkpt>
      <trkpt lat="42.4394" lon="2.12141">
        <ele>2126.03</ele>
        <time>2018-06-30T14:42:35Z</time>
      </trkpt>
      <trkpt lat="42.43956" lon="2.12125">
        <ele>2125.676</ele>
        <time>2018-06-30T14:42:51Z</time>
      </trkpt>
      <trkpt lat="42.43962" lon="2.12125">
        <ele>2125.672</ele>
        <time>2018-06-30T14:42:57Z</time>
      </trkpt>
      <trkpt lat="42.43968" lon="2.12124">
        <ele>2126.512</ele>
        <time>2018-06-30T14:43:02Z</time>
      </trkpt>
      <trkpt lat="42.4397" lon="2.12123">
        <ele>2126.532</ele>
        <time>2018-06-30T14:43:03Z</time>
      </trkpt>
      <trkpt lat="42.43982" lon="2.12104">
        <ele>2127.005</ele>
        <time>2018-06-30T14:43:20Z</time>
      </trkpt>
      <trkpt lat="42.43995" lon="2.12088">
        <ele>2127.508</ele>
        <time>2018-06-30T14:43:35Z</time>
      </trkpt>
      <trkpt lat="42.4401" lon="2.12073">
        <ele>2127.563</ele>
        <time>2018-06-30T14:43:50Z</time>
      </trkpt>
      <trkpt lat="42.44021" lon="2.12068">
        <ele>2128.027</ele>
        <time>2018-06-30T14:44:05Z</time>
      </trkpt>
      <trkpt lat="42.44028" lon="2.12053">
        <ele>2127.599</ele>
        <time>2018-06-30T14:44:20Z</time>
      </trkpt>
      <trkpt lat="42.4403" lon="2.12046">
        <ele>2126.088</ele>
        <time>2018-06-30T14:44:27Z</time>
      </trkpt>
      <trkpt lat="42.44039" lon="2.12038">
        <ele>2123.633</ele>
        <time>2018-06-30T14:44:40Z</time>
      </trkpt>
      <trkpt lat="42.44048" lon="2.12024">
        <ele>2120.882</ele>
        <time>2018-06-30T14:44:55Z</time>
      </trkpt>
      <trkpt lat="42.4405" lon="2.12022">
        <ele>2120.388</ele>
        <time>2018-06-30T14:44:58Z</time>
      </trkpt>
      <trkpt lat="42.44053" lon="2.12019">
        <ele>2120.384</ele>
        <time>2018-06-30T14:45:02Z</time>
      </trkpt>
      <trkpt lat="42.44069" lon="2.12008">
        <ele>2117.478</ele>
        <time>2018-06-30T14:45:18Z</time>
      </trkpt>
      <trkpt lat="42.44079" lon="2.12003">
        <ele>2115.533</ele>
        <time>2018-06-30T14:45:33Z</time>
      </trkpt>
      <trkpt lat="42.44082" lon="2.11998">
        <ele>2114.526</ele>
        <time>2018-06-30T14:45:47Z</time>
      </trkpt>
      <trkpt lat="42.44095" lon="2.11986">
        <ele>2112.108</ele>
        <time>2018-06-30T14:45:59Z</time>
      </trkpt>
      <trkpt lat="42.44098" lon="2.11979">
        <ele>2112.159</ele>
        <time>2018-06-30T14:46:04Z</time>
      </trkpt>
      <trkpt lat="42.44113" lon="2.11962">
        <ele>2110.763</ele>
        <time>2018-06-30T14:46:19Z</time>
      </trkpt>
      <trkpt lat="42.44126" lon="2.11942">
        <ele>2109.295</ele>
        <time>2018-06-30T14:46:34Z</time>
      </trkpt>
      <trkpt lat="42.44129" lon="2.11936">
        <ele>2108.764</ele>
        <time>2018-06-30T14:46:46Z</time>
      </trkpt>
      <trkpt lat="42.44136" lon="2.11921">
        <ele>2108.739</ele>
        <time>2018-06-30T14:46:58Z</time>
      </trkpt>
      <trkpt lat="42.44151" lon="2.11909">
        <ele>2106.878</ele>
        <time>2018-06-30T14:47:13Z</time>
      </trkpt>
      <trkpt lat="42.44166" lon="2.11889">
        <ele>2104.984</ele>
        <time>2018-06-30T14:47:30Z</time>
      </trkpt>
      <trkpt lat="42.44171" lon="2.11872">
        <ele>2103.51</ele>
        <time>2018-06-30T14:47:45Z</time>
      </trkpt>
      <trkpt lat="42.44175" lon="2.1187">
        <ele>2102.093</ele>
        <time>2018-06-30T14:48:18Z</time>
      </trkpt>
      <trkpt lat="42.44175" lon="2.11863">
        <ele>2101.165</ele>
        <time>2018-06-30T14:48:35Z</time>
      </trkpt>
      <trkpt lat="42.44179" lon="2.11859">
        <ele>2099.121</ele>
        <time>2018-06-30T14:48:51Z</time>
      </trkpt>
      <trkpt lat="42.44181" lon="2.1185">
        <ele>2095.808</ele>
        <time>2018-06-30T14:49:02Z</time>
      </trkpt>
      <trkpt lat="42.44185" lon="2.11846">
        <ele>2092.931</ele>
        <time>2018-06-30T14:49:33Z</time>
      </trkpt>
      <trkpt lat="42.44188" lon="2.11843">
        <ele>2090.525</ele>
        <time>2018-06-30T14:49:49Z</time>
      </trkpt>
      <trkpt lat="42.44189" lon="2.11841">
        <ele>2090.087</ele>
        <time>2018-06-30T14:50:05Z</time>
      </trkpt>
      <trkpt lat="42.44193" lon="2.11838">
        <ele>2088.626</ele>
        <time>2018-06-30T14:50:18Z</time>
      </trkpt>
      <trkpt lat="42.44199" lon="2.11835">
        <ele>2085.751</ele>
        <time>2018-06-30T14:50:32Z</time>
      </trkpt>
      <trkpt lat="42.44206" lon="2.11834">
        <ele>2082.34</ele>
        <time>2018-06-30T14:51:04Z</time>
      </trkpt>
      <trkpt lat="42.44211" lon="2.11832">
        <ele>2079.416</ele>
        <time>2018-06-30T14:51:11Z</time>
      </trkpt>
      <trkpt lat="42.44216" lon="2.11827">
        <ele>2078.522</ele>
        <time>2018-06-30T14:51:16Z</time>
      </trkpt>
      <trkpt lat="42.44219" lon="2.11823">
        <ele>2077.092</ele>
        <time>2018-06-30T14:51:22Z</time>
      </trkpt>
      <trkpt lat="42.44228" lon="2.11817">
        <ele>2074.173</ele>
        <time>2018-06-30T14:51:35Z</time>
      </trkpt>
      <trkpt lat="42.44234" lon="2.1182">
        <ele>2071.32</ele>
        <time>2018-06-30T14:51:47Z</time>
      </trkpt>
      <trkpt lat="42.44238" lon="2.11818">
        <ele>2069.808</ele>
        <time>2018-06-30T14:51:53Z</time>
      </trkpt>
      <trkpt lat="42.4425" lon="2.11817">
        <ele>2066.031</ele>
        <time>2018-06-30T14:52:03Z</time>
      </trkpt>
      <trkpt lat="42.4426" lon="2.11819">
        <ele>2063.165</ele>
        <time>2018-06-30T14:52:15Z</time>
      </trkpt>
      <trkpt lat="42.4427" lon="2.11812">
        <ele>2060.717</ele>
        <time>2018-06-30T14:52:29Z</time>
      </trkpt>
      <trkpt lat="42.44276" lon="2.11809">
        <ele>2058.836</ele>
        <time>2018-06-30T14:52:36Z</time>
      </trkpt>
      <trkpt lat="42.44285" lon="2.11794">
        <ele>2055.911</ele>
        <time>2018-06-30T14:52:52Z</time>
      </trkpt>
      <trkpt lat="42.44289" lon="2.11787">
        <ele>2054.49</ele>
        <time>2018-06-30T14:52:58Z</time>
      </trkpt>
      <trkpt lat="42.44297" lon="2.11774">
        <ele>2051.546</ele>
        <time>2018-06-30T14:53:12Z</time>
      </trkpt>
      <trkpt lat="42.44301" lon="2.11772">
        <ele>2051.132</ele>
        <time>2018-06-30T14:53:17Z</time>
      </trkpt>
      <trkpt lat="42.4431" lon="2.11758">
        <ele>2049.186</ele>
        <time>2018-06-30T14:53:32Z</time>
      </trkpt>
      <trkpt lat="42.44315" lon="2.11752">
        <ele>2047.76</ele>
        <time>2018-06-30T14:53:46Z</time>
      </trkpt>
      <trkpt lat="42.44316" lon="2.11751">
        <ele>2047.726</ele>
        <time>2018-06-30T14:53:50Z</time>
      </trkpt>
      <trkpt lat="42.44318" lon="2.11744">
        <ele>2047.208</ele>
        <time>2018-06-30T14:53:55Z</time>
      </trkpt>
      <trkpt lat="42.44331" lon="2.11731">
        <ele>2044.88</ele>
        <time>2018-06-30T14:54:09Z</time>
      </trkpt>
      <trkpt lat="42.4434" lon="2.11715">
        <ele>2043.414</ele>
        <time>2018-06-30T14:54:25Z</time>
      </trkpt>
      <trkpt lat="42.44349" lon="2.11709">
        <ele>2041.966</ele>
        <time>2018-06-30T14:54:38Z</time>
      </trkpt>
      <trkpt lat="42.44355" lon="2.11695">
        <ele>2040.515</ele>
        <time>2018-06-30T14:54:49Z</time>
      </trkpt>
      <trkpt lat="42.44366" lon="2.11678">
        <ele>2039.05</ele>
        <time>2018-06-30T14:55:04Z</time>
      </trkpt>
      <trkpt lat="42.44367" lon="2.11676">
        <ele>2038.699</ele>
        <time>2018-06-30T14:55:07Z</time>
      </trkpt>
      <trkpt lat="42.44369" lon="2.11667">
        <ele>2037.195</ele>
        <time>2018-06-30T14:55:20Z</time>
      </trkpt>
      <trkpt lat="42.44372" lon="2.11659">
        <ele>2037.141</ele>
        <time>2018-06-30T14:55:32Z</time>
      </trkpt>
      <trkpt lat="42.44383" lon="2.11635">
        <ele>2035.221</ele>
        <time>2018-06-30T14:55:47Z</time>
      </trkpt>
      <trkpt lat="42.44394" lon="2.11613">
        <ele>2035.241</ele>
        <time>2018-06-30T14:56:03Z</time>
      </trkpt>
      <trkpt lat="42.44399" lon="2.11615">
        <ele>2035.205</ele>
        <time>2018-06-30T14:56:19Z</time>
      </trkpt>
      <trkpt lat="42.44398" lon="2.11612">
        <ele>2035.208</ele>
        <time>2018-06-30T14:56:35Z</time>
      </trkpt>
      <trkpt lat="42.444" lon="2.11605">
        <ele>2035.244</ele>
        <time>2018-06-30T14:56:50Z</time>
      </trkpt>
      <trkpt lat="42.44408" lon="2.11601">
        <ele>2033.348</ele>
        <time>2018-06-30T14:57:00Z</time>
      </trkpt>
      <trkpt lat="42.44416" lon="2.11586">
        <ele>2029.98</ele>
        <time>2018-06-30T14:57:12Z</time>
      </trkpt>
      <trkpt lat="42.44425" lon="2.11571">
        <ele>2029.079</ele>
        <time>2018-06-30T14:57:25Z</time>
      </trkpt>
      <trkpt lat="42.44442" lon="2.11556">
        <ele>2027.074</ele>
        <time>2018-06-30T14:57:40Z</time>
      </trkpt>
      <trkpt lat="42.44454" lon="2.11538">
        <ele>2025.163</ele>
        <time>2018-06-30T14:57:54Z</time>
      </trkpt>
      <trkpt lat="42.44465" lon="2.1151">
        <ele>2023.229</ele>
        <time>2018-06-30T14:58:12Z</time>
      </trkpt>
      <trkpt lat="42.44468" lon="2.11501">
        <ele>2021.795</ele>
        <time>2018-06-30T14:58:18Z</time>
      </trkpt>
      <trkpt lat="42.44475" lon="2.11478">
        <ele>2019.381</ele>
        <time>2018-06-30T14:58:34Z</time>
      </trkpt>
      <trkpt lat="42.44483" lon="2.11457">
        <ele>2018.961</ele>
        <time>2018-06-30T14:58:48Z</time>
      </trkpt>
      <trkpt lat="42.44487" lon="2.11446">
        <ele>2017.417</ele>
        <time>2018-06-30T14:58:56Z</time>
      </trkpt>
      <trkpt lat="42.44497" lon="2.1143">
        <ele>2015.508</ele>
        <time>2018-06-30T14:59:09Z</time>
      </trkpt>
      <trkpt lat="42.44498" lon="2.11413">
        <ele>2015.57</ele>
        <time>2018-06-30T14:59:23Z</time>
      </trkpt>
      <trkpt lat="42.44499" lon="2.11407">
        <ele>2015.534</ele>
        <time>2018-06-30T14:59:27Z</time>
      </trkpt>
      <trkpt lat="42.44513" lon="2.1139">
        <ele>2013.646</ele>
        <time>2018-06-30T14:59:44Z</time>
      </trkpt>
      <trkpt lat="42.44523" lon="2.11381">
        <ele>2012.685</ele>
        <time>2018-06-30T14:59:56Z</time>
      </trkpt>
      <trkpt lat="42.44524" lon="2.11379">
        <ele>2010.78</ele>
        <time>2018-06-30T14:59:58Z</time>
      </trkpt>
      <trkpt lat="42.44534" lon="2.11365">
        <ele>2009.789</ele>
        <time>2018-06-30T15:00:11Z</time>
      </trkpt>
      <trkpt lat="42.4454" lon="2.11355">
        <ele>2008.885</ele>
        <time>2018-06-30T15:00:25Z</time>
      </trkpt>
      <trkpt lat="42.44544" lon="2.11343">
        <ele>2008.321</ele>
        <time>2018-06-30T15:00:35Z</time>
      </trkpt>
      <trkpt lat="42.44555" lon="2.11323">
        <ele>2004.968</ele>
        <time>2018-06-30T15:00:51Z</time>
      </trkpt>
      <trkpt lat="42.4456" lon="2.11313">
        <ele>2004.442</ele>
        <time>2018-06-30T15:01:01Z</time>
      </trkpt>
      <trkpt lat="42.44561" lon="2.11309">
        <ele>2004.426</ele>
        <time>2018-06-30T15:01:04Z</time>
      </trkpt>
      <trkpt lat="42.44561" lon="2.11305">
        <ele>2004.408</ele>
        <time>2018-06-30T15:01:06Z</time>
      </trkpt>
      <trkpt lat="42.4457" lon="2.11285">
        <ele>2004.428</ele>
        <time>2018-06-30T15:01:21Z</time>
      </trkpt>
      <trkpt lat="42.44583" lon="2.11272">
        <ele>2003.092</ele>
        <time>2018-06-30T15:01:35Z</time>
      </trkpt>
      <trkpt lat="42.44595" lon="2.11262">
        <ele>1999.664</ele>
        <time>2018-06-30T15:01:50Z</time>
      </trkpt>
      <trkpt lat="42.44596" lon="2.11262">
        <ele>1999.693</ele>
        <time>2018-06-30T15:01:51Z</time>
      </trkpt>
      <trkpt lat="42.44608" lon="2.11252">
        <ele>1998.238</ele>
        <time>2018-06-30T15:02:04Z</time>
      </trkpt>
      <trkpt lat="42.44625" lon="2.11231">
        <ele>1995.817</ele>
        <time>2018-06-30T15:02:22Z</time>
      </trkpt>
      <trkpt lat="42.4464" lon="2.11214">
        <ele>1994.853</ele>
        <time>2018-06-30T15:02:37Z</time>
      </trkpt>
      <trkpt lat="42.44645" lon="2.11199">
        <ele>1991.549</ele>
        <time>2018-06-30T15:02:49Z</time>
      </trkpt>
      <trkpt lat="42.44652" lon="2.11185">
        <ele>1988.125</ele>
        <time>2018-06-30T15:03:03Z</time>
      </trkpt>
      <trkpt lat="42.44662" lon="2.11167">
        <ele>1984.726</ele>
        <time>2018-06-30T15:03:18Z</time>
      </trkpt>
      <trkpt lat="42.44663" lon="2.11163">
        <ele>1984.708</ele>
        <time>2018-06-30T15:03:30Z</time>
      </trkpt>
      <trkpt lat="42.44666" lon="2.11135">
        <ele>1981.408</ele>
        <time>2018-06-30T15:03:56Z</time>
      </trkpt>
      <trkpt lat="42.44668" lon="2.11114">
        <ele>1979.964</ele>
        <time>2018-06-30T15:04:09Z</time>
      </trkpt>
      <trkpt lat="42.44676" lon="2.11102">
        <ele>1978.058</ele>
        <time>2018-06-30T15:04:19Z</time>
      </trkpt>
      <trkpt lat="42.44679" lon="2.11094">
        <ele>1977.58</ele>
        <time>2018-06-30T15:04:24Z</time>
      </trkpt>
      <trkpt lat="42.44681" lon="2.11087">
        <ele>1977.579</ele>
        <time>2018-06-30T15:04:41Z</time>
      </trkpt>
      <trkpt lat="42.44688" lon="2.11073">
        <ele>1977.024</ele>
        <time>2018-06-30T15:05:00Z</time>
      </trkpt>
      <trkpt lat="42.44697" lon="2.11057">
        <ele>1975.163</ele>
        <time>2018-06-30T15:05:16Z</time>
      </trkpt>
      <trkpt lat="42.447" lon="2.11052">
        <ele>1974.669</ele>
        <time>2018-06-30T15:05:21Z</time>
      </trkpt>
      <trkpt lat="42.44705" lon="2.11048">
        <ele>1973.745</ele>
        <time>2018-06-30T15:05:25Z</time>
      </trkpt>
      <trkpt lat="42.44709" lon="2.11039">
        <ele>1972.792</ele>
        <time>2018-06-30T15:05:33Z</time>
      </trkpt>
      <trkpt lat="42.44719" lon="2.11021">
        <ele>1971.373</ele>
        <time>2018-06-30T15:05:49Z</time>
      </trkpt>
      <trkpt lat="42.44723" lon="2.11016">
        <ele>1971.32</ele>
        <time>2018-06-30T15:05:55Z</time>
      </trkpt>
      <trkpt lat="42.44729" lon="2.11012">
        <ele>1970.308</ele>
        <time>2018-06-30T15:06:02Z</time>
      </trkpt>
      <trkpt lat="42.44732" lon="2.11008">
        <ele>1968.471</ele>
        <time>2018-06-30T15:06:17Z</time>
      </trkpt>
      <trkpt lat="42.44736" lon="2.11006">
        <ele>1970.355</ele>
        <time>2018-06-30T15:06:34Z</time>
      </trkpt>
      <trkpt lat="42.44736" lon="2.11005">
        <ele>1970.387</ele>
        <time>2018-06-30T15:06:35Z</time>
      </trkpt>
      <trkpt lat="42.44744" lon="2.11">
        <ele>1967.486</ele>
        <time>2018-06-30T15:06:45Z</time>
      </trkpt>
      <trkpt lat="42.44763" lon="2.10989">
        <ele>1966.071</ele>
        <time>2018-06-30T15:07:02Z</time>
      </trkpt>
      <trkpt lat="42.44782" lon="2.10986">
        <ele>1964.11</ele>
        <time>2018-06-30T15:07:18Z</time>
      </trkpt>
      <trkpt lat="42.4479" lon="2.10977">
        <ele>1961.246</ele>
        <time>2018-06-30T15:07:30Z</time>
      </trkpt>
      <trkpt lat="42.44799" lon="2.10959">
        <ele>1960.212</ele>
        <time>2018-06-30T15:07:46Z</time>
      </trkpt>
      <trkpt lat="42.44814" lon="2.10941">
        <ele>1958.894</ele>
        <time>2018-06-30T15:08:03Z</time>
      </trkpt>
      <trkpt lat="42.44826" lon="2.10929">
        <ele>1956.457</ele>
        <time>2018-06-30T15:08:18Z</time>
      </trkpt>
      <trkpt lat="42.44842" lon="2.10916">
        <ele>1954.022</ele>
        <time>2018-06-30T15:08:33Z</time>
      </trkpt>
      <trkpt lat="42.44854" lon="2.1091">
        <ele>1950.608</ele>
        <time>2018-06-30T15:08:44Z</time>
      </trkpt>
      <trkpt lat="42.44862" lon="2.10901">
        <ele>1949.621</ele>
        <time>2018-06-30T15:08:56Z</time>
      </trkpt>
      <trkpt lat="42.44865" lon="2.10892">
        <ele>1948.255</ele>
        <time>2018-06-30T15:09:03Z</time>
      </trkpt>
      <trkpt lat="42.44873" lon="2.1087">
        <ele>1946.357</ele>
        <time>2018-06-30T15:09:20Z</time>
      </trkpt>
      <trkpt lat="42.44878" lon="2.10869">
        <ele>1945.876</ele>
        <time>2018-06-30T15:09:24Z</time>
      </trkpt>
      <trkpt lat="42.44896" lon="2.10856">
        <ele>1944.421</ele>
        <time>2018-06-30T15:09:41Z</time>
      </trkpt>
      <trkpt lat="42.44906" lon="2.10846">
        <ele>1943.91</ele>
        <time>2018-06-30T15:09:54Z</time>
      </trkpt>
      <trkpt lat="42.44912" lon="2.10837">
        <ele>1942.446</ele>
        <time>2018-06-30T15:10:07Z</time>
      </trkpt>
      <trkpt lat="42.44929" lon="2.10823">
        <ele>1941.082</ele>
        <time>2018-06-30T15:10:23Z</time>
      </trkpt>
      <trkpt lat="42.44938" lon="2.10819">
        <ele>1941.098</ele>
        <time>2018-06-30T15:10:39Z</time>
      </trkpt>
      <trkpt lat="42.44949" lon="2.108">
        <ele>1938.615</ele>
        <time>2018-06-30T15:10:55Z</time>
      </trkpt>
      <trkpt lat="42.44967" lon="2.10776">
        <ele>1936.726</ele>
        <time>2018-06-30T15:11:10Z</time>
      </trkpt>
      <trkpt lat="42.44979" lon="2.10756">
        <ele>1934.708</ele>
        <time>2018-06-30T15:11:27Z</time>
      </trkpt>
      <trkpt lat="42.44998" lon="2.10748">
        <ele>1933.811</ele>
        <time>2018-06-30T15:11:41Z</time>
      </trkpt>
      <trkpt lat="42.45006" lon="2.10739">
        <ele>1931.935</ele>
        <time>2018-06-30T15:11:55Z</time>
      </trkpt>
      <trkpt lat="42.45012" lon="2.10724">
        <ele>1930.457</ele>
        <time>2018-06-30T15:12:11Z</time>
      </trkpt>
      <trkpt lat="42.45021" lon="2.10714">
        <ele>1929.016</ele>
        <time>2018-06-30T15:12:22Z</time>
      </trkpt>
      <trkpt lat="42.45022" lon="2.10706">
        <ele>1928.051</ele>
        <time>2018-06-30T15:12:39Z</time>
      </trkpt>
      <trkpt lat="42.45023" lon="2.10704">
        <ele>1927.57</ele>
        <time>2018-06-30T15:12:45Z</time>
      </trkpt>
      <trkpt lat="42.45041" lon="2.10694">
        <ele>1925.656</ele>
        <time>2018-06-30T15:13:03Z</time>
      </trkpt>
      <trkpt lat="42.4505" lon="2.1069">
        <ele>1924.782</ele>
        <time>2018-06-30T15:13:18Z</time>
      </trkpt>
      <trkpt lat="42.45061" lon="2.10683">
        <ele>1922.266</ele>
        <time>2018-06-30T15:13:34Z</time>
      </trkpt>
      <trkpt lat="42.45073" lon="2.10666">
        <ele>1920.829</ele>
        <time>2018-06-30T15:13:48Z</time>
      </trkpt>
      <trkpt lat="42.45085" lon="2.10649">
        <ele>1920.321</ele>
        <time>2018-06-30T15:14:03Z</time>
      </trkpt>
      <trkpt lat="42.45093" lon="2.10641">
        <ele>1919.808</ele>
        <time>2018-06-30T15:14:14Z</time>
      </trkpt>
      <trkpt lat="42.45101" lon="2.10625">
        <ele>1918.418</ele>
        <time>2018-06-30T15:14:30Z</time>
      </trkpt>
      <trkpt lat="42.45107" lon="2.10609">
        <ele>1915.092</ele>
        <time>2018-06-30T15:14:43Z</time>
      </trkpt>
      <trkpt lat="42.45107" lon="2.10607">
        <ele>1914.194</ele>
        <time>2018-06-30T15:14:45Z</time>
      </trkpt>
      <trkpt lat="42.4511" lon="2.10601">
        <ele>1913.653</ele>
        <time>2018-06-30T15:14:50Z</time>
      </trkpt>
      <trkpt lat="42.45125" lon="2.10578">
        <ele>1912.268</ele>
        <time>2018-06-30T15:15:07Z</time>
      </trkpt>
      <trkpt lat="42.45133" lon="2.1057">
        <ele>1911.227</ele>
        <time>2018-06-30T15:15:17Z</time>
      </trkpt>
      <trkpt lat="42.45137" lon="2.10568">
        <ele>1909.883</ele>
        <time>2018-06-30T15:15:20Z</time>
      </trkpt>
      <trkpt lat="42.4514" lon="2.10566">
        <ele>1911.719</ele>
        <time>2018-06-30T15:15:25Z</time>
      </trkpt>
      <trkpt lat="42.45142" lon="2.10561">
        <ele>1911.774</ele>
        <time>2018-06-30T15:15:39Z</time>
      </trkpt>
      <trkpt lat="42.45143" lon="2.10557">
        <ele>1910.256</ele>
        <time>2018-06-30T15:15:44Z</time>
      </trkpt>
      <trkpt lat="42.45147" lon="2.10556">
        <ele>1909.821</ele>
        <time>2018-06-30T15:15:48Z</time>
      </trkpt>
      <trkpt lat="42.45154" lon="2.10549">
        <ele>1907.808</ele>
        <time>2018-06-30T15:16:01Z</time>
      </trkpt>
      <trkpt lat="42.45163" lon="2.10537">
        <ele>1905.969</ele>
        <time>2018-06-30T15:16:16Z</time>
      </trkpt>
      <trkpt lat="42.45172" lon="2.10526">
        <ele>1903.563</ele>
        <time>2018-06-30T15:16:30Z</time>
      </trkpt>
      <trkpt lat="42.45186" lon="2.10518">
        <ele>1901.145</ele>
        <time>2018-06-30T15:16:46Z</time>
      </trkpt>
      <trkpt lat="42.45195" lon="2.10513">
        <ele>1898.764</ele>
        <time>2018-06-30T15:16:56Z</time>
      </trkpt>
      <trkpt lat="42.45201" lon="2.10507">
        <ele>1898.229</ele>
        <time>2018-06-30T15:17:02Z</time>
      </trkpt>
      <trkpt lat="42.45208" lon="2.10491">
        <ele>1896.378</ele>
        <time>2018-06-30T15:17:16Z</time>
      </trkpt>
      <trkpt lat="42.45218" lon="2.10479">
        <ele>1895.324</ele>
        <time>2018-06-30T15:17:31Z</time>
      </trkpt>
      <trkpt lat="42.45224" lon="2.10463">
        <ele>1892.46</ele>
        <time>2018-06-30T15:17:47Z</time>
      </trkpt>
      <trkpt lat="42.4523" lon="2.10446">
        <ele>1890.587</ele>
        <time>2018-06-30T15:18:02Z</time>
      </trkpt>
      <trkpt lat="42.45234" lon="2.10436">
        <ele>1889.142</ele>
        <time>2018-06-30T15:18:11Z</time>
      </trkpt>
      <trkpt lat="42.45239" lon="2.10431">
        <ele>1887.226</ele>
        <time>2018-06-30T15:18:27Z</time>
      </trkpt>
      <trkpt lat="42.45241" lon="2.10418">
        <ele>1886.208</ele>
        <time>2018-06-30T15:18:39Z</time>
      </trkpt>
      <trkpt lat="42.45247" lon="2.10403">
        <ele>1885.24</ele>
        <time>2018-06-30T15:18:50Z</time>
      </trkpt>
      <trkpt lat="42.45254" lon="2.10389">
        <ele>1884.844</ele>
        <time>2018-06-30T15:19:02Z</time>
      </trkpt>
      <trkpt lat="42.4526" lon="2.10375">
        <ele>1882.436</ele>
        <time>2018-06-30T15:19:17Z</time>
      </trkpt>
      <trkpt lat="42.45265" lon="2.10366">
        <ele>1881.915</ele>
        <time>2018-06-30T15:19:31Z</time>
      </trkpt>
      <trkpt lat="42.45267" lon="2.10363">
        <ele>1882.89</ele>
        <time>2018-06-30T15:19:46Z</time>
      </trkpt>
      <trkpt lat="42.45267" lon="2.10361">
        <ele>1881.469</ele>
        <time>2018-06-30T15:19:48Z</time>
      </trkpt>
      <trkpt lat="42.45274" lon="2.10355">
        <ele>1880.035</ele>
        <time>2018-06-30T15:19:59Z</time>
      </trkpt>
      <trkpt lat="42.45285" lon="2.10343">
        <ele>1879.521</ele>
        <time>2018-06-30T15:20:13Z</time>
      </trkpt>
      <trkpt lat="42.45288" lon="2.10342">
        <ele>1879.075</ele>
        <time>2018-06-30T15:20:18Z</time>
      </trkpt>
      <trkpt lat="42.45294" lon="2.10336">
        <ele>1875.628</ele>
        <time>2018-06-30T15:20:26Z</time>
      </trkpt>
      <trkpt lat="42.45297" lon="2.1033">
        <ele>1875.62</ele>
        <time>2018-06-30T15:20:31Z</time>
      </trkpt>
      <trkpt lat="42.45311" lon="2.10312">
        <ele>1873.208</ele>
        <time>2018-06-30T15:20:48Z</time>
      </trkpt>
      <trkpt lat="42.45311" lon="2.1031">
        <ele>1873.249</ele>
        <time>2018-06-30T15:20:50Z</time>
      </trkpt>
      <trkpt lat="42.4532" lon="2.10296">
        <ele>1871.813</ele>
        <time>2018-06-30T15:21:06Z</time>
      </trkpt>
      <trkpt lat="42.45334" lon="2.10288">
        <ele>1870.355</ele>
        <time>2018-06-30T15:21:20Z</time>
      </trkpt>
      <trkpt lat="42.45336" lon="2.10286">
        <ele>1869.964</ele>
        <time>2018-06-30T15:21:22Z</time>
      </trkpt>
      <trkpt lat="42.45339" lon="2.10271">
        <ele>1868.449</ele>
        <time>2018-06-30T15:21:33Z</time>
      </trkpt>
      <trkpt lat="42.45349" lon="2.10262">
        <ele>1866.538</ele>
        <time>2018-06-30T15:21:47Z</time>
      </trkpt>
      <trkpt lat="42.45356" lon="2.1025">
        <ele>1864.624</ele>
        <time>2018-06-30T15:21:58Z</time>
      </trkpt>
      <trkpt lat="42.45367" lon="2.1024">
        <ele>1862.21</ele>
        <time>2018-06-30T15:22:12Z</time>
      </trkpt>
      <trkpt lat="42.45378" lon="2.1022">
        <ele>1860.291</ele>
        <time>2018-06-30T15:22:28Z</time>
      </trkpt>
      <trkpt lat="42.45385" lon="2.10215">
        <ele>1858.381</ele>
        <time>2018-06-30T15:22:45Z</time>
      </trkpt>
      <trkpt lat="42.45398" lon="2.10191">
        <ele>1856.419</ele>
        <time>2018-06-30T15:22:59Z</time>
      </trkpt>
      <trkpt lat="42.45411" lon="2.10173">
        <ele>1855.408</ele>
        <time>2018-06-30T15:23:17Z</time>
      </trkpt>
      <trkpt lat="42.45415" lon="2.10164">
        <ele>1854.091</ele>
        <time>2018-06-30T15:23:26Z</time>
      </trkpt>
      <trkpt lat="42.45432" lon="2.10153">
        <ele>1851.175</ele>
        <time>2018-06-30T15:23:43Z</time>
      </trkpt>
      <trkpt lat="42.45444" lon="2.10135">
        <ele>1849.797</ele>
        <time>2018-06-30T15:23:58Z</time>
      </trkpt>
      <trkpt lat="42.45454" lon="2.10124">
        <ele>1849.776</ele>
        <time>2018-06-30T15:24:08Z</time>
      </trkpt>
      <trkpt lat="42.45467" lon="2.10111">
        <ele>1849.721</ele>
        <time>2018-06-30T15:24:21Z</time>
      </trkpt>
      <trkpt lat="42.45477" lon="2.10099">
        <ele>1847.77</ele>
        <time>2018-06-30T15:24:36Z</time>
      </trkpt>
      <trkpt lat="42.45489" lon="2.10092">
        <ele>1845.336</ele>
        <time>2018-06-30T15:24:53Z</time>
      </trkpt>
      <trkpt lat="42.455" lon="2.10078">
        <ele>1841.582</ele>
        <time>2018-06-30T15:25:04Z</time>
      </trkpt>
      <trkpt lat="42.45501" lon="2.10077">
        <ele>1841.537</ele>
        <time>2018-06-30T15:25:05Z</time>
      </trkpt>
      <trkpt lat="42.45513" lon="2.10051">
        <ele>1840.149</ele>
        <time>2018-06-30T15:25:23Z</time>
      </trkpt>
      <trkpt lat="42.45516" lon="2.10038">
        <ele>1842.013</ele>
        <time>2018-06-30T15:25:33Z</time>
      </trkpt>
      <trkpt lat="42.45517" lon="2.10032">
        <ele>1839.108</ele>
        <time>2018-06-30T15:25:37Z</time>
      </trkpt>
      <trkpt lat="42.45517" lon="2.10031">
        <ele>1840.595</ele>
        <time>2018-06-30T15:25:38Z</time>
      </trkpt>
      <trkpt lat="42.45517" lon="2.10029">
        <ele>1840.569</ele>
        <time>2018-06-30T15:25:39Z</time>
      </trkpt>
      <trkpt lat="42.45524" lon="2.1001">
        <ele>1839.141</ele>
        <time>2018-06-30T15:25:54Z</time>
      </trkpt>
      <trkpt lat="42.45526" lon="2.10003">
        <ele>1839.18</ele>
        <time>2018-06-30T15:26:00Z</time>
      </trkpt>
      <trkpt lat="42.45534" lon="2.09993">
        <ele>1836.275</ele>
        <time>2018-06-30T15:26:15Z</time>
      </trkpt>
      <trkpt lat="42.45542" lon="2.0998">
        <ele>1833.824</ele>
        <time>2018-06-30T15:26:29Z</time>
      </trkpt>
      <trkpt lat="42.45553" lon="2.09962">
        <ele>1830.92</ele>
        <time>2018-06-30T15:26:44Z</time>
      </trkpt>
      <trkpt lat="42.45561" lon="2.09945">
        <ele>1828.596</ele>
        <time>2018-06-30T15:26:59Z</time>
      </trkpt>
      <trkpt lat="42.4558" lon="2.09931">
        <ele>1826.622</ele>
        <time>2018-06-30T15:27:15Z</time>
      </trkpt>
      <trkpt lat="42.45587" lon="2.09914">
        <ele>1825.662</ele>
        <time>2018-06-30T15:27:31Z</time>
      </trkpt>
      <trkpt lat="42.45587" lon="2.09909">
        <ele>1824.208</ele>
        <time>2018-06-30T15:27:40Z</time>
      </trkpt>
      <trkpt lat="42.45606" lon="2.099">
        <ele>1822.308</ele>
        <time>2018-06-30T15:27:56Z</time>
      </trkpt>
      <trkpt lat="42.45617" lon="2.09885">
        <ele>1820.384</ele>
        <time>2018-06-30T15:28:12Z</time>
      </trkpt>
      <trkpt lat="42.45634" lon="2.09868">
        <ele>1817.028</ele>
        <time>2018-06-30T15:28:30Z</time>
      </trkpt>
      <trkpt lat="42.45638" lon="2.09864">
        <ele>1816.51</ele>
        <time>2018-06-30T15:28:34Z</time>
      </trkpt>
      <trkpt lat="42.45653" lon="2.09841">
        <ele>1813.689</ele>
        <time>2018-06-30T15:28:52Z</time>
      </trkpt>
      <trkpt lat="42.45653" lon="2.09825">
        <ele>1813.164</ele>
        <time>2018-06-30T15:29:05Z</time>
      </trkpt>
      <trkpt lat="42.45661" lon="2.09808">
        <ele>1811.223</ele>
        <time>2018-06-30T15:29:20Z</time>
      </trkpt>
      <trkpt lat="42.45667" lon="2.09801">
        <ele>1810.359</ele>
        <time>2018-06-30T15:29:34Z</time>
      </trkpt>
      <trkpt lat="42.45675" lon="2.09786">
        <ele>1809.375</ele>
        <time>2018-06-30T15:29:50Z</time>
      </trkpt>
      <trkpt lat="42.45678" lon="2.09779">
        <ele>1807.441</ele>
        <time>2018-06-30T15:30:05Z</time>
      </trkpt>
      <trkpt lat="42.45684" lon="2.09773">
        <ele>1807.481</ele>
        <time>2018-06-30T15:30:19Z</time>
      </trkpt>
      <trkpt lat="42.45693" lon="2.09764">
        <ele>1805.909</ele>
        <time>2018-06-30T15:30:30Z</time>
      </trkpt>
      <trkpt lat="42.45697" lon="2.09752">
        <ele>1805.008</ele>
        <time>2018-06-30T15:30:46Z</time>
      </trkpt>
      <trkpt lat="42.45695" lon="2.09749">
        <ele>1806.496</ele>
        <time>2018-06-30T15:30:49Z</time>
      </trkpt>
      <trkpt lat="42.45683" lon="2.09739">
        <ele>1808.34</ele>
        <time>2018-06-30T15:31:02Z</time>
      </trkpt>
      <trkpt lat="42.45682" lon="2.09739">
        <ele>1808.892</ele>
        <time>2018-06-30T15:31:21Z</time>
      </trkpt>
      <trkpt lat="42.45684" lon="2.0974">
        <ele>1807.491</ele>
        <time>2018-06-30T15:31:24Z</time>
      </trkpt>
      <trkpt lat="42.45685" lon="2.09741">
        <ele>1807.476</ele>
        <time>2018-06-30T15:31:26Z</time>
      </trkpt>
      <trkpt lat="42.45691" lon="2.09745">
        <ele>1806.475</ele>
        <time>2018-06-30T15:31:30Z</time>
      </trkpt>
      <trkpt lat="42.45697" lon="2.09754">
        <ele>1805.491</ele>
        <time>2018-06-30T15:31:38Z</time>
      </trkpt>
      <trkpt lat="42.45706" lon="2.09749">
        <ele>1802.627</ele>
        <time>2018-06-30T15:31:51Z</time>
      </trkpt>
      <trkpt lat="42.45712" lon="2.0974">
        <ele>1801.129</ele>
        <time>2018-06-30T15:31:59Z</time>
      </trkpt>
      <trkpt lat="42.45714" lon="2.09737">
        <ele>1801.1</ele>
        <time>2018-06-30T15:32:01Z</time>
      </trkpt>
      <trkpt lat="42.45721" lon="2.09714">
        <ele>1800.22</ele>
        <time>2018-06-30T15:32:16Z</time>
      </trkpt>
      <trkpt lat="42.45719" lon="2.09705">
        <ele>1800.208</ele>
        <time>2018-06-30T15:32:20Z</time>
      </trkpt>
      <trkpt lat="42.45729" lon="2.09687">
        <ele>1799.214</ele>
        <time>2018-06-30T15:32:34Z</time>
      </trkpt>
      <trkpt lat="42.45739" lon="2.09674">
        <ele>1798.228</ele>
        <time>2018-06-30T15:32:50Z</time>
      </trkpt>
      <trkpt lat="42.45752" lon="2.09663">
        <ele>1794.98</ele>
        <time>2018-06-30T15:33:05Z</time>
      </trkpt>
      <trkpt lat="42.45766" lon="2.09655">
        <ele>1793.489</ele>
        <time>2018-06-30T15:33:21Z</time>
      </trkpt>
      <trkpt lat="42.45773" lon="2.09654">
        <ele>1792.014</ele>
        <time>2018-06-30T15:33:26Z</time>
      </trkpt>
      <trkpt lat="42.45789" lon="2.0965">
        <ele>1790.113</ele>
        <time>2018-06-30T15:33:39Z</time>
      </trkpt>
      <trkpt lat="42.45795" lon="2.0965">
        <ele>1790.129</ele>
        <time>2018-06-30T15:33:57Z</time>
      </trkpt>
      <trkpt lat="42.45807" lon="2.09649">
        <ele>1791.045</ele>
        <time>2018-06-30T15:34:46Z</time>
      </trkpt>
      <trkpt lat="42.45809" lon="2.09654">
        <ele>1791.592</ele>
        <time>2018-06-30T15:35:02Z</time>
      </trkpt>
      <trkpt lat="42.45806" lon="2.09655">
        <ele>1790.173</ele>
        <time>2018-06-30T15:35:08Z</time>
      </trkpt>
      <trkpt lat="42.45811" lon="2.09657">
        <ele>1787.72</ele>
        <time>2018-06-30T15:35:22Z</time>
      </trkpt>
      <trkpt lat="42.45818" lon="2.09658">
        <ele>1784.808</ele>
        <time>2018-06-30T15:35:36Z</time>
      </trkpt>
      <trkpt lat="42.45822" lon="2.09661">
        <ele>1783.361</ele>
        <time>2018-06-30T15:35:41Z</time>
      </trkpt>
      <trkpt lat="42.45827" lon="2.09661">
        <ele>1783.375</ele>
        <time>2018-06-30T15:35:46Z</time>
      </trkpt>
      <trkpt lat="42.45838" lon="2.09666">
        <ele>1780.597</ele>
        <time>2018-06-30T15:36:02Z</time>
      </trkpt>
      <trkpt lat="42.45842" lon="2.09668">
        <ele>1779.586</ele>
        <time>2018-06-30T15:36:19Z</time>
      </trkpt>
      <trkpt lat="42.45844" lon="2.09667">
        <ele>1779.041</ele>
        <time>2018-06-30T15:36:36Z</time>
      </trkpt>
      <trkpt lat="42.45845" lon="2.09666">
        <ele>1779.55</ele>
        <time>2018-06-30T15:36:45Z</time>
      </trkpt>
      <trkpt lat="42.45851" lon="2.0966">
        <ele>1776.636</ele>
        <time>2018-06-30T15:36:58Z</time>
      </trkpt>
      <trkpt lat="42.45854" lon="2.09659">
        <ele>1776.672</ele>
        <time>2018-06-30T15:37:01Z</time>
      </trkpt>
      <trkpt lat="42.45863" lon="2.09651">
        <ele>1774.736</ele>
        <time>2018-06-30T15:37:15Z</time>
      </trkpt>
      <trkpt lat="42.45872" lon="2.09648">
        <ele>1772.817</ele>
        <time>2018-06-30T15:37:29Z</time>
      </trkpt>
      <trkpt lat="42.45876" lon="2.09645">
        <ele>1772.818</ele>
        <time>2018-06-30T15:37:44Z</time>
      </trkpt>
      <trkpt lat="42.45884" lon="2.09643">
        <ele>1772.808</ele>
        <time>2018-06-30T15:37:57Z</time>
      </trkpt>
      <trkpt lat="42.45885" lon="2.09646">
        <ele>1772.885</ele>
        <time>2018-06-30T15:38:01Z</time>
      </trkpt>
      <trkpt lat="42.45897" lon="2.09645">
        <ele>1771.889</ele>
        <time>2018-06-30T15:38:12Z</time>
      </trkpt>
      <trkpt lat="42.459" lon="2.09647">
        <ele>1773.771</ele>
        <time>2018-06-30T15:38:24Z</time>
      </trkpt>
      <trkpt lat="42.45906" lon="2.09645">
        <ele>1774.74</ele>
        <time>2018-06-30T15:38:36Z</time>
      </trkpt>
      <trkpt lat="42.45915" lon="2.09633">
        <ele>1774.725</ele>
        <time>2018-06-30T15:38:49Z</time>
      </trkpt>
      <trkpt lat="42.45931" lon="2.09619">
        <ele>1774.714</ele>
        <time>2018-06-30T15:39:06Z</time>
      </trkpt>
      <trkpt lat="42.45933" lon="2.09617">
        <ele>1774.78</ele>
        <time>2018-06-30T15:39:10Z</time>
      </trkpt>
      <trkpt lat="42.4594" lon="2.09608">
        <ele>1773.246</ele>
        <time>2018-06-30T15:39:17Z</time>
      </trkpt>
      <trkpt lat="42.45944" lon="2.096">
        <ele>1772.865</ele>
        <time>2018-06-30T15:39:25Z</time>
      </trkpt>
      <trkpt lat="42.45953" lon="2.09586">
        <ele>1772.868</ele>
        <time>2018-06-30T15:39:39Z</time>
      </trkpt>
      <trkpt lat="42.45967" lon="2.09574">
        <ele>1772.314</ele>
        <time>2018-06-30T15:39:53Z</time>
      </trkpt>
      <trkpt lat="42.45968" lon="2.09574">
        <ele>1772.308</ele>
        <time>2018-06-30T15:39:54Z</time>
      </trkpt>
      <trkpt lat="42.45975" lon="2.09563">
        <ele>1771.828</ele>
        <time>2018-06-30T15:40:04Z</time>
      </trkpt>
      <trkpt lat="42.45989" lon="2.0955">
        <ele>1771.342</ele>
        <time>2018-06-30T15:40:21Z</time>
      </trkpt>
      <trkpt lat="42.45995" lon="2.09546">
        <ele>1772.334</ele>
        <time>2018-06-30T15:40:34Z</time>
      </trkpt>
      <trkpt lat="42.46001" lon="2.09535">
        <ele>1771.393</ele>
        <time>2018-06-30T15:40:50Z</time>
      </trkpt>
      <trkpt lat="42.46004" lon="2.09533">
        <ele>1771.368</ele>
        <time>2018-06-30T15:41:10Z</time>
      </trkpt>
      <trkpt lat="42.4601" lon="2.09526">
        <ele>1771.317</ele>
        <time>2018-06-30T15:41:23Z</time>
      </trkpt>
      <trkpt lat="42.46017" lon="2.09515">
        <ele>1769.963</ele>
        <time>2018-06-30T15:41:36Z</time>
      </trkpt>
      <trkpt lat="42.46029" lon="2.09502">
        <ele>1769.439</ele>
        <time>2018-06-30T15:41:51Z</time>
      </trkpt>
      <trkpt lat="42.46035" lon="2.09493">
        <ele>1769.451</ele>
        <time>2018-06-30T15:42:02Z</time>
      </trkpt>
      <trkpt lat="42.46047" lon="2.09481">
        <ele>1769.901</ele>
        <time>2018-06-30T15:42:15Z</time>
      </trkpt>
      <trkpt lat="42.46051" lon="2.09474">
        <ele>1769.411</ele>
        <time>2018-06-30T15:42:26Z</time>
      </trkpt>
      <trkpt lat="42.4606" lon="2.09468">
        <ele>1769.408</ele>
        <time>2018-06-30T15:42:39Z</time>
      </trkpt>
      <trkpt lat="42.46074" lon="2.09452">
        <ele>1769.447</ele>
        <time>2018-06-30T15:42:53Z</time>
      </trkpt>
      <trkpt lat="42.46087" lon="2.0944">
        <ele>1768.961</ele>
        <time>2018-06-30T15:43:05Z</time>
      </trkpt>
      <trkpt lat="42.46093" lon="2.09433">
        <ele>1769.433</ele>
        <time>2018-06-30T15:43:11Z</time>
      </trkpt>
      <trkpt lat="42.46111" lon="2.09424">
        <ele>1769.432</ele>
        <time>2018-06-30T15:43:22Z</time>
      </trkpt>
      <trkpt lat="42.46114" lon="2.09419">
        <ele>1768.017</ele>
        <time>2018-06-30T15:43:25Z</time>
      </trkpt>
      <trkpt lat="42.46127" lon="2.09406">
        <ele>1768.086</ele>
        <time>2018-06-30T15:43:49Z</time>
      </trkpt>
      <trkpt lat="42.46137" lon="2.09398">
        <ele>1767.552</ele>
        <time>2018-06-30T15:44:00Z</time>
      </trkpt>
      <trkpt lat="42.46139" lon="2.09396">
        <ele>1768.948</ele>
        <time>2018-06-30T15:44:02Z</time>
      </trkpt>
      <trkpt lat="42.46155" lon="2.09381">
        <ele>1769.416</ele>
        <time>2018-06-30T15:44:19Z</time>
      </trkpt>
      <trkpt lat="42.46165" lon="2.09368">
        <ele>1767.576</ele>
        <time>2018-06-30T15:44:32Z</time>
      </trkpt>
      <trkpt lat="42.46168" lon="2.09366">
        <ele>1768.913</ele>
        <time>2018-06-30T15:44:36Z</time>
      </trkpt>
      <trkpt lat="42.46171" lon="2.09362">
        <ele>1768.008</ele>
        <time>2018-06-30T15:44:40Z</time>
      </trkpt>
      <trkpt lat="42.46177" lon="2.09354">
        <ele>1768.023</ele>
        <time>2018-06-30T15:44:50Z</time>
      </trkpt>
      <trkpt lat="42.46191" lon="2.09347">
        <ele>1767.047</ele>
        <time>2018-06-30T15:45:04Z</time>
      </trkpt>
      <trkpt lat="42.46201" lon="2.0934">
        <ele>1767.019</ele>
        <time>2018-06-30T15:45:17Z</time>
      </trkpt>
      <trkpt lat="42.46205" lon="2.0933">
        <ele>1767.088</ele>
        <time>2018-06-30T15:45:30Z</time>
      </trkpt>
      <trkpt lat="42.4622" lon="2.09319">
        <ele>1768.423</ele>
        <time>2018-06-30T15:45:43Z</time>
      </trkpt>
      <trkpt lat="42.46221" lon="2.09318">
        <ele>1768.432</ele>
        <time>2018-06-30T15:45:44Z</time>
      </trkpt>
      <trkpt lat="42.46229" lon="2.09304">
        <ele>1768.458</ele>
        <time>2018-06-30T15:45:56Z</time>
      </trkpt>
      <trkpt lat="42.46237" lon="2.09288">
        <ele>1768.484</ele>
        <time>2018-06-30T15:46:09Z</time>
      </trkpt>
      <trkpt lat="42.46238" lon="2.09286">
        <ele>1767.046</ele>
        <time>2018-06-30T15:46:11Z</time>
      </trkpt>
      <trkpt lat="42.46247" lon="2.09274">
        <ele>1766.588</ele>
        <time>2018-06-30T15:46:25Z</time>
      </trkpt>
      <trkpt lat="42.46254" lon="2.09267">
        <ele>1766.016</ele>
        <time>2018-06-30T15:46:37Z</time>
      </trkpt>
      <trkpt lat="42.46257" lon="2.09263">
        <ele>1766.008</ele>
        <time>2018-06-30T15:46:51Z</time>
      </trkpt>
      <trkpt lat="42.46264" lon="2.09254">
        <ele>1767.546</ele>
        <time>2018-06-30T15:47:19Z</time>
      </trkpt>
      <trkpt lat="42.46274" lon="2.09249">
        <ele>1765.67</ele>
        <time>2018-06-30T15:47:32Z</time>
      </trkpt>
      <trkpt lat="42.46282" lon="2.09244">
        <ele>1765.632</ele>
        <time>2018-06-30T15:47:42Z</time>
      </trkpt>
      <trkpt lat="42.46284" lon="2.09244">
        <ele>1764.691</ele>
        <time>2018-06-30T15:47:43Z</time>
      </trkpt>
      <trkpt lat="42.46291" lon="2.09241">
        <ele>1764.666</ele>
        <time>2018-06-30T15:47:52Z</time>
      </trkpt>
      <trkpt lat="42.46293" lon="2.0924">
        <ele>1764.655</ele>
        <time>2018-06-30T15:47:53Z</time>
      </trkpt>
      <trkpt lat="42.46307" lon="2.09234">
        <ele>1764.681</ele>
        <time>2018-06-30T15:48:05Z</time>
      </trkpt>
      <trkpt lat="42.46309" lon="2.09231">
        <ele>1764.127</ele>
        <time>2018-06-30T15:48:10Z</time>
      </trkpt>
      <trkpt lat="42.46321" lon="2.09223">
        <ele>1765.193</ele>
        <time>2018-06-30T15:48:24Z</time>
      </trkpt>
      <trkpt lat="42.46323" lon="2.09221">
        <ele>1763.665</ele>
        <time>2018-06-30T15:48:29Z</time>
      </trkpt>
      <trkpt lat="42.46334" lon="2.09212">
        <ele>1762.221</ele>
        <time>2018-06-30T15:48:40Z</time>
      </trkpt>
      <trkpt lat="42.46337" lon="2.09211">
        <ele>1763.608</ele>
        <time>2018-06-30T15:48:42Z</time>
      </trkpt>
      <trkpt lat="42.46348" lon="2.09208">
        <ele>1762.291</ele>
        <time>2018-06-30T15:48:50Z</time>
      </trkpt>
      <trkpt lat="42.4635" lon="2.09208">
        <ele>1762.255</ele>
        <time>2018-06-30T15:48:51Z</time>
      </trkpt>
      <trkpt lat="42.46366" lon="2.09203">
        <ele>1763.667</ele>
        <time>2018-06-30T15:49:06Z</time>
      </trkpt>
      <trkpt lat="42.46376" lon="2.092">
        <ele>1763.616</ele>
        <time>2018-06-30T15:49:23Z</time>
      </trkpt>
      <trkpt lat="42.46387" lon="2.09197">
        <ele>1763.661</ele>
        <time>2018-06-30T15:49:38Z</time>
      </trkpt>
      <trkpt lat="42.46397" lon="2.09191">
        <ele>1763.62</ele>
        <time>2018-06-30T15:49:53Z</time>
      </trkpt>
      <trkpt lat="42.4641" lon="2.09182">
        <ele>1763.276</ele>
        <time>2018-06-30T15:50:08Z</time>
      </trkpt>
      <trkpt lat="42.46425" lon="2.09174">
        <ele>1763.252</ele>
        <time>2018-06-30T15:50:22Z</time>
      </trkpt>
      <trkpt lat="42.4643" lon="2.09171">
        <ele>1763.225</ele>
        <time>2018-06-30T15:50:26Z</time>
      </trkpt>
      <trkpt lat="42.46431" lon="2.09171">
        <ele>1763.226</ele>
        <time>2018-06-30T15:50:27Z</time>
      </trkpt>
      <trkpt lat="42.46445" lon="2.09169">
        <ele>1763.208</ele>
        <time>2018-06-30T15:50:38Z</time>
      </trkpt>
      <trkpt lat="42.4646" lon="2.09161">
        <ele>1763.208</ele>
        <time>2018-06-30T15:50:53Z</time>
      </trkpt>
      <trkpt lat="42.46472" lon="2.09155">
        <ele>1762.234</ele>
        <time>2018-06-30T15:51:05Z</time>
      </trkpt>
      <trkpt lat="42.46488" lon="2.0915">
        <ele>1760.778</ele>
        <time>2018-06-30T15:51:19Z</time>
      </trkpt>
      <trkpt lat="42.46503" lon="2.09145">
        <ele>1762.28</ele>
        <time>2018-06-30T15:51:30Z</time>
      </trkpt>
      <trkpt lat="42.46504" lon="2.09144">
        <ele>1762.299</ele>
        <time>2018-06-30T15:51:31Z</time>
      </trkpt>
      <trkpt lat="42.46512" lon="2.09138">
        <ele>1762.294</ele>
        <time>2018-06-30T15:51:49Z</time>
      </trkpt>
      <trkpt lat="42.46531" lon="2.09127">
        <ele>1762.243</ele>
        <time>2018-06-30T15:52:05Z</time>
      </trkpt>
      <trkpt lat="42.4654" lon="2.09118">
        <ele>1761.739</ele>
        <time>2018-06-30T15:52:19Z</time>
      </trkpt>
      <trkpt lat="42.4654" lon="2.09112">
        <ele>1761.735</ele>
        <time>2018-06-30T15:52:33Z</time>
      </trkpt>
      <trkpt lat="42.46546" lon="2.09102">
        <ele>1762.229</ele>
        <time>2018-06-30T15:52:49Z</time>
      </trkpt>
      <trkpt lat="42.46545" lon="2.091">
        <ele>1762.2</ele>
        <time>2018-06-30T15:53:13Z</time>
      </trkpt>
      <trkpt lat="42.46549" lon="2.091">
        <ele>1762.22</ele>
        <time>2018-06-30T15:53:35Z</time>
      </trkpt>
      <trkpt lat="42.46549" lon="2.09099">
        <ele>1760.308</ele>
        <time>2018-06-30T15:53:37Z</time>
      </trkpt>
      <trkpt lat="42.46549" lon="2.09099">
        <ele>1761.734</ele>
        <time>2018-06-30T15:54:00Z</time>
      </trkpt>
      <trkpt lat="42.46555" lon="2.09104">
        <ele>1761.748</ele>
        <time>2018-06-30T15:54:13Z</time>
      </trkpt>
      <trkpt lat="42.4656" lon="2.09102">
        <ele>1761.78</ele>
        <time>2018-06-30T15:54:18Z</time>
      </trkpt>
      <trkpt lat="42.46572" lon="2.09092">
        <ele>1759.889</ele>
        <time>2018-06-30T15:54:31Z</time>
      </trkpt>
      <trkpt lat="42.46573" lon="2.09091">
        <ele>1759.844</ele>
        <time>2018-06-30T15:54:32Z</time>
      </trkpt>
      <trkpt lat="42.46574" lon="2.09089">
        <ele>1759.813</ele>
        <time>2018-06-30T15:54:33Z</time>
      </trkpt>
      <trkpt lat="42.46584" lon="2.09082">
        <ele>1759.859</ele>
        <time>2018-06-30T15:54:47Z</time>
      </trkpt>
      <trkpt lat="42.46586" lon="2.0908">
        <ele>1759.815</ele>
        <time>2018-06-30T15:54:49Z</time>
      </trkpt>
      <trkpt lat="42.46594" lon="2.09077">
        <ele>1760.745</ele>
        <time>2018-06-30T15:55:03Z</time>
      </trkpt>
      <trkpt lat="42.46604" lon="2.09079">
        <ele>1760.747</ele>
        <time>2018-06-30T15:55:18Z</time>
      </trkpt>
      <trkpt lat="42.46608" lon="2.09079">
        <ele>1760.711</ele>
        <time>2018-06-30T15:55:21Z</time>
      </trkpt>
      <trkpt lat="42.46622" lon="2.09082">
        <ele>1760.308</ele>
        <time>2018-06-30T15:55:34Z</time>
      </trkpt>
      <trkpt lat="42.46636" lon="2.09089">
        <ele>1760.716</ele>
        <time>2018-06-30T15:55:49Z</time>
      </trkpt>
      <trkpt lat="42.46639" lon="2.09093">
        <ele>1760.72</ele>
        <time>2018-06-30T15:56:04Z</time>
      </trkpt>
      <trkpt lat="42.46654" lon="2.09101">
        <ele>1760.772</ele>
        <time>2018-06-30T15:56:19Z</time>
      </trkpt>
      <trkpt lat="42.46662" lon="2.09109">
        <ele>1761.211</ele>
        <time>2018-06-30T15:56:29Z</time>
      </trkpt>
      <trkpt lat="42.46663" lon="2.0911">
        <ele>1760.746</ele>
        <time>2018-06-30T15:56:30Z</time>
      </trkpt>
      <trkpt lat="42.46665" lon="2.09111">
        <ele>1760.765</ele>
        <time>2018-06-30T15:56:31Z</time>
      </trkpt>
      <trkpt lat="42.46681" lon="2.09128">
        <ele>1760.711</ele>
        <time>2018-06-30T15:56:46Z</time>
      </trkpt>
      <trkpt lat="42.46693" lon="2.09137">
        <ele>1760.727</ele>
        <time>2018-06-30T15:56:58Z</time>
      </trkpt>
      <trkpt lat="42.46704" lon="2.09157">
        <ele>1760.789</ele>
        <time>2018-06-30T15:57:13Z</time>
      </trkpt>
      <trkpt lat="42.46706" lon="2.09159">
        <ele>1760.706</ele>
        <time>2018-06-30T15:57:15Z</time>
      </trkpt>
      <trkpt lat="42.46709" lon="2.09163">
        <ele>1760.726</ele>
        <time>2018-06-30T15:57:19Z</time>
      </trkpt>
      <trkpt lat="42.46718" lon="2.09183">
        <ele>1760.708</ele>
        <time>2018-06-30T15:57:34Z</time>
      </trkpt>
      <trkpt lat="42.46728" lon="2.09204">
        <ele>1760.31</ele>
        <time>2018-06-30T15:57:50Z</time>
      </trkpt>
      <trkpt lat="42.4674" lon="2.09224">
        <ele>1760.314</ele>
        <time>2018-06-30T15:58:05Z</time>
      </trkpt>
      <trkpt lat="42.4675" lon="2.0924">
        <ele>1760.346</ele>
        <time>2018-06-30T15:58:20Z</time>
      </trkpt>
      <trkpt lat="42.46751" lon="2.09263">
        <ele>1759.825</ele>
        <time>2018-06-30T15:58:34Z</time>
      </trkpt>
      <trkpt lat="42.4675" lon="2.09286">
        <ele>1759.87</ele>
        <time>2018-06-30T15:58:51Z</time>
      </trkpt>
      <trkpt lat="42.46751" lon="2.093">
        <ele>1760.369</ele>
        <time>2018-06-30T15:59:03Z</time>
      </trkpt>
      <trkpt lat="42.46753" lon="2.09303">
        <ele>1760.335</ele>
        <time>2018-06-30T15:59:05Z</time>
      </trkpt>
      <trkpt lat="42.46762" lon="2.09309">
        <ele>1758.881</ele>
        <time>2018-06-30T15:59:12Z</time>
      </trkpt>
      <trkpt lat="42.46774" lon="2.09317">
        <ele>1758.362</ele>
        <time>2018-06-30T15:59:24Z</time>
      </trkpt>
      <trkpt lat="42.46787" lon="2.0933">
        <ele>1758.383</ele>
        <time>2018-06-30T15:59:38Z</time>
      </trkpt>
      <trkpt lat="42.46794" lon="2.09347">
        <ele>1757.911</ele>
        <time>2018-06-30T15:59:51Z</time>
      </trkpt>
      <trkpt lat="42.46795" lon="2.0935">
        <ele>1757.908</ele>
        <time>2018-06-30T15:59:53Z</time>
      </trkpt>
      <trkpt lat="42.468" lon="2.0936">
        <ele>1759.388</ele>
        <time>2018-06-30T16:00:00Z</time>
      </trkpt>
      <trkpt lat="42.46801" lon="2.09362">
        <ele>1759.312</ele>
        <time>2018-06-30T16:00:02Z</time>
      </trkpt>
      <trkpt lat="42.46806" lon="2.09367">
        <ele>1758.314</ele>
        <time>2018-06-30T16:00:09Z</time>
      </trkpt>
      <trkpt lat="42.46815" lon="2.09376">
        <ele>1758.333</ele>
        <time>2018-06-30T16:00:18Z</time>
      </trkpt>
      <trkpt lat="42.46825" lon="2.09395">
        <ele>1757.938</ele>
        <time>2018-06-30T16:00:33Z</time>
      </trkpt>
      <trkpt lat="42.46825" lon="2.09397">
        <ele>1759.367</ele>
        <time>2018-06-30T16:00:36Z</time>
      </trkpt>
      <trkpt lat="42.4683" lon="2.09421">
        <ele>1759.353</ele>
        <time>2018-06-30T16:00:50Z</time>
      </trkpt>
      <trkpt lat="42.46831" lon="2.09441">
        <ele>1759.319</ele>
        <time>2018-06-30T16:01:02Z</time>
      </trkpt>
      <trkpt lat="42.46838" lon="2.09461">
        <ele>1758.815</ele>
        <time>2018-06-30T16:01:15Z</time>
      </trkpt>
      <trkpt lat="42.46856" lon="2.09477">
        <ele>1758.865</ele>
        <time>2018-06-30T16:01:31Z</time>
      </trkpt>
      <trkpt lat="42.46872" lon="2.09491">
        <ele>1758.811</ele>
        <time>2018-06-30T16:01:46Z</time>
      </trkpt>
      <trkpt lat="42.46881" lon="2.09499">
        <ele>1758.808</ele>
        <time>2018-06-30T16:02:01Z</time>
      </trkpt>
      <trkpt lat="42.46893" lon="2.09515">
        <ele>1758.863</ele>
        <time>2018-06-30T16:02:14Z</time>
      </trkpt>
      <trkpt lat="42.469" lon="2.09533">
        <ele>1758.847</ele>
        <time>2018-06-30T16:02:30Z</time>
      </trkpt>
      <trkpt lat="42.469" lon="2.09539">
        <ele>1758.339</ele>
        <time>2018-06-30T16:02:56Z</time>
      </trkpt>
      <trkpt lat="42.46906" lon="2.09547">
        <ele>1758.398</ele>
        <time>2018-06-30T16:04:05Z</time>
      </trkpt>
      <trkpt lat="42.46911" lon="2.09561">
        <ele>1758.343</ele>
        <time>2018-06-30T16:04:21Z</time>
      </trkpt>
      <trkpt lat="42.46916" lon="2.09574">
        <ele>1758.362</ele>
        <time>2018-06-30T16:04:33Z</time>
      </trkpt>
      <trkpt lat="42.4693" lon="2.09589">
        <ele>1758.348</ele>
        <time>2018-06-30T16:04:48Z</time>
      </trkpt>
      <trkpt lat="42.46933" lon="2.09593">
        <ele>1756.954</ele>
        <time>2018-06-30T16:04:51Z</time>
      </trkpt>
      <trkpt lat="42.46946" lon="2.09605">
        <ele>1756.915</ele>
        <time>2018-06-30T16:05:05Z</time>
      </trkpt>
      <trkpt lat="42.46949" lon="2.09606">
        <ele>1756.965</ele>
        <time>2018-06-30T16:05:07Z</time>
      </trkpt>
      <trkpt lat="42.46966" lon="2.09607">
        <ele>1757.411</ele>
        <time>2018-06-30T16:05:23Z</time>
      </trkpt>
      <trkpt lat="42.46974" lon="2.0961">
        <ele>1758.308</ele>
        <time>2018-06-30T16:05:32Z</time>
      </trkpt>
      <trkpt lat="42.46986" lon="2.09618">
        <ele>1759.863</ele>
        <time>2018-06-30T16:05:44Z</time>
      </trkpt>
      <trkpt lat="42.46995" lon="2.09629">
        <ele>1760.327</ele>
        <time>2018-06-30T16:05:57Z</time>
      </trkpt>
      <trkpt lat="42.46996" lon="2.0963">
        <ele>1760.389</ele>
        <time>2018-06-30T16:05:58Z</time>
      </trkpt>
      <trkpt lat="42.46999" lon="2.09635">
        <ele>1760.738</ele>
        <time>2018-06-30T16:06:02Z</time>
      </trkpt>
      <trkpt lat="42.47016" lon="2.09652">
        <ele>1760.713</ele>
        <time>2018-06-30T16:06:19Z</time>
      </trkpt>
      <trkpt lat="42.47026" lon="2.09664">
        <ele>1761.262</ele>
        <time>2018-06-30T16:06:34Z</time>
      </trkpt>
      <trkpt lat="42.47028" lon="2.09668">
        <ele>1761.738</ele>
        <time>2018-06-30T16:06:44Z</time>
      </trkpt>
      <trkpt lat="42.47031" lon="2.09688">
        <ele>1762.764</ele>
        <time>2018-06-30T16:06:57Z</time>
      </trkpt>
      <trkpt lat="42.47041" lon="2.09706">
        <ele>1763.686</ele>
        <time>2018-06-30T16:07:11Z</time>
      </trkpt>
      <trkpt lat="42.4705" lon="2.09726">
        <ele>1765.16</ele>
        <time>2018-06-30T16:07:27Z</time>
      </trkpt>
      <trkpt lat="42.47055" lon="2.09731">
        <ele>1763.626</ele>
        <time>2018-06-30T16:07:37Z</time>
      </trkpt>
      <trkpt lat="42.4706" lon="2.09742">
        <ele>1765.108</ele>
        <time>2018-06-30T16:07:47Z</time>
      </trkpt>
      <trkpt lat="42.47061" lon="2.09765">
        <ele>1766.57</ele>
        <time>2018-06-30T16:08:02Z</time>
      </trkpt>
      <trkpt lat="42.47061" lon="2.09775">
        <ele>1767.034</ele>
        <time>2018-06-30T16:08:09Z</time>
      </trkpt>
      <trkpt lat="42.47061" lon="2.09778">
        <ele>1767.036</ele>
        <time>2018-06-30T16:08:11Z</time>
      </trkpt>
      <trkpt lat="42.47063" lon="2.09799">
        <ele>1768.995</ele>
        <time>2018-06-30T16:08:27Z</time>
      </trkpt>
      <trkpt lat="42.47065" lon="2.09816">
        <ele>1769.43</ele>
        <time>2018-06-30T16:08:41Z</time>
      </trkpt>
      <trkpt lat="42.47066" lon="2.09821">
        <ele>1769.959</ele>
        <time>2018-06-30T16:08:45Z</time>
      </trkpt>
      <trkpt lat="42.47075" lon="2.0984">
        <ele>1770.495</ele>
        <time>2018-06-30T16:09:01Z</time>
      </trkpt>
      <trkpt lat="42.4708" lon="2.09844">
        <ele>1770.471</ele>
        <time>2018-06-30T16:09:05Z</time>
      </trkpt>
      <trkpt lat="42.4709" lon="2.09848">
        <ele>1768.957</ele>
        <time>2018-06-30T16:09:20Z</time>
      </trkpt>
      <trkpt lat="42.47096" lon="2.09856">
        <ele>1768.9</ele>
        <time>2018-06-30T16:09:37Z</time>
      </trkpt>
      <trkpt lat="42.47106" lon="2.09876">
        <ele>1768.92</ele>
        <time>2018-06-30T16:09:53Z</time>
      </trkpt>
      <trkpt lat="42.47114" lon="2.09895">
        <ele>1768.008</ele>
        <time>2018-06-30T16:10:07Z</time>
      </trkpt>
      <trkpt lat="42.47114" lon="2.09896">
        <ele>1768.027</ele>
        <time>2018-06-30T16:10:08Z</time>
      </trkpt>
      <trkpt lat="42.4712" lon="2.09901">
        <ele>1767.591</ele>
        <time>2018-06-30T16:10:24Z</time>
      </trkpt>
      <trkpt lat="42.47122" lon="2.09904">
        <ele>1766.533</ele>
        <time>2018-06-30T16:10:39Z</time>
      </trkpt>
      <trkpt lat="42.47124" lon="2.09904">
        <ele>1766.532</ele>
        <time>2018-06-30T16:10:52Z</time>
      </trkpt>
      <trkpt lat="42.47127" lon="2.09905">
        <ele>1766.547</ele>
        <time>2018-06-30T16:11:10Z</time>
      </trkpt>
      <trkpt lat="42.4713" lon="2.09906">
        <ele>1766.086</ele>
        <time>2018-06-30T16:11:13Z</time>
      </trkpt>
      <trkpt lat="42.47149" lon="2.09911">
        <ele>1764.692</ele>
        <time>2018-06-30T16:11:30Z</time>
      </trkpt>
      <trkpt lat="42.47165" lon="2.09922">
        <ele>1766.088</ele>
        <time>2018-06-30T16:11:46Z</time>
      </trkpt>
      <trkpt lat="42.47177" lon="2.0993">
        <ele>1768.017</ele>
        <time>2018-06-30T16:12:01Z</time>
      </trkpt>
      <trkpt lat="42.4718" lon="2.09937">
        <ele>1768.487</ele>
        <time>2018-06-30T16:12:16Z</time>
      </trkpt>
      <trkpt lat="42.4718" lon="2.09937">
        <ele>1768.915</ele>
        <time>2018-06-30T16:12:30Z</time>
      </trkpt>
      <trkpt lat="42.47183" lon="2.09937">
        <ele>1768.908</ele>
        <time>2018-06-30T16:12:47Z</time>
      </trkpt>
      <trkpt lat="42.47187" lon="2.09934">
        <ele>1768.013</ele>
        <time>2018-06-30T16:12:54Z</time>
      </trkpt>
      <trkpt lat="42.47188" lon="2.09933">
        <ele>1767.537</ele>
        <time>2018-06-30T16:13:09Z</time>
      </trkpt>
      <trkpt lat="42.47189" lon="2.09933">
        <ele>1767.569</ele>
        <time>2018-06-30T16:13:23Z</time>
      </trkpt>
      <trkpt lat="42.47196" lon="2.09933">
        <ele>1767.548</ele>
        <time>2018-06-30T16:13:29Z</time>
      </trkpt>
      <trkpt lat="42.47201" lon="2.09934">
        <ele>1767.083</ele>
        <time>2018-06-30T16:13:33Z</time>
      </trkpt>
      <trkpt lat="42.47224" lon="2.09932">
        <ele>1765.622</ele>
        <time>2018-06-30T16:13:51Z</time>
      </trkpt>
      <trkpt lat="42.47247" lon="2.09922">
        <ele>1765.188</ele>
        <time>2018-06-30T16:14:09Z</time>
      </trkpt>
      <trkpt lat="42.47264" lon="2.09908">
        <ele>1764.614</ele>
        <time>2018-06-30T16:14:25Z</time>
      </trkpt>
      <trkpt lat="42.4728" lon="2.09896">
        <ele>1765.616</ele>
        <time>2018-06-30T16:14:40Z</time>
      </trkpt>
      <trkpt lat="42.47303" lon="2.09879">
        <ele>1765.676</ele>
        <time>2018-06-30T16:15:00Z</time>
      </trkpt>
      <trkpt lat="42.47322" lon="2.09866">
        <ele>1765.613</ele>
        <time>2018-06-30T16:15:17Z</time>
      </trkpt>
      <trkpt lat="42.47341" lon="2.09867">
        <ele>1764.108</ele>
        <time>2018-06-30T16:15:32Z</time>
      </trkpt>
      <trkpt lat="42.47356" lon="2.09886">
        <ele>1765.623</ele>
        <time>2018-06-30T16:15:48Z</time>
      </trkpt>
      <trkpt lat="42.47367" lon="2.09897">
        <ele>1766.597</ele>
        <time>2018-06-30T16:16:01Z</time>
      </trkpt>
      <trkpt lat="42.47384" lon="2.09912">
        <ele>1768.489</ele>
        <time>2018-06-30T16:16:17Z</time>
      </trkpt>
      <trkpt lat="42.47397" lon="2.0993">
        <ele>1769.418</ele>
        <time>2018-06-30T16:16:33Z</time>
      </trkpt>
      <trkpt lat="42.47412" lon="2.09949">
        <ele>1770.823</ele>
        <time>2018-06-30T16:16:50Z</time>
      </trkpt>
      <trkpt lat="42.47423" lon="2.09968">
        <ele>1771.832</ele>
        <time>2018-06-30T16:17:05Z</time>
      </trkpt>
      <trkpt lat="42.47435" lon="2.09986">
        <ele>1773.718</ele>
        <time>2018-06-30T16:17:21Z</time>
      </trkpt>
      <trkpt lat="42.47449" lon="2.10007">
        <ele>1774.734</ele>
        <time>2018-06-30T16:17:39Z</time>
      </trkpt>
      <trkpt lat="42.4746" lon="2.10024">
        <ele>1776.125</ele>
        <time>2018-06-30T16:17:54Z</time>
      </trkpt>
      <trkpt lat="42.4747" lon="2.10038">
        <ele>1777.626</ele>
        <time>2018-06-30T16:18:07Z</time>
      </trkpt>
      <trkpt lat="42.47477" lon="2.10047">
        <ele>1778.108</ele>
        <time>2018-06-30T16:18:16Z</time>
      </trkpt>
      <trkpt lat="42.47492" lon="2.10064">
        <ele>1779.008</ele>
        <time>2018-06-30T16:18:33Z</time>
      </trkpt>
      <trkpt lat="42.47506" lon="2.10081">
        <ele>1780.084</ele>
        <time>2018-06-30T16:18:49Z</time>
      </trkpt>
      <trkpt lat="42.47519" lon="2.10096">
        <ele>1780.988</ele>
        <time>2018-06-30T16:19:03Z</time>
      </trkpt>
      <trkpt lat="42.4753" lon="2.10109">
        <ele>1781.96</ele>
        <time>2018-06-30T16:19:18Z</time>
      </trkpt>
      <trkpt lat="42.47545" lon="2.10126">
        <ele>1782.979</ele>
        <time>2018-06-30T16:19:33Z</time>
      </trkpt>
      <trkpt lat="42.47558" lon="2.10142">
        <ele>1783.874</ele>
        <time>2018-06-30T16:19:49Z</time>
      </trkpt>
      <trkpt lat="42.47562" lon="2.10147">
        <ele>1784.313</ele>
        <time>2018-06-30T16:19:54Z</time>
      </trkpt>
      <trkpt lat="42.47564" lon="2.10148">
        <ele>1784.349</ele>
        <time>2018-06-30T16:19:56Z</time>
      </trkpt>
      <trkpt lat="42.47565" lon="2.1015">
        <ele>1784.395</ele>
        <time>2018-06-30T16:20:12Z</time>
      </trkpt>
      <trkpt lat="42.47566" lon="2.1015">
        <ele>1784.359</ele>
        <time>2018-06-30T16:20:53Z</time>
      </trkpt>
    </trkseg>
  </trk>
</gpx>